[[{"header":{"parameterUnit":"m.s-1","parameterCategory":1,"la1":30.6,"la2":29.2853,"lo1":-89.7004,"lo2":-87.6739,"dy":0.0162,"dx":0.0183,"nx":112,"ny":82,"refTime":"2024-10-10T18:00:00:Z","depth":0,"parameterNumber":2,"parameterNumberName":"U-component_of_WINDS"},"data":[0.0,0.0,0.0,0.0,0.0,0.0,0.0,0.0,0.0,0.0,0.0,0.0,0.0,0.0,0.0,0.0,0.0,0.0,0.0,0.0,0.0,0.0,0.0,0.0,0.0,0.0,0.0,0.0,0.0,0.0,0.0,0.0,0.0,0.0,0.0,0.0,0.0,0.0,0.0,0.0,0.0,0.0,0.0,0.0,0.0,0.0,0.0,0.0,0.0,0.0,0.0,0.0,0.0,0.0,0.0,0.0,0.0,0.0,0.0,0.0,0.0,0.0,0.0,0.0,0.0,0.0,0.0,0.0,0.0,0.0,0.0,0.0,0.0,0.0,0.0,0.0,0.0,0.0,0.0,0.0,0.0,0.0,0.0,0.0,0.0,0.0,0.0,0.0,0.0,0.0,0.0,3.6185,3.8192,3.9709,4.0476,4.0408,3.8931,3.5724,0.0,0.0,0.0,0.0,0.0,0.0,0.0,0.0,0.0,0.0,0.0,0.0,0.0,0.0,0.0,0.0,0.0,0.0,0.0,0.0,0.0,0.0,0.0,0.0,0.0,0.0,0.0,0.0,0.0,0.0,0.0,0.0,0.0,0.0,0.0,0.0,0.0,0.0,0.0,0.0,0.0,0.0,0.0,0.0,0.0,0.0,0.0,0.0,0.0,0.0,0.0,0.0,0.0,0.0,0.0,0.0,0.0,0.0,0.0,0.0,0.0,0.0,0.0,0.0,0.0,0.0,0.0,0.0,0.0,0.0,0.0,0.0,0.0,0.0,0.0,0.0,0.0,0.0,0.0,0.0,0.0,0.0,0.0,0.0,0.0,0.0,0.0,0.0,0.0,0.0,0.0,0.0,0.0,0.0,0.0,0.0,0.0,0.0,0.0,0.0,0.0,0.0,0.0,0.0,3.3876,3.7948,3.8465,3.9081,4.0553,3.9985,3.843,3.5773,0.0,0.0,0.0,0.0,0.0,0.0,0.0,0.0,0.0,0.0,0.0,0.0,0.0,0.0,0.0,0.0,0.0,0.0,0.0,0.0,0.0,0.0,0.0,0.0,0.0,0.0,0.0,0.0,0.0,0.0,0.0,0.0,0.0,0.0,0.0,0.0,0.0,0.0,0.0,0.0,0.0,0.0,0.0,0.0,0.0,0.0,0.0,0.0,0.0,0.0,0.0,0.0,0.0,0.0,0.0,0.0,0.0,0.0,0.0,0.0,0.0,0.0,0.0,0.0,0.0,0.0,0.0,0.0,0.0,0.0,0.0,0.0,0.0,0.0,0.0,0.0,0.0,0.0,0.0,0.0,0.0,0.0,0.0,0.0,0.0,0.0,0.0,0.0,0.0,0.0,0.0,0.0,0.0,0.0,0.0,0.0,0.0,0.0,0.0,0.0,0.0,0.0,0.0,3.3763,3.5429,3.7904,3.838,3.8785,3.9246,3.8931,3.7627,3.5056,3.3634,0.0,0.0,0.0,0.0,0.0,0.0,0.0,0.0,0.0,0.0,0.0,0.0,0.0,0.0,0.0,0.0,0.0,0.0,0.0,0.0,0.0,0.0,0.0,0.0,0.0,0.0,0.0,0.0,0.0,0.0,0.0,0.0,0.0,0.0,0.0,0.0,0.0,0.0,0.0,0.0,0.0,0.0,0.0,0.0,0.0,0.0,0.0,0.0,0.0,0.0,0.0,0.0,0.0,0.0,0.0,0.0,0.0,0.0,0.0,0.0,0.0,0.0,0.0,0.0,0.0,0.0,0.0,0.0,0.0,0.0,0.0,0.0,0.0,0.0,0.0,0.0,0.0,0.0,0.0,0.0,0.0,0.0,0.0,0.0,0.0,0.0,0.0,0.0,0.0,0.0,0.0,0.0,0.0,0.0,0.0,0.0,0.0,0.0,0.0,0.0,0.0,0.0,3.5614,3.7015,3.7702,3.8218,3.84,3.817,3.777,3.6609,3.4464,3.2568,0.0,0.0,0.0,0.0,0.0,0.0,0.0,0.0,0.0,0.0,0.0,0.0,0.0,0.0,0.0,0.0,0.0,0.0,0.0,0.0,0.0,0.0,0.0,0.0,0.0,0.0,0.0,0.0,0.0,0.0,0.0,0.0,0.0,0.0,0.0,0.0,0.0,0.0,0.0,0.0,0.0,0.0,0.0,0.0,0.0,0.0,0.0,0.0,0.0,0.0,0.0,0.0,0.0,0.0,0.0,0.0,0.0,0.0,0.0,0.0,0.0,0.0,0.0,0.0,0.0,0.0,0.0,0.0,0.0,0.0,0.0,0.0,0.0,0.0,0.0,0.0,0.0,0.0,0.0,0.0,0.0,0.0,0.0,0.0,0.0,0.0,0.0,0.0,0.0,0.0,0.0,0.0,0.0,0.0,0.0,0.0,0.0,0.0,0.0,0.0,0.0,0.0,3.5652,3.7698,3.8211,3.7867,3.7768,3.8262,3.6813,3.5482,3.4536,3.2154,0.0,0.0,0.0,0.0,0.0,0.0,0.0,0.0,0.0,0.0,0.0,0.0,0.0,0.0,0.0,0.0,0.0,0.0,0.0,0.0,0.0,0.0,0.0,0.0,0.0,0.0,0.0,0.0,0.0,0.0,0.0,0.0,0.0,0.0,0.0,0.0,0.0,0.0,0.0,0.0,0.0,0.0,0.0,0.0,0.0,0.0,0.0,0.0,0.0,0.0,0.0,0.0,0.0,0.0,0.0,0.0,0.0,0.0,0.0,0.0,0.0,0.0,0.0,0.0,0.0,0.0,0.0,0.0,0.0,0.0,0.0,0.0,0.0,0.0,0.0,0.0,0.0,0.0,0.0,0.0,0.0,0.0,0.0,0.0,0.0,0.0,0.0,0.0,0.0,0.0,0.0,0.0,0.0,0.0,0.0,0.0,0.0,0.0,0.0,0.0,0.0,0.0,3.5684,3.7617,0.0,3.7718,3.7494,3.6738,3.6057,3.5107,3.3757,0.0,0.0,0.0,0.0,0.0,0.0,0.0,0.0,0.0,0.0,0.0,0.0,0.0,0.0,0.0,0.0,0.0,0.0,0.0,0.0,0.0,0.0,0.0,0.0,0.0,0.0,0.0,0.0,0.0,0.0,0.0,0.0,0.0,0.0,0.0,0.0,0.0,0.0,0.0,0.0,0.0,0.0,0.0,0.0,0.0,0.0,0.0,0.0,0.0,0.0,0.0,0.0,0.0,0.0,0.0,0.0,0.0,0.0,0.0,0.0,0.0,0.0,0.0,0.0,0.0,0.0,0.0,0.0,0.0,0.0,0.0,0.0,0.0,0.0,0.0,0.0,0.0,0.0,0.0,0.0,0.0,0.0,0.0,0.0,0.0,0.0,0.0,0.0,0.0,0.0,0.0,0.0,0.0,0.0,0.0,0.0,0.0,0.0,0.0,0.0,0.0,0.0,3.2687,3.5871,3.7891,0.0,3.7809,3.7469,3.6213,3.564,3.4601,3.2906,0.0,0.0,0.0,0.0,0.0,0.0,0.0,0.0,0.0,0.0,0.0,0.0,0.0,0.0,0.0,0.0,0.0,0.0,0.0,0.0,0.0,0.0,0.0,0.0,0.0,0.0,0.0,0.0,0.0,0.0,0.0,0.0,0.0,0.0,0.0,0.0,0.0,0.0,0.0,0.0,0.0,0.0,0.0,0.0,0.0,0.0,0.0,0.0,0.0,0.0,0.0,0.0,0.0,0.0,0.0,0.0,0.0,0.0,0.0,0.0,0.0,0.0,0.0,0.0,0.0,0.0,0.0,0.0,0.0,0.0,0.0,0.0,0.0,0.0,0.0,0.0,0.0,0.0,0.0,0.0,0.0,0.0,0.0,0.0,0.0,0.0,0.0,0.0,0.0,0.0,0.0,0.0,0.0,0.0,0.0,0.0,0.0,0.0,0.0,0.0,0.0,0.0,3.2565,3.6274,3.8689,3.8342,3.8115,3.7752,3.7049,3.5476,3.3784,0.0,0.0,0.0,0.0,0.0,0.0,0.0,0.0,0.0,0.0,0.0,0.0,0.0,0.0,0.0,0.0,0.0,0.0,0.0,0.0,0.0,0.0,0.0,0.0,0.0,0.0,0.0,0.0,0.0,0.0,0.0,0.0,0.0,0.0,0.0,0.0,0.0,0.0,0.0,0.0,0.0,0.0,0.0,0.0,0.0,0.0,0.0,0.0,0.0,0.0,0.0,0.0,0.0,0.0,0.0,0.0,0.0,0.0,0.0,0.0,0.0,0.0,0.0,0.0,0.0,0.0,0.0,0.0,0.0,0.0,0.0,0.0,0.0,0.0,0.0,0.0,0.0,0.0,0.0,0.0,0.0,0.0,0.0,0.0,0.0,0.0,0.0,0.0,0.0,0.0,0.0,0.0,0.0,0.0,0.0,0.0,0.0,0.0,0.0,0.0,0.0,0.0,0.0,3.2666,3.6602,3.9086,3.8365,3.8115,3.7752,3.7049,3.5929,3.4326,3.2031,0.0,0.0,0.0,0.0,0.0,0.0,0.0,0.0,0.0,0.0,0.0,0.0,0.0,0.0,0.0,0.0,0.0,0.0,0.0,0.0,0.0,0.0,0.0,0.0,0.0,0.0,0.0,0.0,0.0,0.0,0.0,0.0,0.0,0.0,0.0,0.0,0.0,0.0,0.0,0.0,0.0,0.0,0.0,0.0,0.0,0.0,0.0,0.0,0.0,0.0,0.0,0.0,0.0,0.0,0.0,0.0,0.0,0.0,0.0,0.0,0.0,0.0,0.0,0.0,0.0,0.0,0.0,0.0,0.0,0.0,0.0,0.0,0.0,0.0,0.0,0.0,0.0,0.0,0.0,0.0,0.0,0.0,0.0,0.0,0.0,0.0,0.0,0.0,0.0,0.0,0.0,0.0,0.0,0.0,0.0,0.0,0.0,0.0,0.0,0.0,0.0,0.0,3.3125,3.6619,3.8878,3.8388,3.7809,3.7353,3.7021,3.6129,3.4533,3.2058,0.0,0.0,0.0,0.0,0.0,0.0,0.0,0.0,0.0,0.0,0.0,0.0,0.0,0.0,0.0,0.0,0.0,0.0,0.0,0.0,0.0,0.0,0.0,0.0,0.0,0.0,0.0,0.0,0.0,0.0,0.0,0.0,0.0,0.0,0.0,0.0,0.0,0.0,0.0,0.0,0.0,0.0,0.0,0.0,0.0,0.0,0.0,0.0,0.0,0.0,0.0,0.0,0.0,0.0,0.0,0.0,0.0,0.0,0.0,0.0,0.0,0.0,0.0,0.0,0.0,0.0,0.0,0.0,0.0,0.0,0.0,0.0,0.0,0.0,0.0,0.0,0.0,0.0,0.0,0.0,0.0,0.0,0.0,0.0,0.0,0.0,0.0,0.0,0.0,0.0,0.0,0.0,0.0,0.0,0.0,0.0,0.0,0.0,0.0,0.0,0.0,0.0,3.383,3.6472,3.8313,3.8335,3.7351,3.6762,3.6978,3.6134,3.4592,3.2173,0.0,0.0,0.0,0.0,0.0,0.0,0.0,0.0,0.0,0.0,0.0,0.0,0.0,0.0,0.0,0.0,0.0,0.0,0.0,0.0,0.0,0.0,0.0,0.0,0.0,0.0,0.0,0.0,0.0,0.0,0.0,0.0,0.0,0.0,0.0,0.0,0.0,0.0,0.0,0.0,0.0,0.0,0.0,0.0,0.0,0.0,0.0,0.0,0.0,0.0,0.0,0.0,0.0,0.0,0.0,0.0,0.0,0.0,0.0,0.0,2.9259,0.0,0.0,0.0,0.0,0.0,0.0,0.0,0.0,0.0,0.0,0.0,0.0,0.0,0.0,0.0,0.0,0.0,0.0,0.0,0.0,0.0,0.0,0.0,0.0,0.0,0.0,0.0,0.0,0.0,0.0,0.0,0.0,0.0,0.0,0.0,0.0,0.0,0.0,0.0,0.0,0.0,3.4556,3.6783,3.8401,3.8649,3.7491,3.6762,3.6978,3.6073,3.4764,3.3018,0.0,0.0,0.0,0.0,0.0,0.0,0.0,0.0,0.0,0.0,0.0,0.0,0.0,0.0,0.0,0.0,0.0,0.0,0.0,0.0,0.0,0.0,0.0,0.0,0.0,0.0,0.0,0.0,0.0,0.0,0.0,0.0,0.0,0.0,0.0,0.0,0.0,0.0,0.0,0.0,0.0,0.0,0.0,0.0,0.0,0.0,0.0,0.0,0.0,0.0,0.0,0.0,0.0,0.0,0.0,0.0,0.0,0.0,0.0,0.0,0.0,3.0961,0.0,0.0,0.0,0.0,0.0,0.0,0.0,0.0,0.0,0.0,0.0,0.0,0.0,0.0,0.0,0.0,0.0,0.0,0.0,0.0,0.0,0.0,0.0,0.0,0.0,0.0,0.0,0.0,0.0,0.0,0.0,0.0,0.0,0.0,0.0,0.0,0.0,0.0,0.0,0.0,3.534,3.6795,3.7835,3.8118,3.6949,3.6185,3.6339,3.5801,3.4993,3.3813,3.2735,0.0,0.0,0.0,0.0,0.0,0.0,0.0,0.0,0.0,0.0,0.0,0.0,0.0,0.0,0.0,0.0,0.0,0.0,0.0,0.0,0.0,0.0,0.0,0.0,0.0,0.0,0.0,0.0,0.0,0.0,0.0,0.0,0.0,0.0,0.0,0.0,0.0,0.0,0.0,0.0,0.0,0.0,0.0,0.0,0.0,0.0,0.0,0.0,0.0,0.0,0.0,0.0,0.0,0.0,3.3304,3.3377,3.3691,3.42,3.4706,3.3319,3.3599,3.4979,0.0,0.0,0.0,0.0,0.0,0.0,0.0,0.0,0.0,0.0,0.0,0.0,0.0,0.0,0.0,0.0,0.0,0.0,0.0,0.0,0.0,0.0,0.0,0.0,0.0,3.7546,3.7796,0.0,0.0,0.0,0.0,0.0,0.0,0.0,0.0,0.0,0.0,0.0,0.0,3.5892,3.6694,3.7175,3.7354,3.6236,3.5545,3.5584,3.5545,3.5238,3.4545,3.3475,3.2656,0.0,0.0,0.0,0.0,0.0,0.0,0.0,0.0,0.0,0.0,0.0,0.0,0.0,0.0,0.0,0.0,0.0,0.0,0.0,0.0,0.0,0.0,0.0,0.0,0.0,0.0,0.0,0.0,0.0,0.0,0.0,0.0,2.8721,3.0378,0.0,0.0,0.0,0.0,0.0,0.0,0.0,0.0,0.0,0.0,0.0,0.0,0.0,0.0,3.1913,3.1502,3.1949,3.3255,3.4021,3.4676,3.527,3.528,3.5883,3.6787,3.6081,0.0,3.5395,3.4521,0.0,0.0,0.0,0.0,0.0,0.0,0.0,0.0,0.0,0.0,0.0,0.0,0.0,0.0,0.0,0.0,0.0,0.0,0.0,0.0,0.0,0.0,3.6969,3.7535,3.7541,3.7399,0.0,3.7419,3.6646,3.4219,0.0,0.0,0.0,0.0,0.0,0.0,0.0,0.0,3.5852,3.661,3.701,3.6842,3.6017,3.5545,3.5584,3.5545,3.5468,3.543,3.4532,3.3955,3.3853,3.234,0.0,0.0,0.0,0.0,0.0,0.0,0.0,0.0,0.0,0.0,0.0,0.0,0.0,0.0,0.0,0.0,0.0,0.0,0.0,0.0,0.0,0.0,0.0,0.0,0.0,0.0,0.0,0.0,0.0,2.7076,2.9124,3.0035,3.0872,3.1109,0.0,0.0,0.0,0.0,0.0,0.0,0.0,0.0,0.0,2.8654,2.8576,2.8973,3.0068,3.0673,3.1411,3.2233,3.3436,3.4126,3.437,3.437,3.4802,3.5524,3.5253,3.5005,3.485,3.5155,3.4657,3.3635,0.0,0.0,0.0,0.0,0.0,3.0912,3.2814,0.0,0.0,0.0,0.0,0.0,0.0,0.0,0.0,0.0,0.0,0.0,0.0,0.0,0.0,3.7859,3.8036,3.7839,3.7796,3.7742,3.7019,0.0,3.4609,3.4066,3.1258,0.0,0.0,0.0,0.0,0.0,3.6468,3.688,3.6992,3.6733,3.5968,3.5507,3.5545,3.5545,3.5507,3.5545,3.5161,3.493,3.493,3.3776,3.2929,0.0,0.0,0.0,0.0,0.0,0.0,0.0,0.0,0.0,0.0,0.0,0.0,0.0,0.0,0.0,0.0,0.0,0.0,0.0,0.0,0.0,0.0,0.0,0.0,0.0,0.0,0.0,0.0,2.7722,2.932,2.9743,3.0552,3.0591,0.0,0.0,0.0,0.0,0.0,0.0,2.4755,2.5977,2.6436,2.5922,2.6576,2.74,2.8274,2.9252,3.0095,3.0983,3.2352,3.3069,3.3177,3.3305,3.3721,3.4202,3.3894,3.3768,3.3845,3.4559,3.4436,3.3779,3.3214,3.2009,3.0831,3.2722,3.2065,3.0592,3.2983,3.3307,3.266,3.2689,0.0,3.2804,3.2165,0.0,0.0,0.0,0.0,3.1757,3.3606,0.0,3.5036,3.6865,3.7071,3.688,3.6831,3.6599,3.5994,0.0,3.4918,3.4592,3.2286,0.0,0.0,0.0,0.0,3.5876,3.6408,3.6691,3.6689,3.6426,3.5853,3.5493,3.5493,3.5493,3.5493,3.5493,3.5493,3.5493,3.5493,3.4891,3.443,3.4199,0.0,0.0,0.0,0.0,0.0,0.0,0.0,0.0,0.0,0.0,0.0,0.0,0.0,0.0,0.0,0.0,0.0,0.0,0.0,0.0,0.0,0.0,0.0,0.0,0.0,0.0,0.0,0.0,0.0,3.0222,3.0477,0.0,0.0,0.0,0.0,2.3387,2.3662,2.3581,2.2763,2.3866,2.4453,2.4414,2.4755,2.5816,2.7538,2.7008,2.7931,3.0338,3.1181,3.1945,3.2541,3.3134,3.3721,3.4164,3.3067,3.2497,3.2309,3.2155,3.1819,3.1156,2.9134,2.8282,2.8261,2.9056,2.8931,2.8618,3.142,3.1512,3.0709,3.2887,3.2624,3.1614,3.2271,3.1454,0.0,0.0,3.1966,3.1821,3.3168,3.3102,3.2961,3.4145,3.3583,3.3095,3.425,3.3617,3.3205,0.0,3.4748,3.4452,3.3529,0.0,3.3527,3.3564,3.434,3.4866,3.483,3.5484,3.5875,3.558,3.5532,3.5493,3.5493,3.5493,3.5493,3.5493,3.5493,3.5493,3.5493,3.5468,3.5045,3.4199,3.3853,0.0,0.0,0.0,0.0,0.0,0.0,0.0,0.0,0.0,0.0,0.0,0.0,0.0,0.0,0.0,0.0,0.0,0.0,0.0,0.0,0.0,0.0,0.0,0.0,0.0,0.0,0.0,0.0,2.6541,2.6542,0.0,2.3786,2.264,2.128,1.9516,2.0597,2.0489,1.8356,2.0066,2.0807,2.0215,2.1403,2.2705,2.3963,2.5294,2.6923,2.8853,3.0141,3.1095,3.1649,3.1888,3.2089,3.2247,3.1408,3.109,3.0978,2.9908,2.9735,2.9977,2.9177,2.839,2.773,2.8374,2.7936,2.723,2.8598,2.9366,2.9991,3.1591,3.2071,3.1862,3.1127,3.0915,3.083,3.0539,3.096,3.1608,3.1607,3.1775,3.2006,3.243,3.2236,3.1931,3.1935,3.1593,3.133,3.1389,3.2804,3.3764,3.2982,3.3615,3.4264,3.4338,3.5013,3.5519,3.5484,3.5711,3.5799,3.5542,3.5493,3.5493,3.5493,3.5493,3.5493,3.5493,3.5493,3.5493,3.5493,3.5493,3.5353,3.5045,3.4375,3.3025,0.0,0.0,0.0,0.0,0.0,0.0,0.0,0.0,0.0,0.0,0.0,0.0,0.0,0.0,0.0,0.0,0.0,0.0,0.0,0.0,0.0,0.0,0.0,0.0,0.0,0.0,2.5541,2.3197,2.2878,2.2059,2.0037,1.9116,1.8072,1.6853,1.775,1.7624,1.5988,1.74,1.8138,1.7859,1.9673,2.1075,2.1978,2.4229,2.6144,2.7718,2.9027,2.9989,3.0549,3.074,3.0818,3.0779,3.0194,2.9805,2.9526,2.8082,2.7679,2.7958,2.7973,2.7396,2.6638,2.683,2.6339,2.5706,2.6603,2.7681,2.8895,2.9719,3.0248,3.044,2.9405,2.9638,3.0159,2.9262,2.9733,3.0545,3.0309,3.0396,3.0593,3.0782,3.0688,3.0464,3.0273,3.0083,2.9867,2.9642,3.1006,3.2226,3.2187,3.3161,3.4006,3.4373,3.5013,3.5522,3.5484,3.5484,3.5515,3.5504,3.5493,3.5493,3.5493,3.5493,3.5493,3.5493,3.5493,3.5507,3.5545,3.5262,3.5224,3.5545,3.4764,3.3792,3.2622,0.0,0.0,0.0,0.0,0.0,0.0,0.0,0.0,0.0,0.0,0.0,0.0,0.0,0.0,0.0,0.0,0.0,0.0,0.0,0.0,0.0,0.0,0.0,2.3653,2.4385,2.3649,2.0665,1.9868,1.8709,1.6663,1.593,1.5518,1.552,1.5109,1.5158,1.5907,1.6119,1.6648,1.7656,1.9613,2.1032,2.198,2.3829,2.5503,2.7104,2.7906,2.8618,2.9197,2.9811,3.0074,3.0036,2.943,2.8762,2.7976,2.6585,2.5751,2.5203,2.5091,2.5037,2.5004,2.4264,2.3979,2.4154,2.5598,2.6553,2.7242,2.7242,2.727,2.727,2.727,2.7738,2.8396,2.8367,2.8488,2.8733,2.9254,2.8958,2.8606,2.918,2.8904,2.8649,2.9299,2.8981,2.8757,2.9385,2.9559,2.9955,3.1292,3.2079,3.282,3.3493,3.42,0.0,3.4717,3.4713,3.4908,3.5427,3.5493,3.5493,3.5493,3.5493,3.5493,3.5493,3.5493,3.5545,3.5622,3.4826,3.4787,3.5647,3.5057,3.4832,3.5016,0.0,0.0,0.0,0.0,0.0,0.0,0.0,0.0,0.0,0.0,0.0,0.0,0.0,0.0,0.0,0.0,0.0,0.0,0.0,0.0,0.0,0.0,2.1546,2.2411,2.1741,2.0437,1.8449,1.6715,1.5191,1.4048,1.4128,1.3885,1.3068,1.4498,1.5146,1.4516,1.5769,1.6935,1.7827,1.9624,2.1274,2.2712,2.3869,2.5392,2.7182,2.7457,2.8078,2.9076,2.9259,2.9296,2.9296,2.8661,2.8279,2.8046,2.7201,2.6541,2.5965,2.4766,2.4383,2.44,2.3653,2.3376,2.3523,2.4465,2.5255,2.5754,2.5721,2.6015,2.6398,2.6337,2.6881,2.7565,2.7625,2.8081,2.8539,2.8233,2.7981,2.791,2.8076,2.7959,2.792,2.8102,2.7981,2.7919,2.8098,2.8505,2.9379,3.1198,3.1931,3.254,3.3459,0.0,0.0,3.4663,3.4713,3.4908,3.5427,3.5493,3.5493,3.5493,3.5493,3.5493,0.0,3.5493,3.5776,3.6392,3.6185,3.6343,3.6965,3.6252,3.578,0.0,0.0,0.0,0.0,0.0,0.0,0.0,0.0,0.0,0.0,0.0,0.0,0.0,0.0,0.0,0.0,0.0,0.0,0.0,0.0,0.0,0.0,2.0122,1.9877,2.0507,1.9839,1.8616,1.6715,1.5033,1.3802,1.3369,1.3218,1.3204,1.3384,1.4442,1.5209,1.5549,1.6569,1.7514,1.8317,2.0488,2.1837,2.2264,2.4203,2.5756,2.6793,2.7019,2.7635,2.8484,2.8484,2.8484,0.0,2.8122,2.7973,2.794,2.7268,2.6712,0.0,0.0,0.0,0.0,0.0,2.3186,2.3244,2.3738,2.4047,2.4279,2.4245,2.4779,2.5342,2.5255,2.6027,2.6891,2.6966,2.7524,2.8068,2.773,2.761,2.761,2.761,2.761,2.761,2.761,2.761,2.766,2.7959,0.0,0.0,3.0693,3.1616,3.2334,3.3037,3.3824,3.4418,0.0,3.4713,3.4908,3.5427,3.5815,3.6007,3.6007,3.6353,0.0,0.0,0.0,3.6608,3.6748,3.7108,0.0,0.0,0.0,0.0,0.0,0.0,0.0,0.0,3.8427,3.8838,0.0,0.0,0.0,0.0,0.0,0.0,0.0,0.0,0.0,0.0,0.0,0.0,0.0,0.0,0.0,0.0,1.8708,1.7926,1.828,1.8322,1.7587,1.5496,1.4435,1.3802,1.3835,1.3212,1.3541,1.5231,1.508,1.5794,1.7801,0.0,0.0,0.0,0.0,2.2347,2.1479,2.456,2.6119,2.62,2.6598,2.7138,2.7742,2.7742,2.7742,2.7742,2.7742,2.7741,2.7638,2.6962,2.6432,2.6005,2.544,2.4849,2.4319,2.3664,2.3393,0.0,0.0,0.0,0.0,2.3339,2.3813,2.4452,2.4509,2.5467,2.6496,2.6654,2.7152,2.761,2.766,2.766,2.761,2.761,2.761,2.761,2.761,2.766,2.786,2.8367,2.8606,2.9042,3.0192,3.1321,3.2162,3.2472,3.3462,0.0,3.4797,3.4826,3.5059,3.5696,0.0,0.0,3.6853,3.7546,3.8007,3.8007,3.8084,3.7839,3.7117,3.7901,3.877,3.9588,3.965,4.0438,4.2059,4.1489,4.1556,4.2145,3.9453,3.9342,0.0,0.0,0.0,0.0,0.0,0.0,0.0,0.0,0.0,0.0,0.0,0.0,0.0,0.0,0.0,1.739,1.7616,1.7656,1.6717,1.6616,1.6208,1.5122,1.4452,1.3813,1.3207,1.4479,1.5444,1.585,1.6691,1.7616,1.8611,1.8725,0.0,1.9936,2.1003,2.2095,2.3146,2.4154,2.518,2.6227,0.0,0.0,2.7385,2.7385,2.7385,2.7385,2.7385,2.7226,2.6894,2.6759,2.617,2.5346,2.4832,2.4241,2.3612,2.3458,2.3357,2.3443,2.4013,2.415,2.4231,2.4774,2.505,2.53,2.5906,2.6283,0.0,2.7799,2.791,2.771,2.8174,2.7959,2.761,2.761,2.761,2.761,2.761,2.8008,2.8367,2.8463,2.9271,3.0117,3.0711,3.1291,3.188,3.24,3.331,3.4323,3.5518,3.5677,3.6141,3.7386,3.7661,3.7738,3.7738,3.7892,3.8007,3.8007,3.8661,3.8969,3.8815,3.9585,4.0312,4.0903,4.0685,4.0942,4.1717,4.1957,4.1898,4.1578,4.0962,4.1538,0.0,0.0,0.0,0.0,0.0,0.0,0.0,0.0,0.0,0.0,0.0,1.911,1.8207,0.0,1.7678,1.6911,1.6937,1.6779,1.586,1.584,1.5838,1.5743,1.5469,1.5312,1.5312,1.6206,1.6812,1.6812,1.7568,1.8269,1.8771,1.9287,1.9851,2.0482,2.1742,2.2742,2.354,2.47,2.5529,2.6075,2.627,2.6691,2.7303,2.7303,2.7303,2.7303,2.7303,2.7051,2.6691,2.6453,2.5924,2.5169,2.4633,2.4053,2.3521,2.3521,2.3481,2.3497,2.3856,2.4156,2.4447,2.4777,2.5354,2.6068,2.6753,2.7246,2.77,2.867,2.8717,2.8575,2.8857,2.8717,2.8384,2.8125,2.8057,2.8057,2.8057,2.8271,2.8701,2.9271,2.9892,3.0493,3.1219,3.174,3.2227,3.2759,3.3735,3.477,3.5765,3.6243,3.69,3.7886,3.8392,3.8661,3.8661,3.9008,3.9238,3.9238,3.9662,3.9892,3.9892,4.0277,4.0756,4.1284,4.1382,4.1642,4.2201,4.2664,4.277,4.245,4.2193,4.241,0.0,0.0,0.0,0.0,0.0,0.0,0.0,0.0,1.9128,1.9146,1.8363,1.7581,1.7421,1.6852,1.6514,1.6808,1.6277,1.5743,1.5505,1.5517,1.5867,1.6556,1.6599,1.6819,1.7233,1.7396,1.7549,1.7639,1.8024,1.8501,1.9109,1.9909,2.0503,2.097,2.2655,2.3531,2.349,2.5287,2.614,2.5997,2.6556,2.7019,2.7426,2.7426,2.7426,2.7426,2.7241,2.6987,2.6657,2.6175,2.5742,2.5297,2.4752,2.4266,2.3879,2.3666,2.3555,2.3565,2.3826,2.4234,2.4675,2.4927,2.5878,2.699,2.744,2.8112,2.8795,2.9406,2.9496,2.9406,2.954,2.9496,2.9271,2.8795,2.8701,2.8701,2.8701,2.8795,2.9134,3.0107,3.0444,3.0858,3.1771,3.2473,3.3009,3.3388,3.4324,3.5362,3.6293,3.6961,3.7659,3.8385,3.9123,3.9508,3.9508,4.0123,4.0508,4.0508,4.0508,4.0508,4.0508,4.0592,4.0935,4.1512,4.1954,4.2425,4.3058,4.3365,4.3463,4.3321,4.3032,4.2882,2.6296,2.3067,2.0478,2.0746,1.9682,1.8893,0.0,0.0,1.9102,1.8753,1.8538,1.8113,1.686,1.6553,1.6275,1.5702,1.5233,1.5127,1.5622,1.5392,1.5622,1.6865,1.7038,1.6838,1.6232,1.6765,1.7376,1.7824,1.7918,1.87,2.0471,2.0651,2.1,2.1568,2.2814,2.3509,2.349,2.5176,2.6023,2.5997,2.6856,2.7457,2.784,2.784,2.784,2.7811,2.7083,2.6758,2.6657,2.6175,2.5961,2.5852,2.5335,2.5067,2.491,2.3964,2.3596,2.3747,2.4938,2.5396,2.5645,2.6852,2.772,2.8319,2.8367,2.881,2.9406,3.0021,2.9805,2.954,3.0064,2.9805,2.9361,2.9316,2.9316,2.9316,2.9316,2.9717,3.0107,3.0267,3.1016,3.1808,3.2332,3.3398,3.4217,3.4248,3.4688,3.5769,3.7875,3.8206,3.876,4.0092,4.0315,4.0354,4.0354,4.0431,4.0508,4.0508,4.0508,4.0508,4.0508,4.0958,4.1569,4.2349,4.257,4.3103,4.3886,4.3623,4.325,4.277,4.3214,4.3391,2.3733,2.1287,1.9437,1.8631,1.7983,1.7652,1.7849,1.7144,1.6443,1.658,1.6295,1.5892,1.5741,1.5382,1.5253,0.0,1.5306,1.5099,1.5429,1.5939,1.6362,1.6678,1.7626,1.8002,1.7339,1.7581,1.7968,1.8503,1.8902,1.962,2.0745,2.1117,2.1643,2.2253,2.3054,2.383,2.4449,2.5486,2.6139,2.6418,2.6757,2.7147,2.7547,2.7547,2.7547,2.7517,2.6954,2.6691,2.6691,2.6487,2.6245,2.5961,2.5779,2.5486,2.5105,2.4348,2.409,2.417,2.4777,2.5485,2.626,2.7208,2.8217,2.9088,2.9451,2.9717,3.0021,3.0642,3.0642,3.0518,3.0757,3.0642,3.0351,3.0021,2.9935,2.9935,2.9935,3.0107,3.0393,3.0757,3.1359,3.209,3.3034,3.3888,3.4811,3.6,3.6362,3.6869,3.7991,3.8696,3.9482,4.0399,4.0508,4.0508,4.0508,4.0508,4.0508,4.0508,4.0508,4.0739,4.1239,4.1265,4.158,4.2261,4.2622,4.2878,4.2991,4.3343,4.3356,4.3178,4.3428,4.3497,2.0785,1.9119,1.7977,1.6493,1.6218,1.6165,1.5698,1.4932,1.4481,1.507,1.4736,1.4546,1.5226,1.4966,1.4945,1.5851,1.564,1.5471,1.5747,1.656,1.7142,1.7144,1.8287,1.8998,1.8754,1.8539,1.8669,1.9234,1.9726,2.0378,2.1258,2.1722,2.2317,2.3113,2.3691,2.4449,2.5411,2.5924,2.635,2.6691,2.6825,2.7019,2.7303,2.7303,2.7241,2.7115,2.6825,2.6691,2.6691,2.6691,2.6521,2.6175,2.6175,2.6059,2.5853,2.5353,2.5035,2.4967,2.5247,2.6068,2.7118,2.7839,2.8767,2.9717,3.0149,3.0435,3.0642,3.1072,3.119,3.119,3.119,3.119,3.1112,3.0642,3.0559,3.0559,3.0559,3.0726,3.0983,3.1415,3.2104,3.2931,3.3846,3.4702,3.5788,3.7264,3.7661,3.7919,3.8197,3.9086,3.9944,4.0438,4.0508,4.0585,4.0854,4.0854,4.0969,4.12,4.1113,4.1332,4.1984,4.1791,4.1917,4.2295,4.2768,4.2876,4.2616,4.3204,4.3497,4.3497,4.3497,4.3497,1.7926,1.6279,1.5204,1.4616,1.4358,1.4174,1.4174,1.4121,1.4281,1.4966,1.5091,1.5226,1.5873,1.5974,1.5952,1.6003,1.6047,1.6289,1.6934,1.7136,1.7651,1.8852,1.9086,1.9336,0.0,1.9432,1.9322,1.9816,1.9871,2.0706,2.2563,2.2649,2.3201,2.4307,2.4871,2.5411,2.5961,2.6453,2.6691,2.6691,2.7083,2.7303,2.7303,2.7303,2.7083,2.6725,2.6691,2.6691,2.6691,2.6691,2.6691,2.6691,2.6691,2.7097,2.7668,2.7197,2.671,2.6343,2.6965,2.771,2.8426,2.9118,2.9729,3.0309,3.0309,3.0716,3.119,3.119,3.119,3.119,3.119,3.119,3.119,3.119,3.119,3.119,3.119,3.1732,3.2239,3.2239,3.3581,3.473,3.4765,3.6258,3.7441,3.7477,3.8175,3.8766,3.9053,3.9649,4.0176,4.0454,4.0508,4.0854,4.17,4.1777,4.2124,4.297,4.2661,4.2446,4.2484,4.2645,4.2776,4.2776,4.3254,4.3495,4.3461,4.3497,4.3497,4.3497,4.3497,4.3497,1.6648,1.536,1.4518,1.3932,1.3748,1.3814,1.4185,1.4113,1.4104,1.4736,1.5121,1.5428,1.5684,1.5707,1.5799,1.626,1.6292,1.6629,1.758,1.8055,1.8758,1.9905,2.0508,0.0,0.0,0.0,0.0,2.0514,2.0984,2.1672,2.2655,2.3426,2.4017,2.4389,2.5259,2.5815,2.5997,2.6487,2.6691,2.6691,2.7335,2.7368,2.6923,2.7402,2.7301,2.6691,2.6691,2.6691,2.6691,2.6691,2.6996,2.7435,2.7435,2.7909,2.8586,2.844,2.8557,2.876,2.8197,2.8424,2.9115,2.9793,3.0393,3.0878,3.0878,3.1072,3.119,3.119,3.119,3.119,3.119,3.119,3.1326,3.1799,3.1901,3.2036,3.2544,3.2848,3.3017,3.3017,3.3998,3.4942,3.5509,3.6656,3.7661,3.8212,3.8542,3.8892,3.9364,3.9641,3.9944,4.0438,4.1008,4.147,4.1777,4.2085,4.2374,4.268,4.2373,4.2418,4.301,4.2885,4.3044,4.3595,4.355,4.3497,4.3497,4.3497,4.3497,4.3497,4.3497,4.3497,1.5608,1.4635,1.3942,1.3421,1.353,1.3892,1.4153,1.429,1.4562,1.5174,1.5748,1.62,1.6464,1.6481,1.6566,1.7021,1.7203,1.7599,1.8436,1.9113,1.9929,2.1016,2.1873,2.2473,0.0,0.0,0.0,2.1854,2.2248,2.2859,2.3637,2.4164,2.4592,2.495,2.5635,2.6068,2.6245,2.6825,2.7097,2.7097,2.757,2.7571,2.7097,2.7604,2.7706,2.7503,2.7503,2.7503,2.7503,2.7503,2.7807,2.8247,2.8247,2.8721,2.9397,2.9397,2.9871,3.0369,2.9329,2.9428,3.0042,3.0508,3.0878,3.119,3.119,3.119,3.1258,3.1495,3.1562,3.163,3.1901,3.2002,3.2104,3.2577,3.2679,3.2814,3.3288,3.3626,3.3838,3.4014,3.4913,3.5864,3.6542,3.7624,3.8615,3.946,3.957,3.969,4.0,4.0056,4.0431,4.1306,4.181,4.2179,4.2486,4.2675,4.2921,4.3225,4.2913,4.2967,4.352,4.3223,4.3304,4.3818,4.3631,4.3497,4.3497,4.3497,4.3497,4.3497,4.3497,4.3497,1.4971,1.4152,1.348,1.3067,1.3687,1.4342,1.4015,1.4812,1.5768,1.6396,1.6944,1.7518,1.8052,1.8159,1.8187,1.8147,1.8644,1.9205,1.9654,2.0355,2.1167,0.0,0.0,0.0,0.0,0.0,0.0,2.3893,0.0,2.4273,2.5388,2.4865,2.4981,2.6026,2.603,2.6245,2.6691,2.7435,2.7806,2.784,2.7874,2.7874,2.784,2.7874,2.8315,2.9028,2.9028,2.9028,2.9028,2.9028,2.9028,2.9059,2.9059,2.9499,3.0176,3.0176,3.0615,3.1089,3.0412,3.0615,3.119,3.119,3.119,3.119,3.1224,3.1258,3.1393,3.2138,3.2341,3.251,3.322,3.3423,3.3423,3.3457,3.3457,3.3491,3.3525,3.4066,3.4712,3.5296,3.6478,3.7503,3.8003,3.913,4.023,4.1001,4.1111,4.1095,4.0966,4.0986,4.1516,4.2958,4.2795,4.2883,4.3721,4.3502,4.3679,4.4497,4.4175,4.3967,4.3967,4.366,4.3497,4.3497,4.3497,4.3497,4.3497,4.3497,4.3497,4.3497,4.3497,4.3497,1.4994,1.4556,1.4247,1.3716,1.4089,1.4832,1.5576,1.6236,1.6978,1.7981,1.8627,1.8919,1.8655,1.9073,1.9296,1.8905,2.0078,0.0,2.0998,2.1561,0.0,2.294,0.0,2.337,2.4462,2.5226,0.0,0.0,2.6041,2.5914,2.6231,2.6366,2.6559,2.6821,2.6616,2.659,2.6691,2.7435,2.8112,2.8687,2.9262,2.9228,2.8687,2.9262,2.933,2.9028,2.9028,2.9028,2.9028,2.9028,2.9296,2.9837,2.9837,3.0277,3.092,3.092,3.1021,3.1157,3.0987,3.1021,3.119,3.119,3.119,3.1292,3.1833,3.2002,3.2171,3.2916,3.3119,3.3152,3.3355,3.3423,3.3558,3.41,3.4201,3.437,3.4945,3.5216,3.5664,3.679,3.8341,3.9662,4.0185,4.0569,4.0855,4.1075,4.1111,4.1249,4.1732,4.1769,4.2139,4.2996,4.3312,4.3569,4.3759,4.383,4.3922,4.4146,4.3818,4.3631,4.3631,4.3566,4.3497,4.3497,4.3497,4.3497,4.3497,4.3497,4.3497,4.3497,4.3497,4.3497,1.5264,1.4926,1.4698,1.4562,1.5016,1.5704,1.6783,1.765,1.8427,1.9265,1.9682,1.9818,1.9504,2.0144,2.0586,0.0,0.0,0.0,2.2768,2.3332,2.3832,0.0,2.4334,0.0,2.5788,2.6488,2.7287,0.0,2.7498,2.7136,2.7657,2.763,2.7694,2.7952,2.7803,2.7841,2.818,2.8619,2.9059,2.9499,2.9905,2.9871,2.9499,2.9905,3.004,2.9939,0.0,2.9939,2.9939,2.9939,3.0209,3.0581,3.0581,3.0852,3.119,3.119,3.119,3.119,3.119,3.1393,3.1664,3.1664,3.1664,3.1799,3.2544,3.278,3.2916,3.3694,3.3863,3.3964,3.4303,3.437,3.4472,3.4878,3.525,3.5622,3.6028,3.64,3.6979,3.8196,3.9618,4.0846,4.1519,4.1625,4.1772,4.2103,4.2139,4.2332,4.2885,4.2723,4.2934,4.3687,4.3977,4.408,4.3895,4.3826,4.3791,4.3791,4.3597,4.3497,4.3497,4.3497,4.3497,4.3497,4.3497,4.3497,4.3497,4.3497,4.3497,4.3497,4.3497,4.3681,1.5708,1.5443,1.5241,1.57,1.6286,1.6933,1.7921,1.9046,2.0045,2.0462,2.0657,2.0782,2.0782,2.1443,2.2052,2.2143,0.0,2.482,2.471,2.5373,2.579,2.561,2.6214,2.6977,2.7549,2.8155,2.8763,2.9496,2.8519,2.8303,2.9313,2.8781,2.8615,2.8991,2.9028,2.933,3.0108,3.0108,3.0176,3.0243,3.0243,3.0243,3.0243,3.0243,3.0581,3.119,0.0,0.0,3.119,3.119,3.119,3.119,3.119,3.119,3.119,3.119,3.1258,3.1326,3.1326,3.1833,3.2408,3.2307,3.2381,3.2577,3.3322,3.3558,3.3694,3.4438,3.4641,3.481,3.5588,3.5791,3.5791,3.5893,3.6434,3.6988,3.7046,3.7763,3.8653,3.961,4.0673,4.1662,4.2323,4.247,4.269,4.3387,4.3497,4.3597,4.3912,4.3624,4.3705,4.4485,4.4572,4.4373,4.4028,4.3693,4.3497,4.3497,4.3497,4.3497,4.3497,4.3497,4.3497,4.3497,4.3497,4.3497,4.3497,4.3497,4.3497,4.3497,4.3608,4.4011,1.6403,1.6886,1.7491,1.741,1.7899,1.8636,1.9592,2.0746,2.1693,2.2183,2.2802,2.3292,2.3292,2.3565,2.3973,2.4582,2.5766,2.6704,2.6814,2.7365,2.755,0.0,2.7169,2.7508,2.8156,2.8359,0.0,0.0,0.0,0.0,3.0112,2.9895,2.9526,2.8991,2.9028,2.933,3.0108,3.0108,3.0412,3.1021,3.1021,3.1021,3.1021,3.1021,3.1089,3.119,0.0,0.0,3.119,3.119,3.119,3.119,3.119,3.119,3.119,3.119,3.1562,3.2104,3.2104,3.2577,3.3119,3.2476,3.2713,3.3355,3.41,3.4303,3.4472,3.5216,3.5419,3.5588,3.6366,3.6569,3.6738,3.7381,3.7618,3.7827,3.8274,3.97,4.0948,4.1101,4.2195,4.313,4.3277,4.3277,4.3314,4.3461,4.3497,4.3532,4.3563,4.3769,4.4083,4.4535,4.429,4.4058,4.3998,4.3693,4.3497,4.3497,4.3497,4.3497,4.3497,4.3497,4.3497,4.3497,4.3497,4.3497,4.3497,4.3497,4.3497,4.3497,4.4195,4.4562,1.7679,1.8076,1.8579,1.8958,1.9396,2.0104,2.1244,2.2052,2.2824,2.351,2.3783,2.3918,2.3918,2.4359,2.4932,2.5709,2.7173,2.8371,2.8941,2.9489,2.9657,2.9102,2.8982,2.9113,0.0,2.9371,0.0,0.0,0.0,0.0,3.0797,3.0735,3.0514,3.0142,3.0142,3.0311,3.0683,3.0683,3.0852,3.119,3.119,3.119,3.119,3.119,3.119,3.119,3.119,0.0,3.119,3.119,3.1427,3.1765,3.1765,3.2002,3.2341,3.2341,3.2577,3.2848,3.2848,3.3355,3.3897,3.3558,3.366,3.41,3.4844,3.5081,3.525,3.5994,3.6231,3.64,3.7178,3.7347,3.7449,3.7821,3.8397,3.9032,3.9697,4.1044,4.2118,4.2118,4.285,4.3497,4.3497,4.3497,4.3497,4.3497,4.3497,4.3497,4.3497,4.3664,4.3786,4.4004,4.4035,4.3943,4.3758,4.3597,4.3497,4.3497,4.3497,4.3497,4.3497,4.3497,4.3497,4.3497,4.3497,4.3718,4.4121,4.4121,4.4342,4.4745,4.5149,4.5553,1.9001,1.9228,1.9587,2.0409,2.099,2.1653,2.2718,2.3422,2.4003,2.4625,2.4609,2.4514,2.4514,2.5029,2.5816,2.673,2.8286,2.9824,3.0933,3.1682,3.1913,3.1388,3.1342,0.0,3.1007,3.094,0.0,0.0,0.0,0.0,3.1224,3.119,3.119,3.119,3.119,3.119,3.119,3.119,3.119,3.119,3.119,3.119,3.119,3.119,3.119,3.119,3.136,0.0,0.0,3.1596,3.2002,3.251,3.251,3.2882,3.3423,3.3423,3.3491,3.366,3.366,3.4235,3.4979,3.4979,3.4979,3.5081,3.569,3.5994,3.6231,3.684,3.7009,3.7212,3.7956,3.8159,3.8193,3.8328,3.9353,4.0374,4.0965,4.2021,4.2846,4.2846,4.3214,4.3497,4.3497,4.3497,4.3497,4.3497,4.3497,4.3497,4.3497,4.3497,4.3497,4.3497,4.3758,4.3791,4.3495,4.3497,4.3497,4.3497,4.3497,4.3497,4.3497,4.3497,4.3571,4.3754,4.3754,4.4158,4.4966,4.4966,4.5296,4.5883,4.6067,4.6507,2.007,2.0638,2.136,2.1807,2.2733,2.3549,2.3764,2.4896,2.5837,2.5537,2.5982,2.6455,2.6455,2.6489,2.7061,2.8511,2.9492,3.0774,3.2858,3.3777,3.4182,3.4139,0.0,0.0,3.317,3.3102,0.0,0.0,0.0,0.0,0.0,3.119,3.119,3.119,3.119,3.119,3.119,3.119,3.119,3.119,3.119,3.119,3.119,3.119,3.119,3.1224,0.0,0.0,0.0,3.2916,3.3254,3.3322,3.3322,3.3355,3.3423,3.3423,3.3829,3.4404,3.4404,3.5351,3.6569,3.6569,3.6569,3.6569,3.6637,3.7144,3.7719,3.7787,3.7821,3.799,3.87,3.8903,3.9073,3.9715,4.0782,4.1619,4.169,4.2619,4.3428,4.3428,4.3463,4.3497,4.3497,4.3497,4.3497,4.3497,4.3497,4.3497,4.3497,4.3497,4.3497,4.3497,4.3532,4.3529,4.3497,4.3497,4.3497,4.3497,4.3497,4.3497,4.3497,4.3497,4.3828,4.4599,4.4599,4.5002,4.5773,4.5773,4.5847,4.592,4.6654,4.7058,2.1207,2.1599,2.2108,2.3215,2.395,2.463,2.5164,2.5917,2.6446,2.6281,2.6488,2.6691,2.6691,2.6691,2.7199,2.8721,2.9228,3.0378,3.3051,3.4032,3.4641,3.5115,3.5182,0.0,0.0,0.0,0.0,0.0,0.0,0.0,0.0,3.251,3.251,3.251,3.251,3.251,3.251,3.251,3.251,3.251,3.251,3.251,3.251,3.251,3.251,3.2544,0.0,0.0,0.0,3.3288,3.366,3.4066,3.4066,3.4336,3.4742,3.4742,3.4912,3.525,3.5723,3.6265,3.684,3.7313,3.7753,3.8024,3.7584,3.7686,3.799,3.843,3.8565,3.8734,3.9445,3.9648,3.9815,4.0412,4.1196,4.1895,4.2262,4.2958,4.3497,4.3497,4.3497,4.3497,4.3497,4.3497,4.3497,4.3497,4.3497,4.3497,4.3497,4.3497,4.3497,4.3497,4.3497,4.3497,4.3497,4.3497,4.3497,4.3497,4.3938,4.4232,4.4232,4.4672,4.5112,4.5406,4.5406,4.581,4.6617,4.6617,4.6874,4.7352,4.8196,4.8367,2.279,2.3131,2.3598,2.4928,2.559,2.6068,2.6584,2.6947,2.7103,2.6757,2.6691,2.6691,2.6691,2.686,2.7469,2.8755,2.9533,3.092,3.3694,3.4878,3.5791,3.6535,0.0,0.0,0.0,0.0,0.0,0.0,0.0,0.0,0.0,3.4066,3.3863,3.3423,3.3423,3.3423,3.3423,3.3423,3.3423,3.3423,3.3423,3.3423,3.3423,3.3423,3.3423,3.3423,0.0,0.0,0.0,3.3964,3.437,3.4844,3.4844,3.5284,3.596,3.596,3.6096,3.6366,3.6941,3.7246,3.7516,3.8058,3.8734,3.9208,3.87,3.8531,3.8667,3.9174,3.9309,3.9411,3.9952,4.0087,4.0204,4.0577,4.1105,4.1682,4.2062,4.2734,4.325,4.325,4.3391,4.3571,4.3791,4.3864,4.3938,4.4158,4.4195,4.4195,4.4195,4.4195,4.4195,4.4195,4.4195,4.4085,4.3864,4.3864,4.3938,4.4195,4.4745,4.5039,4.5039,4.559,4.5993,4.625,4.625,4.6654,4.7462,4.7719,4.8122,4.871,4.9554,4.9586,2.4865,2.5551,2.6224,2.7067,2.7763,2.8183,2.7918,2.8137,2.8042,2.6927,2.6691,2.6691,2.6691,2.73,2.8078,2.8856,3.0857,3.3017,3.5284,3.6907,3.8159,0.0,0.0,3.8396,0.0,0.0,0.0,0.0,0.0,0.0,0.0,3.5588,3.4912,3.3457,3.3423,3.3423,3.3423,3.3423,3.3423,3.3423,3.3423,3.3423,3.3423,3.3423,3.3423,0.0,0.0,0.0,0.0,3.5284,3.5588,3.5622,3.5622,3.6096,3.6772,3.6772,3.7246,3.7889,3.7889,3.8362,3.8971,3.8971,3.9478,4.0054,4.0054,4.0054,4.0054,4.0054,4.0054,4.0054,4.0087,4.0087,4.0087,4.0138,4.0528,4.092,4.092,4.1853,4.2693,4.2693,4.3142,4.3754,4.4562,4.4709,4.4966,4.5773,4.5883,4.5883,4.5883,4.5883,4.5883,4.5883,4.5883,4.5553,4.4782,4.4709,4.5039,4.581,4.5883,4.5883,4.5883,4.5883,4.6287,4.7095,4.7095,4.7498,4.8306,4.915,4.9554,4.9591,5.0398,5.046,2.5476,2.5937,2.6367,2.7374,2.7949,2.8219,2.7982,2.8172,2.8215,2.7572,2.7469,2.7638,2.8146,2.845,2.9194,3.0954,3.1833,3.3254,3.6028,3.728,0.0,3.8903,3.9005,0.0,0.0,0.0,0.0,0.0,0.0,0.0,0.0,0.0,3.5419,3.4945,3.4912,3.4912,3.4912,3.4912,3.4912,3.4912,3.4912,3.4912,3.4912,3.4912,0.0,0.0,0.0,0.0,0.0,3.552,3.5926,3.64,3.64,3.6874,3.755,3.755,3.7686,3.799,3.8464,3.8802,3.9073,3.958,3.9884,4.0087,4.0087,4.0087,4.0087,4.0087,4.0087,4.0087,4.0087,4.0087,4.0204,4.0577,4.1105,4.178,4.2739,4.3565,4.4236,4.4784,4.5004,4.5223,4.548,4.5516,4.5626,4.5847,4.5883,4.5883,4.5883,4.5883,4.5883,4.5883,4.5883,4.581,4.5553,4.5516,4.5626,4.5883,4.6434,4.6728,4.6728,4.7241,4.7939,4.8783,4.882,4.9187,5.0031,5.0288,5.0451,5.046,5.0268,5.009,2.662,2.7079,2.751,2.8828,2.8855,2.8691,2.9124,2.8917,2.8562,2.8283,2.8247,2.8416,2.889,2.9228,2.9939,3.1596,3.2577,3.3964,3.6434,3.7652,0.0,3.9309,0.0,0.0,0.0,0.0,0.0,0.0,0.0,0.0,0.0,0.0,3.6062,3.6062,3.5791,3.5622,3.5622,3.5926,3.6062,3.6062,3.6332,3.6502,3.6502,3.6502,0.0,0.0,0.0,0.0,0.0,3.6502,3.6772,3.7212,3.7212,3.7652,3.8328,3.8328,3.8497,3.8802,3.9242,3.9411,3.9478,3.9918,4.0087,4.0087,4.0087,4.0087,4.0087,4.0087,4.0087,4.0087,4.0087,4.0087,4.0222,4.0857,4.1324,4.195,4.3393,4.4119,4.4699,4.5439,4.5773,4.5993,4.6324,4.6361,4.6471,4.6764,4.6801,4.6801,4.6801,4.6801,4.6801,4.6801,4.6801,4.6801,4.6801,4.6544,4.6471,4.6801,4.7572,4.8049,4.8049,4.882,4.9517,5.0031,4.9793,4.9888,5.0399,5.069,5.1027,5.1344,5.1213,5.1051,0.0,2.8761,2.9365,3.087,3.017,2.946,3.0902,3.011,0.0,2.9059,2.9059,2.9127,2.9262,2.9837,3.0581,3.1529,3.3355,3.5216,3.6806,3.8193,0.0,0.0,0.0,0.0,0.0,0.0,0.0,0.0,0.0,0.0,0.0,0.0,3.6874,3.6874,3.6163,3.5791,3.5791,3.6502,3.6874,3.6874,3.7584,3.7922,3.7922,3.7922,0.0,0.0,0.0,0.0,0.0,3.7922,3.7922,3.799,3.799,3.843,3.9073,3.9073,3.9512,4.0087,4.0087,4.0087,4.0087,4.0087,4.0087,4.0087,4.0087,4.0087,4.0087,4.0087,4.0121,4.0155,4.0155,4.0189,4.0426,4.1136,4.1323,4.1733,4.3074,4.3804,4.4396,4.506,4.5617,4.6213,4.6983,4.7167,4.7462,4.8196,4.8306,4.8306,4.8306,4.8306,4.8306,4.8306,4.8379,4.8379,4.8379,4.7719,4.7609,4.8343,4.9187,4.9664,4.9664,5.0358,5.0721,5.0794,5.0134,4.982,4.982,5.0577,5.1369,5.2042,5.2785,5.2794,2.9612,0.0,2.9085,2.9475,2.9719,2.9819,0.0,2.9695,2.9837,2.9837,2.9837,3.0345,3.2036,3.2036,3.278,3.5825,3.6265,3.6975,3.9005,0.0,0.0,0.0,0.0,0.0,0.0,0.0,0.0,0.0,0.0,0.0,0.0,0.0,3.7652,3.7652,3.7449,3.7381,3.7381,3.755,3.7652,3.7652,3.7821,3.7922,3.7922,3.7922,0.0,0.0,0.0,0.0,3.7922,3.7922,3.8227,3.8734,3.8734,3.9174,3.9817,3.9817,3.9918,4.0087,4.0087,4.0087,4.0087,4.0087,4.0087,4.0087,4.0087,4.0087,4.0087,4.0087,4.0493,4.0933,4.0933,4.1339,4.1813,4.1982,4.2398,4.3009,4.3935,4.4576,4.5174,4.596,4.6593,4.7125,4.7306,4.7703,4.8086,4.8269,4.8306,4.8306,4.8306,4.8306,4.8306,4.8306,4.8893,4.9297,4.9297,4.9114,4.9077,4.926,5.0068,5.0508,5.0508,5.0168,5.0234,5.085,5.082,5.0809,5.0809,5.1541,5.1741,5.1444,5.2179,5.2101,3.0076,3.043,3.0711,3.0836,3.0794,3.0706,3.0828,3.0453,3.0209,3.0548,3.0852,3.1562,3.3119,3.3355,3.4081,3.6449,3.7124,3.7956,0.0,0.0,4.0087,0.0,0.0,0.0,0.0,0.0,0.0,0.0,0.0,0.0,0.0,0.0,3.8396,3.8396,3.8734,3.8565,3.7922,3.8227,3.8396,3.8396,3.8734,3.8903,3.8903,3.8903,0.0,0.0,0.0,0.0,3.8903,3.8903,3.914,3.9478,3.9478,3.9749,4.0087,4.0087,4.0087,4.0087,4.0087,4.0087,4.0087,4.0087,4.0087,4.0155,4.0493,4.0595,4.0595,4.0595,4.1136,4.1711,4.1711,4.1982,4.2388,4.2726,4.3061,4.3666,4.5047,4.5575,4.6056,4.7104,4.7554,4.7797,4.7797,4.8075,4.8306,4.8306,4.86,4.8857,4.8893,4.9224,4.9444,4.9444,4.9884,5.0141,5.0141,5.0472,5.0428,4.97,5.0387,5.0823,5.0866,5.0494,5.0552,5.1031,5.1122,5.1179,5.113,5.1891,5.2044,5.1731,5.2433,5.2571,3.0476,3.1905,3.3141,3.2834,3.2117,3.1698,3.2435,3.1439,3.048,3.1224,3.1935,3.2747,3.3728,3.4418,3.517,3.6257,0.0,0.0,4.0257,4.0324,4.0257,0.0,0.0,0.0,0.0,0.0,0.0,0.0,0.0,0.0,0.0,0.0,0.0,3.9174,3.9749,3.9478,3.8261,3.887,3.9174,3.9174,3.9783,4.0087,4.0087,4.0087,0.0,0.0,0.0,0.0,4.0087,4.0087,4.0087,4.0087,4.0087,4.0087,4.0087,4.0087,4.0087,4.0087,4.0087,4.0155,4.0257,4.0257,4.0324,4.0527,4.117,4.1441,4.1542,4.1542,4.1982,4.2455,4.2455,4.2557,4.2794,4.3436,4.3606,4.4068,4.5915,4.6288,4.6708,4.8,4.832,4.84,4.848,4.8634,4.8673,4.8673,4.926,4.9701,4.9774,5.0362,5.0762,5.0643,5.0753,5.0785,5.0665,5.1396,5.1246,4.9851,5.0602,5.1034,5.0964,5.1063,5.1115,5.1208,5.1208,5.1192,5.1217,5.1946,5.2287,5.2287,5.308,5.3425,3.2234,3.4253,3.5191,3.1953,3.1441,3.16,3.1114,3.1025,3.1224,3.1968,3.2713,3.3863,3.5893,3.6285,3.7168,0.0,0.0,4.1677,0.0,0.0,0.0,0.0,0.0,0.0,0.0,0.0,0.0,0.0,0.0,0.0,0.0,0.0,0.0,3.9918,4.002,3.9986,3.9749,3.9851,3.9918,3.9918,4.002,4.0087,4.0087,4.0087,4.0087,0.0,0.0,4.0087,4.0087,4.0087,4.0087,4.0087,4.0087,4.0087,4.0087,4.0087,4.0087,4.0087,4.0087,4.0493,4.1035,4.1035,4.1441,4.1982,4.2083,4.2591,4.3064,4.3064,4.3166,4.3234,4.3234,4.3741,4.4248,4.4384,4.4418,4.4643,4.5614,4.5806,4.6254,4.7579,4.8346,4.8912,4.9495,5.0039,5.0435,5.0435,5.0508,5.0618,5.0618,5.0729,5.0561,4.9945,5.0471,5.0685,5.0076,5.0788,5.0838,4.9986,5.1194,5.1687,5.1193,5.1198,5.1183,5.1206,5.1206,5.121,5.1217,5.1956,5.2292,5.2326,5.3141,5.3481,3.1332,3.3312,3.4834,3.3002,3.3731,3.4737,3.4069,3.376,3.3694,3.3998,3.4331,3.5038,3.6486,3.6987,3.8079,4.0657,0.0,0.0,0.0,0.0,0.0,0.0,0.0,0.0,0.0,0.0,0.0,0.0,0.0,0.0,0.0,0.0,0.0,0.0,4.0087,4.0087,4.0087,4.0087,4.0087,4.0087,4.0087,4.0087,4.0087,4.0087,4.0087,4.0087,0.0,4.0087,4.0087,4.0087,4.0087,4.0087,4.0087,4.0087,4.0087,4.0087,4.0087,4.0155,4.0561,4.0933,4.1271,4.1644,4.2016,4.2354,4.276,4.3132,4.3606,4.4418,4.4654,4.4654,4.4654,4.5196,4.5771,4.5771,4.5771,4.5953,4.6657,4.6781,4.7072,4.8103,4.8534,4.8834,4.9174,4.9457,4.9676,4.9676,5.0073,5.0325,5.0325,5.0685,5.0843,5.0472,5.0794,5.0859,5.0555,5.0873,5.0946,5.0657,5.124,5.1479,5.1234,5.1597,5.176,5.1792,5.1792,5.2029,5.2435,5.2773,5.2942,5.2976,5.3348,5.3518,3.0469,3.244,3.4431,3.4691,3.5752,3.6732,3.6525,3.5926,3.5408,3.5564,3.5741,3.6022,3.6607,3.7663,0.0,4.071,0.0,0.0,0.0,0.0,0.0,0.0,0.0,0.0,0.0,0.0,0.0,0.0,0.0,0.0,0.0,0.0,0.0,0.0,4.0087,4.0087,4.0087,4.0087,4.0087,4.0087,4.0087,4.0087,4.0087,4.0087,4.0087,4.0087,4.0087,4.0087,4.0087,4.0087,4.0087,4.0087,4.0087,4.0087,4.0087,4.0087,4.0189,4.0426,4.1001,4.1441,4.1813,4.2354,4.2692,4.2929,4.3504,4.3809,4.4181,4.5365,4.5974,4.6177,4.6007,4.638,4.6786,4.6786,4.6786,4.6995,4.7614,4.7726,4.7983,4.882,4.9164,4.9265,4.9265,4.9416,4.9465,4.9265,4.9796,5.015,5.015,5.0873,5.1317,5.1158,5.1281,5.1333,5.1169,5.1115,5.1242,5.1459,5.1296,5.1268,5.1454,5.1959,5.2398,5.257,5.257,5.2875,5.3518,5.3518,5.3518,5.3518,5.3518,5.3518,3.1287,3.3398,3.5346,3.6344,3.5677,3.4888,3.5554,3.5115,3.4768,3.5448,3.6123,3.664,3.6708,3.8999,4.0983,4.0981,0.0,0.0,0.0,0.0,0.0,0.0,0.0,0.0,0.0,0.0,0.0,0.0,0.0,0.0,0.0,0.0,0.0,0.0,0.0,4.0087,4.0087,4.0087,4.0087,4.0087,4.0087,4.0087,4.0087,4.0087,4.0087,4.0087,4.0087,4.0087,4.0087,4.0087,4.0087,4.0087,4.0087,4.0087,4.0087,4.0087,4.0527,4.1136,4.117,4.2117,4.3267,4.3301,4.3842,4.4418,4.4485,4.4993,4.5568,4.5669,4.6684,4.7597,4.6887,4.6752,4.6786,4.6786,4.6786,4.6989,4.7725,4.7894,4.8303,4.9608,5.0433,5.0909,5.0909,5.1415,5.1646,5.1012,5.098,5.1015,5.1015,5.1635,5.186,5.1223,5.1824,5.1942,5.1269,5.1206,5.1481,5.2162,5.1553,5.1519,5.2198,5.2264,5.267,5.3416,5.3416,5.345,5.3518,5.3518,5.3518,5.3518,5.3518,5.3518,2.9892,3.2349,3.4968,3.5836,3.5941,3.6185,3.7422,3.7449,3.7285,3.759,3.7132,3.6636,3.66,0.0,3.9431,4.0766,0.0,0.0,0.0,0.0,0.0,0.0,0.0,0.0,0.0,0.0,0.0,0.0,0.0,0.0,0.0,0.0,0.0,0.0,0.0,4.0087,4.0087,4.0087,4.0087,4.0087,4.0087,4.0087,4.0087,4.0087,4.0087,4.0087,4.0087,4.0087,4.0087,4.0087,4.0087,4.0087,4.0087,4.0087,4.0155,4.0595,4.0967,4.1339,4.2252,4.2929,4.3504,4.3978,4.4654,4.5263,4.5263,4.5805,4.6481,4.6955,4.7496,4.7868,4.7564,4.7834,4.8173,4.8173,4.8173,4.824,4.8511,4.8578,4.8707,4.9248,4.9639,4.978,4.978,5.0357,5.0783,5.0528,5.0883,5.1193,5.1193,5.1374,5.1459,5.1247,5.1424,5.1503,5.1217,5.1623,5.1995,5.2266,5.2063,5.2232,5.301,5.3044,5.3179,5.3484,5.3518,5.3518,5.3518,5.3518,5.3518,5.3518,5.3518,5.3518,2.9973,3.2577,3.5273,3.5551,3.6489,3.7524,3.8133,3.8249,3.8176,3.8181,3.7144,3.6255,3.622,0.0,0.0,0.0,0.0,0.0,0.0,0.0,0.0,0.0,0.0,0.0,0.0,0.0,0.0,0.0,0.0,0.0,0.0,0.0,0.0,0.0,0.0,0.0,4.0087,4.0087,4.0087,4.0087,4.0087,4.0087,4.0087,4.0087,4.0087,4.0087,4.0087,4.0087,4.0087,4.0324,4.0561,4.0764,4.0764,4.0764,4.0832,4.1339,4.1711,4.2049,4.3064,4.3572,4.391,4.4688,4.5297,4.5737,4.5974,4.6549,4.7259,4.7767,4.8071,4.8308,4.8545,4.8815,4.9018,4.9018,4.9187,4.9357,4.9357,4.9526,4.9695,4.9695,4.9848,4.9971,4.9757,5.0351,5.072,5.0503,5.0879,5.1217,5.1217,5.142,5.1657,5.1928,5.1928,5.1928,5.1928,5.2401,5.2672,5.2672,5.2672,5.2942,5.3484,5.3518,5.3518,5.3518,5.3518,5.3518,5.3518,5.3518,5.3518,5.3518,5.3518,5.3518,3.207,3.4472,3.6632,3.5811,3.7222,3.8417,3.7038,3.671,3.6673,3.6597,3.6006,3.5519,3.5519,3.7966,0.0,0.0,0.0,0.0,0.0,0.0,0.0,0.0,0.0,0.0,0.0,0.0,0.0,0.0,0.0,0.0,0.0,0.0,0.0,0.0,0.0,0.0,4.0087,4.0087,4.0087,4.0087,4.0087,4.0087,4.0087,4.0087,4.0087,4.0087,4.0087,4.0087,4.0155,4.0899,4.1644,4.2286,4.2286,4.2286,4.2286,4.2286,4.276,4.3403,4.3436,4.3944,4.4688,4.5466,4.5703,4.5838,4.6583,4.7327,4.7936,4.7936,4.8443,4.9187,4.9898,4.956,4.9018,4.9018,4.9593,5.0101,5.0101,5.0676,5.1217,5.1217,5.1782,5.2054,5.1346,5.1843,5.2054,5.1346,5.1251,5.1251,5.1251,5.186,5.2604,5.3416,5.3518,5.3518,5.3518,5.3518,5.3518,5.3518,5.3518,5.3518,5.3518,5.3518,5.3518,5.3518,5.3518,5.3518,5.3518,5.3518,5.3518,5.3518,5.3518,5.3518,3.1166,3.3371,3.5762,3.5072,3.6405,3.7739,3.6808,3.6966,3.7064,3.6067,3.5683,3.5519,3.5519,0.0,0.0,0.0,0.0,0.0,0.0,0.0,0.0,0.0,0.0,0.0,0.0,0.0,0.0,0.0,0.0,0.0,0.0,0.0,0.0,0.0,0.0,0.0,4.0087,4.0087,4.0087,4.0087,4.0087,4.0087,4.0087,4.0087,4.0087,4.0087,4.0087,4.0087,4.0155,4.0899,4.1644,4.2286,4.2286,4.2286,4.2354,4.2895,4.3234,4.3504,4.4045,4.4384,4.4688,4.5466,4.6041,4.6616,4.7361,4.8105,4.868,4.868,4.9187,4.983,5.0033,5.0338,5.0574,5.0574,5.071,5.0879,5.0879,5.1048,5.1217,5.1217,5.1376,5.1439,5.1217,5.1817,5.2221,5.2027,5.2469,5.2841,5.2841,5.301,5.3247,5.3484,5.3518,5.3518,5.3518,5.3518,5.3518,5.3518,5.3518,5.3518,5.3518,5.3518,5.3518,5.3518,5.3518,5.3518,5.3518,5.3518,5.3518,5.3518,5.3518,5.3518,3.2555,3.4345,3.6282,3.557,3.6497,3.7403,3.6718,3.6685,3.6557,3.5709,3.5519,3.5619,3.5879,3.7214,0.0,0.0,0.0,0.0,0.0,0.0,0.0,0.0,0.0,0.0,0.0,0.0,0.0,0.0,0.0,0.0,0.0,0.0,0.0,0.0,0.0,0.0,4.0087,4.0087,4.0087,4.0087,4.0087,4.0087,4.0087,4.0087,4.0087,4.0087,4.0392,4.0696,4.1001,4.1779,4.2523,4.32,4.32,4.32,4.3267,4.3707,4.3876,4.3944,4.4418,4.479,4.5162,4.5906,4.665,4.7361,4.8105,4.8849,4.9424,4.9424,4.9965,5.0608,5.0879,5.1319,5.1589,5.1285,5.142,5.1657,5.1657,5.1894,5.2131,5.2131,5.2131,5.2131,5.2131,5.2503,5.2773,5.2773,5.3179,5.3518,5.3518,5.3518,5.3518,5.3518,5.3518,5.3518,5.3518,5.3518,5.3518,5.3518,5.3518,5.3518,5.3518,5.3518,5.3518,5.3518,5.3518,5.3518,5.3518,5.3518,5.3518,5.3518,5.3788,5.3923,3.4984,3.6437,3.7435,3.6599,3.6909,3.7274,3.6646,3.5968,3.5519,3.5519,0.0,3.5718,3.6446,0.0,0.0,0.0,0.0,0.0,0.0,0.0,0.0,0.0,0.0,0.0,0.0,0.0,0.0,0.0,0.0,0.0,0.0,0.0,0.0,0.0,0.0,0.0,4.0087,4.0087,4.0087,0.0,4.0087,4.0121,4.0189,4.0121,4.0121,4.0223,4.0899,4.1644,4.2455,4.3132,4.3876,4.4587,4.4587,4.4587,4.4587,4.4587,4.4587,4.4587,4.4654,4.5128,4.5838,4.665,4.7361,4.8071,4.8781,4.9526,5.0101,5.0101,5.0676,5.1454,5.2131,5.2367,5.2232,5.1589,5.1928,5.2401,5.2401,5.2976,5.3518,5.3518,5.3518,5.3518,5.3518,5.3518,5.3518,5.3518,5.3518,5.3518,5.3518,5.3518,5.3518,5.3518,5.3518,5.3518,5.3518,5.3518,5.3518,5.3518,5.3518,5.3518,5.3518,5.3518,5.3518,5.3518,5.3518,5.3518,5.3518,5.3585,5.3585,5.3619,5.4363,5.4702,3.3333,3.4514,3.5856,3.5154,3.5416,3.6079,3.6424,3.5968,3.5519,3.5519,3.5519,3.5718,0.0,0.0,0.0,0.0,0.0,0.0,0.0,0.0,0.0,0.0,0.0,0.0,0.0,0.0,0.0,0.0,0.0,0.0,0.0,0.0,0.0,0.0,0.0,4.0087,4.0087,4.0087,4.0087,0.0,4.0087,4.0392,4.0933,4.0358,4.0392,4.0967,4.1136,4.1948,4.32,4.3335,4.3876,4.4587,4.4587,4.4587,4.4587,4.4587,4.4587,4.4654,4.5263,4.5568,4.594,4.7259,4.78,4.8071,4.8781,4.9526,5.0101,5.0101,5.1048,5.2097,5.2266,5.2773,5.3213,5.3044,5.3145,5.3247,5.3247,5.3382,5.3518,5.3518,5.3518,5.3518,5.3518,5.3518,5.3518,5.3518,5.3518,5.3518,5.3518,5.3518,5.3518,5.3518,5.3518,5.3518,5.3518,5.3518,5.3518,5.3518,5.3518,5.3518,5.3518,5.3518,5.3518,5.3518,5.3518,5.3518,5.3518,5.4093,5.4363,5.4363,5.5141,5.548,3.3016,3.4182,3.5427,3.5078,3.525,3.5579,3.5938,3.5759,3.5619,3.5943,3.6006,3.6228,0.0,0.0,0.0,0.0,0.0,0.0,0.0,0.0,0.0,0.0,0.0,0.0,0.0,0.0,0.0,0.0,0.0,0.0,0.0,0.0,0.0,0.0,4.0087,4.0087,4.0087,4.0426,4.0629,4.0629,4.0967,4.1339,4.1711,4.1305,4.1339,4.1745,4.2117,4.2692,4.3436,4.3809,4.4215,4.4587,4.4587,4.479,4.5128,4.5128,4.5331,4.5703,4.6075,4.6447,4.6887,4.7665,4.8376,4.9018,4.939,5.0304,5.115,5.115,5.1995,5.2875,5.2875,5.3179,5.3518,5.3518,5.3518,5.3518,5.3518,5.3518,5.3518,5.3518,5.3518,5.3518,5.3518,5.3518,5.3518,5.3518,5.3518,5.3518,5.3518,5.3518,5.3518,5.3518,5.3518,5.3518,5.3518,5.3518,5.3518,5.3518,5.3822,5.4025,5.4025,5.4363,5.4397,5.4025,5.4025,5.4194,5.4566,5.4938,5.5141,5.5141,5.5886,5.6258,3.2855,3.4053,3.522,3.5459,3.5519,3.5519,3.5519,3.5519,3.5718,3.6446,3.66,0.0,0.0,0.0,0.0,0.0,0.0,0.0,0.0,0.0,0.0,0.0,0.0,0.0,0.0,0.0,0.0,0.0,0.0,0.0,0.0,0.0,4.0155,4.0257,4.0257,4.0324,4.046,4.1068,4.1407,4.1407,4.2151,4.2489,4.2489,4.2625,4.2625,4.2523,4.3166,4.3504,4.3673,4.4316,4.4587,4.4587,4.4722,4.5162,4.5737,4.5838,4.6278,4.6819,4.6955,4.7394,4.797,4.8206,4.912,5.0101,5.0236,5.1217,5.23,5.23,5.2875,5.3518,5.3518,5.3518,5.3518,5.3518,5.3518,5.3518,5.3518,5.3518,5.3518,5.3518,5.3518,5.3518,5.3518,5.3518,5.3518,5.3518,5.3518,5.3518,5.3518,5.3518,5.3518,5.3518,5.3518,5.3551,5.3687,5.3687,5.3754,5.389,5.4465,5.4769,5.4769,5.5378,5.548,5.4972,5.4837,5.5108,5.5716,5.5852,5.5919,5.5919,5.6664,5.707,3.0851,3.2317,3.4053,3.522,3.5519,3.5519,3.5519,3.5519,3.5718,0.0,0.0,0.0,0.0,0.0,0.0,0.0,0.0,0.0,0.0,0.0,0.0,0.0,0.0,0.0,0.0,0.0,0.0,0.0,0.0,0.0,0.0,4.0087,4.0392,4.1035,4.1068,4.1339,4.1982,4.2083,4.2151,4.2151,4.2895,4.3267,4.3301,4.3978,4.391,4.3267,4.3369,4.3809,4.4418,4.4553,4.4587,4.4654,4.5297,4.5602,4.5771,4.6413,4.6718,4.6887,4.753,4.7834,4.8139,4.939,4.9932,5.0202,5.0879,5.1657,5.23,5.23,5.2875,5.3518,5.3518,5.3518,5.3518,5.3518,5.3518,5.3518,5.3518,5.3518,5.3518,5.3518,5.3518,5.3518,5.3518,5.3518,5.3518,5.3518,5.3518,5.3518,5.3518,5.3518,5.3518,5.3518,5.3518,5.3754,5.4397,5.4431,5.4735,5.5378,5.5513,5.5581,5.5581,5.5683,5.5953,5.6494,5.5886,5.5615,5.5716,5.6359,5.6664,5.6664,5.7408,5.8084,3.1779,3.3095,3.4292,3.525,3.5519,3.5519,3.5519,3.5846,3.6352,3.7084,0.0,0.0,0.0,0.0,0.0,0.0,0.0,0.0,0.0,0.0,0.0,0.0,0.0,0.0,0.0,0.0,0.0,0.0,0.0,0.0,4.0087,4.0493,4.0865,4.1204,4.161,4.1982,4.2286,4.2726,4.3132,4.3572,4.391,4.4079,4.4079,4.4418,4.4384,4.4079,4.4079,4.4248,4.4587,4.4587,4.4823,4.5229,4.5568,4.621,4.6989,4.7293,4.7665,4.8071,4.8409,4.8781,4.9255,4.9898,5.0642,5.1386,5.1725,5.2367,5.2976,5.2976,5.3247,5.3518,5.3518,5.3518,5.3518,5.3518,5.3518,5.3518,5.3518,5.3518,5.3518,5.3518,5.3518,5.3518,5.3518,5.3518,5.3518,5.3518,5.3518,5.3518,5.3518,5.3856,5.3957,5.3551,5.4262,5.4702,5.46,5.4972,5.5344,5.5683,5.6089,5.6325,5.6325,5.6697,5.7103,5.7408,5.6697,5.6528,5.6934,5.7273,5.7408,5.7408,5.7746,5.8287,3.2317,3.3484,3.4173,3.504,3.5489,3.5699,3.5549,0.0,3.7062,0.0,0.0,0.0,0.0,0.0,0.0,0.0,0.0,0.0,0.0,0.0,0.0,0.0,0.0,0.0,0.0,0.0,0.0,0.0,0.0,0.0,4.0087,4.0798,4.1305,4.1474,4.2185,4.2658,4.2861,4.3436,4.4012,4.4587,4.4587,4.4587,4.4587,4.4587,4.4587,4.4587,4.4587,4.4587,4.4587,4.4587,4.5026,4.5737,4.5906,4.6786,4.7936,4.8139,4.8545,4.9018,4.9221,4.9627,5.0135,5.0541,5.1386,5.2334,5.2536,5.301,5.3518,5.3518,5.3518,5.3518,5.3518,5.3518,5.3518,5.3518,5.3518,5.3518,5.3518,5.3518,5.3518,5.3518,5.3518,5.3518,5.3518,5.3518,5.3518,5.3518,5.3518,5.3585,5.3754,5.4262,5.4465,5.4093,5.504,5.5547,5.5175,5.5683,5.6089,5.6258,5.6799,5.707,5.707,5.7611,5.7881,5.7881,5.734,5.734,5.7881,5.8084,5.8186,5.8186,5.8355,5.8863,3.1091,3.2108,3.2916,3.4203,3.5489,3.6267,3.5639,0.0,0.0,0.0,0.0,0.0,0.0,0.0,0.0,0.0,0.0,0.0,0.0,0.0,0.0,0.0,0.0,0.0,0.0,0.0,0.0,0.0,0.0,0.0,4.0087,4.0798,4.1508,4.2219,4.2963,4.3707,4.4451,4.4485,4.4553,4.4587,4.4587,4.4587,4.4587,4.4587,4.4587,4.4587,4.4587,4.4587,4.4587,4.4587,4.5026,4.5771,4.6481,4.7225,4.8003,4.868,4.8984,4.9086,4.9796,5.0067,5.0338,5.1725,5.2232,5.2435,5.3213,5.3484,5.3518,5.3518,5.3518,5.3518,5.3518,5.3518,5.3518,5.3518,5.3518,5.3518,5.3518,5.3518,5.3518,5.3518,5.3518,5.3518,5.3518,5.3518,5.3518,5.3518,5.3518,5.3754,5.4431,5.4566,5.4837,5.5513,5.5683,5.5987,5.663,5.6731,5.7036,5.7712,5.7814,5.7814,5.7814,5.7881,5.7881,5.7881,5.7848,5.7848,5.7881,5.8592,5.8964,5.8964,5.9674,6.0419,3.0582,3.1974,3.3444,3.488,3.5919,3.6716,3.6904,3.7748,3.848,0.0,0.0,0.0,0.0,0.0,0.0,0.0,0.0,0.0,0.0,0.0,0.0,0.0,0.0,0.0,0.0,0.0,0.0,0.0,0.0,0.0,4.0087,4.1238,4.2016,4.2286,4.3504,4.4282,4.4587,4.4587,4.4587,4.4587,4.4587,4.4587,4.4587,4.4587,4.4587,4.4621,4.5094,4.5297,4.5297,4.5297,4.6007,4.7158,4.7394,4.797,4.8646,4.8917,4.9289,4.9729,4.9999,5.071,5.1589,5.2131,5.2638,5.3112,5.3416,5.3518,5.3518,5.3518,5.3518,5.3518,5.3518,5.3518,5.3518,5.3518,5.3518,5.3518,5.3518,5.3518,5.3518,5.3518,5.3518,5.3518,5.3518,5.3518,5.3518,5.3518,5.389,5.4296,5.4566,5.5412,5.5919,5.575,5.6562,5.7036,5.6833,5.7239,5.7611,5.7881,5.8355,5.8626,5.8626,5.9066,5.9302,5.9302,5.9302,5.8829,5.7881,5.866,5.9032,5.9032,5.9776,6.052,3.0425,3.2191,3.4147,3.5363,3.6337,3.7157,3.7694,3.8553,3.915,0.0,0.0,0.0,0.0,0.0,0.0,0.0,0.0,0.0,0.0,0.0,0.0,0.0,0.0,0.0,0.0,0.0,0.0,0.0,0.0,0.0,4.046,4.161,4.2523,4.3031,4.4045,4.4587,4.4587,4.4587,4.4587,4.4587,4.4587,4.4587,4.4587,4.4857,4.4959,4.4993,4.5737,4.594,4.5737,4.5974,4.6786,4.7936,4.7936,4.8376,4.9018,4.9018,4.9458,5.0135,5.0371,5.1285,5.2334,5.2604,5.3078,5.3518,5.3518,5.3518,5.3518,5.3518,5.3518,5.3518,5.3518,5.3518,5.3518,5.3518,5.3518,5.3518,5.3518,5.3518,5.3518,5.3518,5.3518,5.3518,5.3518,5.3518,5.3585,5.3822,5.4296,5.4769,5.5277,5.619,5.6697,5.6461,5.7306,5.7679,5.7205,5.7611,5.8017,5.8254,5.8727,5.9133,5.937,5.9844,6.0114,6.0114,6.0114,5.9607,5.8626,5.9404,5.9776,5.981,6.052,6.1163,0.0,0.0,0.0,3.554,3.6702,0.0,3.7815,0.0,0.0,0.0,0.0,0.0,0.0,0.0,0.0,0.0,0.0,0.0,0.0,0.0,0.0,0.0,0.0,0.0,0.0,0.0,0.0,0.0,0.0,4.0426,4.117,4.1914,4.3031,4.4519,4.4587,4.4587,4.4587,4.4587,4.4587,4.4587,4.4587,4.4621,4.4654,4.5399,4.5737,4.5771,4.6515,4.6413,4.5838,4.6549,4.7259,4.7936,4.7936,4.8376,4.9018,4.9018,4.9492,5.0236,5.098,5.1725,5.2469,5.3247,5.3518,5.3518,5.3518,5.3518,5.3518,5.3518,5.3518,5.3518,5.3518,5.3518,5.3518,5.3518,5.3551,5.3551,5.3551,5.3551,5.3551,5.3518,5.3518,5.3518,5.3518,5.3518,5.3754,5.4465,5.46,5.5141,5.6596,5.6833,5.7103,5.7814,5.7881,5.7881,5.7881,5.7915,5.8254,5.8964,5.9066,5.9404,6.0114,6.0148,6.0182,6.0182,6.0182,6.0182,6.0182,6.0926,6.1298,6.1332,6.2042,6.2381,3.1905,0.0,0.0,0.0,0.0,0.0,0.0,0.0,0.0,0.0,0.0,0.0,0.0,0.0,0.0,0.0,0.0,0.0,0.0,0.0,0.0,0.0,0.0,0.0,0.0,0.0,0.0,0.0,4.0595,4.0967,4.1204,4.2422,4.3572,4.4553,4.4587,4.4587,4.4587,4.4587,4.4587,4.4587,4.5128,4.5399,4.5432,4.6143,4.6481,4.6549,4.7293,4.7496,4.7327,4.753,4.8037,4.8714,4.8714,4.8815,4.9052,4.9593,5.027,5.1014,5.1758,5.2503,5.3213,5.345,5.3518,5.3518,5.3518,5.3518,5.3518,5.3518,5.3518,5.3518,5.3518,5.3518,5.3619,5.416,5.4296,5.4431,5.5006,5.5108,5.4803,5.3721,5.3518,5.3518,5.3518,5.3518,5.3754,5.4465,5.504,5.575,5.6697,5.7273,5.7679,5.7881,5.7881,5.7881,5.7881,5.8389,5.8795,5.8998,6.0047,6.0757,6.096,6.1467,6.1738,6.1738,6.1738,6.1738,6.1738,6.1467,6.1298,6.1332,6.2042,6.2381,3.329,0.0,0.0,0.0,0.0,0.0,0.0,3.9208,0.0,0.0,0.0,0.0,0.0,0.0,0.0,0.0,0.0,0.0,0.0,0.0,0.0,0.0,0.0,0.0,0.0,0.0,0.0,0.0,4.1238,4.1779,4.2117,4.3267,4.4113,4.4553,4.4587,4.4587,4.4587,4.4587,4.4722,4.506,4.55,4.5872,4.6177,4.6921,4.7259,4.7293,4.8037,4.8376,4.8376,4.8714,4.8883,4.9052,4.9323,4.9458,4.956,5.0304,5.1048,5.1725,5.2164,5.2841,5.3518,5.3518,5.3518,5.3518,5.3518,5.3518,5.3518,5.3518,5.3518,5.3518,5.3518,5.3518,5.3687,5.4397,5.46,5.4803,5.5547,5.5716,5.548,5.46,5.4431,5.4431,5.4431,5.4431,5.4668,5.5412,5.5886,5.6427,5.7171,5.7611,5.7881,5.7881,5.8186,5.8355,5.8355,5.9032,5.9607,5.9945,6.0791,6.1434,6.1738,6.2178,6.2381,6.2381,6.2381,6.2381,6.2381,6.1975,6.1772,6.1772,6.2178,6.2381,3.4856,3.5961,0.0,0.0,0.0,0.0,3.9648,3.9445,3.9208,0.0,0.0,0.0,0.0,0.0,0.0,0.0,0.0,0.0,0.0,0.0,0.0,0.0,0.0,0.0,0.0,0.0,4.2016,4.1373,4.2016,4.276,4.3504,4.4215,4.4587,4.4587,4.4587,4.4587,4.4587,4.4587,4.4959,4.5703,4.5805,4.621,4.6955,4.7699,4.8037,4.8071,4.8714,4.9052,4.9187,4.983,4.9695,4.9187,4.9932,5.0202,5.0304,5.1048,5.1758,5.23,5.2401,5.2909,5.3518,5.3518,5.3518,5.3518,5.3518,5.3518,5.3518,5.3518,5.3518,5.3518,5.3619,5.3619,5.3822,5.4634,5.4837,5.504,5.5784,5.5953,5.5953,5.5953,5.5818,5.5716,5.5716,5.5716,5.5953,5.6697,5.6799,5.707,5.7814,5.7949,5.8017,5.8017,5.8693,5.9133,5.9133,5.981,6.0554,6.1264,6.1366,6.1704,6.2347,6.2381,6.2381,6.2381,6.2381,6.2381,6.2381,6.2381,6.2381,6.2381,6.2381,6.2415,0.0,0.0,0.0,0.0,0.0,0.0,3.9005,3.9106,3.9377,0.0,0.0,0.0,0.0,0.0,0.0,0.0,0.0,0.0,0.0,0.0,0.0,0.0,0.0,0.0,0.0,0.0,4.2219,4.2083,4.2794,4.3538,4.4316,4.4485,4.4587,4.4587,4.4587,4.4587,4.4587,4.4587,4.4959,4.5703,4.6312,4.6955,4.7733,4.8443,4.8781,4.8815,4.8951,4.9323,4.9898,5.0033,4.9999,4.9965,5.071,5.1014,5.1082,5.1826,5.2198,5.2401,5.3044,5.3382,5.3518,5.3518,5.3518,5.3518,5.3518,5.3518,5.3518,5.3518,5.3518,5.3653,5.4228,5.4397,5.4702,5.6055,5.6359,5.6562,5.7306,5.7476,5.7476,5.7476,5.6528,5.5716,5.5716,5.5716,5.5953,5.6697,5.6799,5.707,5.7814,5.8423,5.8795,5.8795,5.9471,5.9877,5.9877,6.0622,6.1129,6.1298,6.1839,6.2245,6.2381,6.2381,6.2381,6.2381,6.2381,6.2381,6.2381,6.2381,6.2381,6.2381,6.2381,6.2719,0.0,0.0,0.0,3.8805,0.0,0.0,0.0,0.0,3.9309,4.0426,0.0,0.0,0.0,0.0,0.0,0.0,0.0,0.0,0.0,0.0,0.0,0.0,0.0,0.0,0.0,0.0,4.3436,4.3436,4.3775,4.4181,4.4553,4.4587,4.4587,4.4587,4.4587,4.4756,4.5128,4.5128,4.5703,4.6819,4.7192,4.7733,4.8477,4.8849,4.9187,4.956,4.956,4.9965,5.0676,5.1048,5.1183,5.1217,5.1623,5.1758,5.186,5.2604,5.2909,5.2976,5.3382,5.3518,5.3518,5.3518,5.3518,5.3518,5.3518,5.3518,5.3518,5.3518,5.3754,5.4126,5.4499,5.4871,5.5446,5.6528,5.6799,5.7002,5.7712,5.7881,5.7881,5.7881,5.7306,5.6799,5.6799,5.6799,5.6934,5.7273,5.734,5.7476,5.7848,5.8558,5.9032,5.9032,6.0013,6.0689,6.0689,6.14,6.1839,6.1839,6.2178,6.2381,6.2381,6.2381,6.2381,6.2381,6.2381,6.2584,6.2956,6.2956,6.2956,6.2956,6.2956,6.3328,0.0,0.0,0.0,0.0,0.0,3.9343,0.0,0.0,0.0,3.9952,0.0,0.0,0.0,0.0,0.0,0.0,0.0,0.0,0.0,0.0,0.0,0.0,0.0,0.0,0.0,4.3978,4.4485,4.479,4.4654,4.4688,4.4993,4.4993,4.4993,4.4993,4.4993,4.5297,4.5906,4.5906,4.6583,4.7936,4.7936,4.8308,4.9018,4.9154,4.9526,5.0101,5.0236,5.0744,5.1488,5.2063,5.2401,5.2536,5.2536,5.2536,5.2604,5.3281,5.3518,5.3518,5.3518,5.3518,5.3518,5.3518,5.3518,5.3518,5.3518,5.3585,5.3721,5.3721,5.4228,5.4837,5.4972,5.548,5.6122,5.6833,5.7002,5.7171,5.7746,5.7881,5.7881,5.7881,5.7881,5.7881,5.7881,5.7881,5.7881,5.7881,5.7881,5.7949,5.8084,5.8761,5.9268,5.9438,6.0689,6.1501,6.1501,6.2042,6.2381,6.2381,6.2381,6.2381,6.2381,6.2381,6.2381,6.2381,6.2381,6.2753,6.3531,6.3531,6.3599,6.3734,6.3734,6.4106,0.0,0.0,0.0,0.0,3.9492,0.0,0.0,0.0,3.9986,4.0054,0.0,0.0,0.0,0.0,0.0,0.0,0.0,0.0,0.0,0.0,0.0,0.0,0.0,0.0,0.0,0.0,0.0,4.5466,4.4959,4.5162,4.6481,4.6549,4.6549,4.6549,4.6549,4.6583,4.665,4.6684,4.709,4.7936,4.7936,4.8308,4.9018,4.9661,4.9999,5.0135,5.0811,5.1488,5.2198,5.2266,5.2739,5.3382,5.3382,5.3382,5.3382,5.3484,5.3518,5.3518,5.3518,5.3518,5.3518,5.3518,5.3518,5.3518,5.3518,5.3957,5.4465,5.4465,5.5006,5.575,5.6393,5.6596,5.6867,5.7577,5.778,5.778,5.7881,5.7881,5.7881,5.7881,5.7881,5.7881,5.7881,5.7881,5.7881,5.7881,5.7881,5.8118,5.8795,5.9539,6.025,6.096,6.1772,6.2279,6.2279,6.2347,6.2381,6.2381,6.2381,6.2381,6.2381,6.2381,6.2381,6.2381,6.2381,6.2753,6.3531,6.3531,6.3835,6.4478,6.4478,6.4884,0.0,0.0,0.0,0.0,0.0,0.0,0.0,0.0,4.0087,0.0,0.0,0.0,0.0,0.0,0.0,0.0,0.0,0.0,0.0,0.0,0.0,0.0,0.0,0.0,0.0,0.0,0.0,0.0,0.0,4.506,4.6109,4.6549,4.6786,4.6786,4.6786,4.6989,4.7428,4.7462,4.78,4.8545,4.8545,4.8917,4.9627,4.9965,5.0574,5.1386,5.1691,5.23,5.301,5.301,5.3213,5.3518,5.3518,5.3518,5.3518,5.3518,5.3518,5.3518,5.3518,5.3518,5.3518,5.3518,5.3518,5.3518,5.3518,5.4025,5.46,5.46,5.5446,5.6427,5.6731,5.7103,5.7509,5.7814,5.7881,5.7881,5.7881,5.7881,5.7881,5.7881,5.7881,5.7881,5.7881,5.8254,5.8558,5.8558,5.8896,5.9302,5.9607,6.0317,6.0926,6.1264,6.1941,6.2381,6.2381,6.2381,6.2381,6.2381,6.2381,6.2381,6.2381,6.2821,6.2854,6.2415,6.3226,6.3835,6.414,6.458,6.5155,6.5865,6.5425,6.5628,3.6384,0.0,0.0,0.0,0.0,0.0,0.0,0.0,0.0,0.0,0.0,0.0,0.0,0.0,0.0,0.0,0.0,0.0,0.0,0.0,0.0,0.0,0.0,0.0,0.0,0.0,0.0,0.0,0.0,0.0,4.6244,4.6819,4.7192,4.7394,4.7394,4.7665,4.8206,4.8206,4.8477,4.9018,4.9187,4.9593,5.0101,5.0507,5.1285,5.23,5.2536,5.2976,5.3518,5.3518,5.3518,5.3518,5.3518,5.3518,5.3518,5.3518,5.3518,5.3518,5.3518,5.3518,5.3518,5.3518,5.3518,5.3551,5.3754,5.4329,5.4938,5.5141,5.6122,5.7103,5.7103,5.7476,5.7881,5.7881,5.8051,5.8186,5.8186,5.8355,5.849,5.849,5.849,5.849,5.849,5.8795,5.9032,5.9032,5.9641,6.0182,6.0419,6.0926,6.1366,6.1569,6.2076,6.2381,6.2381,6.2381,6.2381,6.2381,6.2584,6.2685,6.2685,6.3429,6.3565,6.299,6.4038,6.4681,6.4884,6.5425,6.6068,6.6812,6.6237,6.6305,0.0,0.0,0.0,3.8745,0.0,0.0,0.0,0.0,4.0967,0.0,0.0,0.0,0.0,0.0,4.0054,4.0087,0.0,0.0,0.0,0.0,0.0,0.0,0.0,0.0,0.0,0.0,0.0,0.0,0.0,0.0,4.7699,4.7868,4.8206,4.8917,4.8951,4.8951,4.8951,4.8951,4.8984,4.9018,4.9729,5.0067,5.0135,5.1589,5.2266,5.2334,5.3112,5.3484,5.3518,5.3518,5.3518,5.3518,5.3518,5.3518,5.3518,5.3518,5.3518,5.3518,5.3518,5.3518,5.3518,5.3518,5.3518,5.3619,5.4329,5.5074,5.5818,5.6528,5.7273,5.7848,5.7848,5.7881,5.7881,5.7881,5.8457,5.8964,5.8964,5.9539,6.0047,6.0047,6.0047,6.0047,6.0047,5.9471,5.9032,5.9032,5.9641,6.0385,6.1163,6.1298,6.1569,6.2279,6.2381,6.2381,6.2381,6.2381,6.2381,6.2381,6.3091,6.3463,6.3463,6.4174,6.4546,6.4546,6.458,6.4952,6.5662,6.5662,6.6068,6.6812,6.6779,6.6779,0.0,0.0,3.7994,3.8745,0.0,0.0,0.0,0.0,0.0,0.0,0.0,0.0,0.0,0.0,4.0087,4.0087,4.0087,0.0,0.0,0.0,0.0,0.0,0.0,0.0,0.0,0.0,0.0,0.0,0.0,0.0,0.0,4.8105,4.8748,4.8984,4.9018,4.9018,4.9018,4.9018,4.9255,4.9729,4.9965,5.0608,5.1555,5.2063,5.2604,5.3112,5.3382,5.3518,5.3518,5.3518,5.3518,5.3518,5.3518,5.3518,5.3518,5.3518,5.3518,5.3518,5.3518,5.3518,5.3585,5.4059,5.4228,5.4363,5.5108,5.5852,5.6494,5.6731,5.734,5.7881,5.7881,5.7881,5.8017,5.8524,5.8829,5.9133,5.9641,5.9911,6.0114,6.0114,6.0114,6.0114,6.0114,6.0317,6.052,6.052,6.1163,6.1704,6.1975,6.2009,6.211,6.2347,6.2381,6.2381,6.2381,6.2854,6.3125,6.3125,6.3835,6.4241,6.4241,6.4918,6.5087,6.4613,6.5561,6.5933,6.5696,6.6203,6.6576,6.6812,6.6812,6.6812,3.6753,3.7413,0.0,0.0,3.9714,0.0,4.0087,0.0,0.0,0.0,0.0,0.0,0.0,0.0,4.0087,4.0087,4.0087,4.0087,0.0,4.0087,0.0,0.0,0.0,0.0,0.0,0.0,4.2455,4.3741,0.0,0.0,0.0,0.0,4.8849,4.9357,4.939,4.9526,4.9796,4.9796,5.0033,5.0473,5.0744,5.1386,5.23,5.2604,5.301,5.3518,5.3518,5.3518,5.3518,5.3518,5.3518,5.3518,5.3518,5.3518,5.3518,5.3518,5.3518,5.3518,5.3518,5.3687,5.3957,5.4431,5.4769,5.5141,5.5886,5.6427,5.6867,5.7103,5.7509,5.7881,5.7881,5.8084,5.8423,5.8896,5.9438,5.9945,6.0419,6.0723,6.0926,6.0926,6.0926,6.0926,6.0926,6.1332,6.1603,6.1332,6.1907,6.2381,6.2381,6.2381,6.2381,6.2381,6.2381,6.2516,6.2753,6.3463,6.3903,6.3903,6.458,6.4986,6.4986,6.5696,6.5865,6.5392,6.6339,6.6576,6.6102,6.6576,6.6812,6.6812,6.6812,6.6812]},{"header":{"parameterUnit":"m.s-1","parameterCategory":1,"la1":30.6,"la2":29.2853,"lo1":-89.7004,"lo2":-87.6739,"dy":0.0162,"dx":0.0183,"nx":112,"ny":82,"refTime":"2024-10-10T18:00:00:Z","depth":0,"parameterNumber":3,"parameterNumberName":"V-component_of_WINDS"},"data":[0.0,0.0,0.0,0.0,0.0,0.0,0.0,0.0,0.0,0.0,0.0,0.0,0.0,0.0,0.0,0.0,0.0,0.0,0.0,0.0,0.0,0.0,0.0,0.0,0.0,0.0,0.0,0.0,0.0,0.0,0.0,0.0,0.0,0.0,0.0,0.0,0.0,0.0,0.0,0.0,0.0,0.0,0.0,0.0,0.0,0.0,0.0,0.0,0.0,0.0,0.0,0.0,0.0,0.0,0.0,0.0,0.0,0.0,0.0,0.0,0.0,0.0,0.0,0.0,0.0,0.0,0.0,0.0,0.0,0.0,0.0,0.0,0.0,0.0,0.0,0.0,0.0,0.0,0.0,0.0,0.0,0.0,0.0,0.0,0.0,0.0,0.0,0.0,0.0,0.0,0.0,1.6111,1.2779,0.9625,0.7319,0.7034,0.6865,0.6379,0.0,0.0,0.0,0.0,0.0,0.0,0.0,0.0,0.0,0.0,0.0,0.0,0.0,0.0,0.0,0.0,0.0,0.0,0.0,0.0,0.0,0.0,0.0,0.0,0.0,0.0,0.0,0.0,0.0,0.0,0.0,0.0,0.0,0.0,0.0,0.0,0.0,0.0,0.0,0.0,0.0,0.0,0.0,0.0,0.0,0.0,0.0,0.0,0.0,0.0,0.0,0.0,0.0,0.0,0.0,0.0,0.0,0.0,0.0,0.0,0.0,0.0,0.0,0.0,0.0,0.0,0.0,0.0,0.0,0.0,0.0,0.0,0.0,0.0,0.0,0.0,0.0,0.0,0.0,0.0,0.0,0.0,0.0,0.0,0.0,0.0,0.0,0.0,0.0,0.0,0.0,0.0,0.0,0.0,0.0,0.0,0.0,0.0,0.0,0.0,0.0,0.0,0.0,0.0,1.6798,1.3252,1.1394,0.9563,0.7333,0.696,0.6776,0.6549,0.0,0.0,0.0,0.0,0.0,0.0,0.0,0.0,0.0,0.0,0.0,0.0,0.0,0.0,0.0,0.0,0.0,0.0,0.0,0.0,0.0,0.0,0.0,0.0,0.0,0.0,0.0,0.0,0.0,0.0,0.0,0.0,0.0,0.0,0.0,0.0,0.0,0.0,0.0,0.0,0.0,0.0,0.0,0.0,0.0,0.0,0.0,0.0,0.0,0.0,0.0,0.0,0.0,0.0,0.0,0.0,0.0,0.0,0.0,0.0,0.0,0.0,0.0,0.0,0.0,0.0,0.0,0.0,0.0,0.0,0.0,0.0,0.0,0.0,0.0,0.0,0.0,0.0,0.0,0.0,0.0,0.0,0.0,0.0,0.0,0.0,0.0,0.0,0.0,0.0,0.0,0.0,0.0,0.0,0.0,0.0,0.0,0.0,0.0,0.0,0.0,0.0,0.0,1.7111,1.5405,1.2407,1.0554,0.8776,0.7097,0.6865,0.6381,0.5396,0.5628,0.0,0.0,0.0,0.0,0.0,0.0,0.0,0.0,0.0,0.0,0.0,0.0,0.0,0.0,0.0,0.0,0.0,0.0,0.0,0.0,0.0,0.0,0.0,0.0,0.0,0.0,0.0,0.0,0.0,0.0,0.0,0.0,0.0,0.0,0.0,0.0,0.0,0.0,0.0,0.0,0.0,0.0,0.0,0.0,0.0,0.0,0.0,0.0,0.0,0.0,0.0,0.0,0.0,0.0,0.0,0.0,0.0,0.0,0.0,0.0,0.0,0.0,0.0,0.0,0.0,0.0,0.0,0.0,0.0,0.0,0.0,0.0,0.0,0.0,0.0,0.0,0.0,0.0,0.0,0.0,0.0,0.0,0.0,0.0,0.0,0.0,0.0,0.0,0.0,0.0,0.0,0.0,0.0,0.0,0.0,0.0,0.0,0.0,0.0,0.0,0.0,0.0,1.6702,1.4209,1.1887,0.9795,0.8162,0.6902,0.6236,0.5308,0.3927,0.4867,0.0,0.0,0.0,0.0,0.0,0.0,0.0,0.0,0.0,0.0,0.0,0.0,0.0,0.0,0.0,0.0,0.0,0.0,0.0,0.0,0.0,0.0,0.0,0.0,0.0,0.0,0.0,0.0,0.0,0.0,0.0,0.0,0.0,0.0,0.0,0.0,0.0,0.0,0.0,0.0,0.0,0.0,0.0,0.0,0.0,0.0,0.0,0.0,0.0,0.0,0.0,0.0,0.0,0.0,0.0,0.0,0.0,0.0,0.0,0.0,0.0,0.0,0.0,0.0,0.0,0.0,0.0,0.0,0.0,0.0,0.0,0.0,0.0,0.0,0.0,0.0,0.0,0.0,0.0,0.0,0.0,0.0,0.0,0.0,0.0,0.0,0.0,0.0,0.0,0.0,0.0,0.0,0.0,0.0,0.0,0.0,0.0,0.0,0.0,0.0,0.0,0.0,1.6154,1.4282,1.0867,0.9266,0.7942,0.6833,0.4683,0.3182,0.2794,0.4162,0.0,0.0,0.0,0.0,0.0,0.0,0.0,0.0,0.0,0.0,0.0,0.0,0.0,0.0,0.0,0.0,0.0,0.0,0.0,0.0,0.0,0.0,0.0,0.0,0.0,0.0,0.0,0.0,0.0,0.0,0.0,0.0,0.0,0.0,0.0,0.0,0.0,0.0,0.0,0.0,0.0,0.0,0.0,0.0,0.0,0.0,0.0,0.0,0.0,0.0,0.0,0.0,0.0,0.0,0.0,0.0,0.0,0.0,0.0,0.0,0.0,0.0,0.0,0.0,0.0,0.0,0.0,0.0,0.0,0.0,0.0,0.0,0.0,0.0,0.0,0.0,0.0,0.0,0.0,0.0,0.0,0.0,0.0,0.0,0.0,0.0,0.0,0.0,0.0,0.0,0.0,0.0,0.0,0.0,0.0,0.0,0.0,0.0,0.0,0.0,0.0,0.0,1.4599,1.2404,0.0,0.8535,0.7118,0.6478,0.4427,0.2994,0.2731,0.0,0.0,0.0,0.0,0.0,0.0,0.0,0.0,0.0,0.0,0.0,0.0,0.0,0.0,0.0,0.0,0.0,0.0,0.0,0.0,0.0,0.0,0.0,0.0,0.0,0.0,0.0,0.0,0.0,0.0,0.0,0.0,0.0,0.0,0.0,0.0,0.0,0.0,0.0,0.0,0.0,0.0,0.0,0.0,0.0,0.0,0.0,0.0,0.0,0.0,0.0,0.0,0.0,0.0,0.0,0.0,0.0,0.0,0.0,0.0,0.0,0.0,0.0,0.0,0.0,0.0,0.0,0.0,0.0,0.0,0.0,0.0,0.0,0.0,0.0,0.0,0.0,0.0,0.0,0.0,0.0,0.0,0.0,0.0,0.0,0.0,0.0,0.0,0.0,0.0,0.0,0.0,0.0,0.0,0.0,0.0,0.0,0.0,0.0,0.0,0.0,0.0,1.6119,1.359,1.1404,0.0,0.8123,0.6607,0.6304,0.4297,0.2951,0.259,0.0,0.0,0.0,0.0,0.0,0.0,0.0,0.0,0.0,0.0,0.0,0.0,0.0,0.0,0.0,0.0,0.0,0.0,0.0,0.0,0.0,0.0,0.0,0.0,0.0,0.0,0.0,0.0,0.0,0.0,0.0,0.0,0.0,0.0,0.0,0.0,0.0,0.0,0.0,0.0,0.0,0.0,0.0,0.0,0.0,0.0,0.0,0.0,0.0,0.0,0.0,0.0,0.0,0.0,0.0,0.0,0.0,0.0,0.0,0.0,0.0,0.0,0.0,0.0,0.0,0.0,0.0,0.0,0.0,0.0,0.0,0.0,0.0,0.0,0.0,0.0,0.0,0.0,0.0,0.0,0.0,0.0,0.0,0.0,0.0,0.0,0.0,0.0,0.0,0.0,0.0,0.0,0.0,0.0,0.0,0.0,0.0,0.0,0.0,0.0,0.0,0.0,1.5013,1.3292,1.1736,1.0543,0.8188,0.6572,0.6283,0.4356,0.2881,0.0,0.0,0.0,0.0,0.0,0.0,0.0,0.0,0.0,0.0,0.0,0.0,0.0,0.0,0.0,0.0,0.0,0.0,0.0,0.0,0.0,0.0,0.0,0.0,0.0,0.0,0.0,0.0,0.0,0.0,0.0,0.0,0.0,0.0,0.0,0.0,0.0,0.0,0.0,0.0,0.0,0.0,0.0,0.0,0.0,0.0,0.0,0.0,0.0,0.0,0.0,0.0,0.0,0.0,0.0,0.0,0.0,0.0,0.0,0.0,0.0,0.0,0.0,0.0,0.0,0.0,0.0,0.0,0.0,0.0,0.0,0.0,0.0,0.0,0.0,0.0,0.0,0.0,0.0,0.0,0.0,0.0,0.0,0.0,0.0,0.0,0.0,0.0,0.0,0.0,0.0,0.0,0.0,0.0,0.0,0.0,0.0,0.0,0.0,0.0,0.0,0.0,0.0,1.4887,1.2603,1.0931,1.046,0.8188,0.6572,0.6283,0.481,0.3381,0.224,0.0,0.0,0.0,0.0,0.0,0.0,0.0,0.0,0.0,0.0,0.0,0.0,0.0,0.0,0.0,0.0,0.0,0.0,0.0,0.0,0.0,0.0,0.0,0.0,0.0,0.0,0.0,0.0,0.0,0.0,0.0,0.0,0.0,0.0,0.0,0.0,0.0,0.0,0.0,0.0,0.0,0.0,0.0,0.0,0.0,0.0,0.0,0.0,0.0,0.0,0.0,0.0,0.0,0.0,0.0,0.0,0.0,0.0,0.0,0.0,0.0,0.0,0.0,0.0,0.0,0.0,0.0,0.0,0.0,0.0,0.0,0.0,0.0,0.0,0.0,0.0,0.0,0.0,0.0,0.0,0.0,0.0,0.0,0.0,0.0,0.0,0.0,0.0,0.0,0.0,0.0,0.0,0.0,0.0,0.0,0.0,0.0,0.0,0.0,0.0,0.0,0.0,1.5009,1.2431,1.0508,1.0376,0.8123,0.6586,0.6445,0.5078,0.4011,0.3653,0.0,0.0,0.0,0.0,0.0,0.0,0.0,0.0,0.0,0.0,0.0,0.0,0.0,0.0,0.0,0.0,0.0,0.0,0.0,0.0,0.0,0.0,0.0,0.0,0.0,0.0,0.0,0.0,0.0,0.0,0.0,0.0,0.0,0.0,0.0,0.0,0.0,0.0,0.0,0.0,0.0,0.0,0.0,0.0,0.0,0.0,0.0,0.0,0.0,0.0,0.0,0.0,0.0,0.0,0.0,0.0,0.0,0.0,0.0,0.0,0.0,0.0,0.0,0.0,0.0,0.0,0.0,0.0,0.0,0.0,0.0,0.0,0.0,0.0,0.0,0.0,0.0,0.0,0.0,0.0,0.0,0.0,0.0,0.0,0.0,0.0,0.0,0.0,0.0,0.0,0.0,0.0,0.0,0.0,0.0,0.0,0.0,0.0,0.0,0.0,0.0,0.0,1.5062,1.238,1.0355,1.0272,0.8024,0.6565,0.6687,0.532,0.4785,0.5818,0.0,0.0,0.0,0.0,0.0,0.0,0.0,0.0,0.0,0.0,0.0,0.0,0.0,0.0,0.0,0.0,0.0,0.0,0.0,0.0,0.0,0.0,0.0,0.0,0.0,0.0,0.0,0.0,0.0,0.0,0.0,0.0,0.0,0.0,0.0,0.0,0.0,0.0,0.0,0.0,0.0,0.0,0.0,0.0,0.0,0.0,0.0,0.0,0.0,0.0,0.0,0.0,0.0,0.0,0.0,0.0,0.0,0.0,0.0,0.0,1.1085,0.0,0.0,0.0,0.0,0.0,0.0,0.0,0.0,0.0,0.0,0.0,0.0,0.0,0.0,0.0,0.0,0.0,0.0,0.0,0.0,0.0,0.0,0.0,0.0,0.0,0.0,0.0,0.0,0.0,0.0,0.0,0.0,0.0,0.0,0.0,0.0,0.0,0.0,0.0,0.0,0.0,1.3092,1.1421,1.0021,0.919,0.7542,0.6565,0.6687,0.6198,0.5974,0.6194,0.0,0.0,0.0,0.0,0.0,0.0,0.0,0.0,0.0,0.0,0.0,0.0,0.0,0.0,0.0,0.0,0.0,0.0,0.0,0.0,0.0,0.0,0.0,0.0,0.0,0.0,0.0,0.0,0.0,0.0,0.0,0.0,0.0,0.0,0.0,0.0,0.0,0.0,0.0,0.0,0.0,0.0,0.0,0.0,0.0,0.0,0.0,0.0,0.0,0.0,0.0,0.0,0.0,0.0,0.0,0.0,0.0,0.0,0.0,0.0,0.0,1.1885,0.0,0.0,0.0,0.0,0.0,0.0,0.0,0.0,0.0,0.0,0.0,0.0,0.0,0.0,0.0,0.0,0.0,0.0,0.0,0.0,0.0,0.0,0.0,0.0,0.0,0.0,0.0,0.0,0.0,0.0,0.0,0.0,0.0,0.0,0.0,0.0,0.0,0.0,0.0,0.0,1.2775,1.1249,0.9873,0.8713,0.7266,0.6462,0.6489,0.6393,0.6249,0.6191,0.6215,0.0,0.0,0.0,0.0,0.0,0.0,0.0,0.0,0.0,0.0,0.0,0.0,0.0,0.0,0.0,0.0,0.0,0.0,0.0,0.0,0.0,0.0,0.0,0.0,0.0,0.0,0.0,0.0,0.0,0.0,0.0,0.0,0.0,0.0,0.0,0.0,0.0,0.0,0.0,0.0,0.0,0.0,0.0,0.0,0.0,0.0,0.0,0.0,0.0,0.0,0.0,0.0,0.0,0.0,1.7989,1.7934,1.7166,1.613,1.4911,1.4574,1.3917,1.3078,0.0,0.0,0.0,0.0,0.0,0.0,0.0,0.0,0.0,0.0,0.0,0.0,0.0,0.0,0.0,0.0,0.0,0.0,0.0,0.0,0.0,0.0,0.0,0.0,0.0,1.4131,1.4131,0.0,0.0,0.0,0.0,0.0,0.0,0.0,0.0,0.0,0.0,0.0,0.0,1.2622,1.1044,0.9614,0.8196,0.7044,0.6268,0.6274,0.6268,0.6213,0.6091,0.6507,0.6422,0.0,0.0,0.0,0.0,0.0,0.0,0.0,0.0,0.0,0.0,0.0,0.0,0.0,0.0,0.0,0.0,0.0,0.0,0.0,0.0,0.0,0.0,0.0,0.0,0.0,0.0,0.0,0.0,0.0,0.0,0.0,0.0,1.1604,1.2505,0.0,0.0,0.0,0.0,0.0,0.0,0.0,0.0,0.0,0.0,0.0,0.0,0.0,0.0,2.0136,2.216,2.2475,2.1084,2.1259,2.0939,2.0159,2.0062,1.8879,1.6959,1.7891,0.0,1.448,1.4035,0.0,0.0,0.0,0.0,0.0,0.0,0.0,0.0,0.0,0.0,0.0,0.0,0.0,0.0,0.0,0.0,0.0,0.0,0.0,0.0,0.0,0.0,1.6653,1.5643,1.6129,1.6553,0.0,1.5309,1.5934,1.7248,0.0,0.0,0.0,0.0,0.0,0.0,0.0,0.0,1.045,1.0067,0.9313,0.6995,0.6513,0.6268,0.6274,0.6268,0.6254,0.6247,0.6167,0.6064,0.5969,0.5775,0.0,0.0,0.0,0.0,0.0,0.0,0.0,0.0,0.0,0.0,0.0,0.0,0.0,0.0,0.0,0.0,0.0,0.0,0.0,0.0,0.0,0.0,0.0,0.0,0.0,0.0,0.0,0.0,0.0,1.1984,1.2663,1.2518,1.2946,1.2886,0.0,0.0,0.0,0.0,0.0,0.0,0.0,0.0,0.0,2.169,2.3244,2.4419,2.5119,2.5061,2.4321,2.2886,2.2026,2.1015,1.9844,1.9844,1.8995,1.7519,1.8059,1.8029,1.7471,1.6207,1.5794,1.5953,0.0,0.0,0.0,0.0,0.0,1.8482,1.8945,0.0,0.0,0.0,0.0,0.0,0.0,0.0,0.0,0.0,0.0,0.0,0.0,0.0,0.0,1.7054,1.7234,1.7846,1.8742,1.9024,1.9066,0.0,1.9184,1.9274,1.8968,0.0,0.0,0.0,0.0,0.0,1.0285,0.9968,0.9223,0.6725,0.6342,0.6261,0.6268,0.6268,0.6261,0.6268,0.62,0.6159,0.6159,0.5956,0.5806,0.0,0.0,0.0,0.0,0.0,0.0,0.0,0.0,0.0,0.0,0.0,0.0,0.0,0.0,0.0,0.0,0.0,0.0,0.0,0.0,0.0,0.0,0.0,0.0,0.0,0.0,0.0,0.0,1.3822,1.438,1.3949,1.5149,1.5419,0.0,0.0,0.0,0.0,0.0,0.0,2.2883,2.3804,2.5087,2.6609,2.7281,2.8005,2.8898,2.7397,2.5932,2.4425,2.2444,2.0865,1.964,1.9423,1.8692,1.771,1.8212,1.9008,1.9738,1.8375,1.8022,1.8341,1.8316,1.8387,1.8617,1.9564,2.0625,2.162,2.2352,2.2571,2.2342,2.1739,0.0,1.9808,1.8664,0.0,0.0,0.0,0.0,2.0525,2.0293,0.0,1.8727,1.798,1.8181,1.8995,2.0732,2.1451,2.1628,0.0,2.1293,2.1302,2.0568,0.0,0.0,0.0,0.0,1.4952,1.0354,0.9917,0.9148,0.6669,0.6322,0.6338,0.6338,0.6338,0.6338,0.6338,0.6338,0.6338,0.6338,0.6152,0.6071,0.603,0.0,0.0,0.0,0.0,0.0,0.0,0.0,0.0,0.0,0.0,0.0,0.0,0.0,0.0,0.0,0.0,0.0,0.0,0.0,0.0,0.0,0.0,0.0,0.0,0.0,0.0,0.0,0.0,0.0,1.8339,1.9044,0.0,0.0,0.0,0.0,2.4007,2.4935,2.6075,2.786,2.8824,2.9402,2.9485,3.1121,3.1317,2.9921,2.9346,2.7809,2.5344,2.3073,2.1446,2.0532,1.9713,1.8692,1.7784,1.9673,2.0307,2.0091,2.0191,2.1563,2.3692,2.3487,2.3418,2.3504,2.3952,2.4709,2.5543,2.4881,2.4953,2.5202,2.3784,2.2737,2.2136,2.2492,2.2024,0.0,0.0,2.2383,2.1768,2.1437,2.0886,2.0001,1.8155,1.9097,2.038,1.9974,2.1314,2.2928,0.0,2.3993,2.3457,2.167,0.0,2.0046,1.637,1.6013,1.4531,0.9905,0.9591,0.8862,0.6514,0.6345,0.6338,0.6338,0.6338,0.6338,0.6338,0.6338,0.6338,0.6338,0.6254,0.6179,0.603,0.6811,0.0,0.0,0.0,0.0,0.0,0.0,0.0,0.0,0.0,0.0,0.0,0.0,0.0,0.0,0.0,0.0,0.0,0.0,0.0,0.0,0.0,0.0,0.0,0.0,0.0,0.0,0.0,0.0,2.0274,2.1782,0.0,2.1511,2.3858,2.6045,2.7487,2.8876,3.0376,3.2116,3.1957,3.204,3.2508,3.249,3.1978,3.0948,2.9356,2.7159,2.4318,2.2507,2.0679,1.8923,1.8596,1.8247,1.7967,1.9247,2.019,2.0994,2.2232,2.3232,2.4059,2.4052,2.414,2.4425,2.4993,2.5598,2.6067,2.6205,2.564,2.4723,2.4023,2.384,2.4119,2.5432,2.5259,2.4743,2.5286,2.4517,2.3282,2.2754,2.2043,2.1285,2.0561,2.0935,2.1538,2.1948,2.2639,2.3395,2.4414,2.4163,2.3423,2.2562,2.2039,2.0487,1.6655,1.642,1.4894,1.0175,0.9652,0.8843,0.6507,0.6338,0.6338,0.6338,0.6338,0.6338,0.6338,0.6338,0.6338,0.6338,0.6338,0.6234,0.6179,0.6371,0.6569,0.0,0.0,0.0,0.0,0.0,0.0,0.0,0.0,0.0,0.0,0.0,0.0,0.0,0.0,0.0,0.0,0.0,0.0,0.0,0.0,0.0,0.0,0.0,0.0,0.0,0.0,2.2596,2.3096,2.5077,2.6057,2.519,2.7814,2.9928,3.072,3.2188,3.3498,3.4482,3.3966,3.3756,3.4125,3.3067,3.2145,3.1534,2.9132,2.672,2.4201,2.1973,1.9944,1.8175,1.7927,1.7793,1.786,1.8685,1.9727,2.0963,2.2237,2.3226,2.3984,2.4858,2.5435,2.5724,2.6366,2.6803,2.7088,2.7309,2.6499,2.5229,2.5048,2.5269,2.5769,2.6944,2.6804,2.6217,2.6463,2.5394,2.3972,2.3257,2.2492,2.1822,2.1554,2.1688,2.2134,2.2916,2.3293,2.3758,2.4653,2.4333,2.3629,2.2748,2.2368,2.0839,1.6672,1.642,1.4987,1.0175,0.9591,0.869,0.65,0.6338,0.6338,0.6338,0.6338,0.6338,0.6338,0.6338,0.6261,0.6268,0.6297,0.629,0.6268,0.6836,0.7106,0.7158,0.0,0.0,0.0,0.0,0.0,0.0,0.0,0.0,0.0,0.0,0.0,0.0,0.0,0.0,0.0,0.0,0.0,0.0,0.0,0.0,0.0,0.0,0.0,2.2742,2.4173,2.5696,2.6931,2.8909,3.0087,2.9753,3.1777,3.3278,3.3665,3.4748,3.528,3.4905,3.4765,3.4515,3.4098,3.2966,3.2079,3.139,2.8651,2.6525,2.4945,2.151,1.9394,1.8511,1.7735,1.7363,1.7429,1.8212,1.9037,1.9772,2.0216,2.1512,2.3605,2.6325,2.7443,2.7527,2.8284,2.8577,2.8532,2.8306,2.7738,2.7006,2.7006,2.7033,2.7033,2.7033,2.6553,2.5906,2.588,2.4983,2.3791,2.2959,2.2321,2.1753,2.091,2.129,2.2083,2.2583,2.3364,2.413,2.4657,2.4693,2.4149,2.2321,2.2358,2.1111,1.6517,1.613,0.0,0.9873,0.9301,0.8542,0.6486,0.6338,0.6338,0.6338,0.6338,0.6338,0.6338,0.6338,0.6268,0.6281,0.6298,0.6291,0.6366,0.8255,0.8846,0.8084,0.0,0.0,0.0,0.0,0.0,0.0,0.0,0.0,0.0,0.0,0.0,0.0,0.0,0.0,0.0,0.0,0.0,0.0,0.0,0.0,0.0,0.0,2.5006,2.5443,2.6374,2.7494,2.882,2.9544,3.0138,3.0472,3.2107,3.3316,3.3603,3.3948,3.422,3.4407,3.3247,3.236,3.1832,3.0803,2.9688,2.8553,2.6393,2.4202,2.211,2.0224,1.8585,1.7213,1.6978,1.6914,1.6914,1.7822,1.8277,1.8563,1.9313,2.0274,2.1499,2.4231,2.592,2.6862,2.7573,2.7859,2.7786,2.7171,2.7083,2.7258,2.7342,2.7655,2.7939,2.7997,2.7474,2.6619,2.5648,2.4735,2.3841,2.317,2.2861,2.2702,2.2433,2.2641,2.2812,2.296,2.3169,2.3427,2.3577,2.3083,2.2543,2.2049,2.1538,1.9941,1.6319,0.0,0.0,0.9776,0.9301,0.8542,0.6486,0.6338,0.6338,0.6338,0.6338,0.6338,0.0,0.6338,0.6308,0.6417,0.6462,0.69,0.7773,0.8286,0.8755,0.0,0.0,0.0,0.0,0.0,0.0,0.0,0.0,0.0,0.0,0.0,0.0,0.0,0.0,0.0,0.0,0.0,0.0,0.0,0.0,0.0,0.0,2.5072,2.6985,2.7588,2.8072,2.8665,2.9544,2.9824,3.0112,3.0563,3.152,3.2076,3.1917,3.2438,3.2431,3.1705,3.1493,3.0798,2.9457,2.8857,2.795,2.6651,2.4629,2.2588,2.0652,1.9095,1.769,1.6445,1.6445,1.6445,0.0,1.6981,1.7226,1.7205,1.7539,1.8444,0.0,0.0,0.0,0.0,0.0,2.6323,2.6739,2.6249,2.6707,2.7442,2.7524,2.752,2.7535,2.7561,2.6834,2.5855,2.5037,2.4245,2.3552,2.3165,2.3065,2.3065,2.3065,2.3065,2.3065,2.3065,2.3065,2.3005,2.2641,0.0,0.0,2.0996,2.0239,1.8762,1.5935,1.4883,1.3126,0.0,0.9301,0.8542,0.6486,0.6315,0.6349,0.6349,0.641,0.0,0.0,0.0,0.6537,0.6645,0.6627,0.0,0.0,0.0,0.0,0.0,0.0,0.0,0.0,1.1657,1.1781,0.0,0.0,0.0,0.0,0.0,0.0,0.0,0.0,0.0,0.0,0.0,0.0,0.0,0.0,0.0,0.0,2.6718,2.8411,2.8973,2.9039,2.9125,2.9453,2.9597,2.9768,3.0011,3.0205,3.006,2.9415,3.0412,3.0179,2.8213,0.0,0.0,0.0,0.0,2.6632,2.5371,2.3205,2.1436,2.0013,1.8195,1.6794,1.5856,1.5856,1.5856,1.5856,1.5856,1.5936,1.5957,1.5566,1.6597,1.8635,2.0785,2.2081,2.2777,2.3458,2.4436,0.0,0.0,0.0,0.0,2.7327,2.6916,2.6336,2.6283,2.5356,2.4279,2.4105,2.3603,2.3065,2.3005,2.3005,2.3065,2.3065,2.3065,2.3065,2.3065,2.3005,2.2763,2.2063,2.1753,2.1101,1.942,1.8634,1.7554,1.5488,1.4637,0.0,0.9732,0.9332,0.8579,0.6535,0.0,0.0,0.6498,0.662,0.6702,0.6702,0.6715,0.6757,0.6796,0.6854,0.7098,0.7606,0.9702,1.1025,1.1466,1.3882,1.5228,1.5548,1.3681,1.3643,0.0,0.0,0.0,0.0,0.0,0.0,0.0,0.0,0.0,0.0,0.0,0.0,0.0,0.0,0.0,2.554,2.7126,2.8119,2.8098,2.8068,2.8215,2.8591,2.806,2.7857,2.8322,2.8265,2.8151,2.8015,2.8477,2.8467,2.7591,2.7891,0.0,2.6698,2.6169,2.5305,2.3969,2.2036,2.03,1.8794,0.0,0.0,1.4561,1.4561,1.4561,1.4561,1.4561,1.4937,1.5527,1.5449,1.6353,1.8079,2.1208,2.2804,2.351,2.3664,2.3872,2.417,2.4543,2.4899,2.5202,2.5655,2.5714,2.5522,2.4908,2.4509,0.0,2.2713,2.2702,2.2944,2.231,2.2641,2.3065,2.3065,2.3065,2.3065,2.3065,2.258,2.2063,2.1939,2.0782,1.9465,1.8362,1.7434,1.6419,1.5367,1.3797,1.1902,0.9766,0.9476,0.876,0.6845,0.6641,0.6654,0.6654,0.6681,0.6702,0.6702,0.6817,0.6871,0.6844,0.698,0.7562,0.8787,1.0238,1.1547,1.2655,1.4447,1.5874,1.6799,1.6446,1.6049,0.0,0.0,0.0,0.0,0.0,0.0,0.0,0.0,0.0,0.0,0.0,2.0315,2.1794,0.0,2.5246,2.6418,2.7371,2.7788,2.7333,2.6757,2.6621,2.713,2.6793,2.6522,2.6522,2.6445,2.6389,2.6389,2.6924,2.6832,2.5955,2.6546,2.6224,2.4627,2.4575,2.3653,2.1665,2.0271,1.889,1.7505,1.6415,1.5332,1.4213,1.4213,1.4213,1.4213,1.4213,1.4688,1.541,1.5816,1.6595,1.7788,1.9858,2.1094,2.1743,2.1743,2.2186,2.279,2.3038,2.3738,2.4553,2.4886,2.4915,2.4738,2.3878,2.3374,2.2834,2.1604,2.1542,2.1729,2.1353,2.1542,2.1978,2.2372,2.2519,2.2519,2.2519,2.2187,2.1628,2.0782,1.9879,1.887,1.7483,1.6435,1.5458,1.4585,1.3374,1.1803,0.9751,0.9627,0.8944,0.6936,0.677,0.6817,0.6817,0.6878,0.6919,0.6919,0.6993,0.7034,0.7034,0.7102,0.7738,0.9058,1.051,1.1941,1.3205,1.4795,1.5885,1.6508,1.7154,1.7242,0.0,0.0,0.0,0.0,0.0,0.0,0.0,0.0,1.9045,2.0442,2.1406,2.2401,2.3651,2.5102,2.63,2.6899,2.7224,2.713,2.6455,2.5447,2.4906,2.5252,2.5317,2.5171,2.4842,2.4729,2.4716,2.4844,2.5385,2.5233,2.4131,2.5142,2.4762,2.2586,2.2754,2.1847,1.971,1.8626,1.7549,1.6482,1.5565,1.4746,1.3974,1.3974,1.3974,1.3974,1.4332,1.4805,1.5468,1.6197,1.6877,1.7468,1.8232,1.8874,1.9423,1.9683,2.0476,2.1405,2.1642,2.2697,2.3933,2.4177,2.4027,2.3669,2.3025,2.2262,2.1502,2.059,2.0462,2.059,2.0398,2.0462,2.0782,2.1502,2.1628,2.1628,2.1628,2.1502,2.0974,1.9552,1.9023,1.8267,1.6627,1.5576,1.4697,1.3915,1.3262,1.2004,0.9894,0.9817,0.9128,0.7028,0.6898,0.6966,0.6966,0.7075,0.7143,0.7143,0.7143,0.7143,0.7143,0.734,0.805,0.9108,1.0948,1.2466,1.3473,1.5038,1.5927,1.6197,1.6951,1.7326,1.0825,1.2852,1.4878,1.6651,1.7721,1.8893,0.0,0.0,2.1591,2.3366,2.3835,2.4257,2.5473,2.5859,2.6173,2.6657,2.6252,2.5681,2.5245,2.4513,2.3715,2.2896,2.2817,2.2965,2.3398,2.297,2.2954,2.3546,2.367,2.3509,2.2935,2.3036,2.2718,2.1852,2.0723,1.999,1.971,1.771,1.6658,1.6482,1.504,1.3914,1.313,1.313,1.313,1.3191,1.4628,1.5294,1.5468,1.6197,1.6539,1.6708,1.7413,1.7797,1.8015,1.9319,1.9888,2.0193,2.1205,2.169,2.2,2.2934,2.2749,2.2125,2.2063,2.1416,2.059,1.9683,2.0009,2.0398,1.9617,2.0009,2.0655,2.0719,2.0719,2.0719,2.0719,2.0139,1.9552,1.9375,1.7997,1.6558,1.5508,1.4783,1.4261,1.4186,1.3402,1.2142,1.0326,1.0148,0.9395,0.725,0.7109,0.7115,0.7115,0.7129,0.7143,0.7143,0.7143,0.7143,0.7143,0.8333,0.9216,0.9486,1.2106,1.359,1.3837,1.5127,1.6386,1.7498,1.648,1.6008,1.302,1.5823,1.8047,1.9042,1.9972,2.1036,2.2439,2.2443,2.2528,2.3679,2.4159,2.4472,2.4709,2.4979,2.5013,0.0,2.4614,2.4282,2.3422,2.2553,2.1713,2.0874,2.0546,2.0892,2.2194,2.2103,2.1991,2.1953,2.223,2.2176,2.1671,2.1963,2.1833,2.121,2.0218,1.9297,1.8507,1.7191,1.6255,1.5874,1.5216,1.451,1.3734,1.3734,1.3734,1.3795,1.4864,1.541,1.541,1.5758,1.6083,1.6539,1.6821,1.7191,1.7743,1.8768,1.9162,1.9312,2.0607,2.0915,2.0888,2.1642,2.1554,2.1037,2.0526,2.0139,1.9683,1.8777,1.8777,1.8977,1.8664,1.8777,1.9243,1.9683,1.9814,1.9814,1.9814,1.9552,1.9177,1.8664,1.7472,1.6351,1.558,1.4735,1.4153,1.3909,1.3505,1.2785,1.1344,1.0731,0.957,0.7305,0.7143,0.7143,0.7143,0.7143,0.7143,0.7143,0.7143,0.7183,0.7272,0.8583,0.9695,1.0537,1.2625,1.4036,1.4803,1.5455,1.6103,1.6574,1.6021,1.5832,1.545,1.8383,2.0499,2.0921,2.1918,2.2872,2.3383,2.3325,2.3287,2.3654,2.4047,2.4208,2.3786,2.3951,2.3918,2.328,2.3187,2.283,2.1874,2.0819,1.9983,1.9463,1.9103,1.9502,2.1012,2.1046,2.0826,2.0626,2.0969,2.1102,2.089,2.1254,2.1086,2.027,1.953,1.8507,1.7302,1.6595,1.5911,1.541,1.5177,1.4746,1.4213,1.4213,1.4332,1.4569,1.5177,1.541,1.541,1.541,1.57,1.6197,1.6197,1.6602,1.7275,1.8001,1.8441,1.8729,1.9903,2.0184,2.0158,2.0694,2.0614,2.0139,1.9486,1.911,1.8777,1.8212,1.8008,1.8008,1.8008,1.8008,1.8144,1.8777,1.8911,1.8911,1.8911,1.9014,1.8893,1.8321,1.725,1.6329,1.5873,1.482,1.3917,1.3655,1.3707,1.3335,1.2135,1.0931,0.9314,0.7312,0.7143,0.7156,0.7204,0.7204,0.7224,0.7265,0.7527,0.7847,0.7971,0.9648,1.0938,1.1929,1.3485,1.4659,1.5511,1.5725,1.5832,1.5832,1.5832,1.5832,1.7926,2.0193,2.2019,2.2506,2.3546,2.4428,2.4428,2.4458,2.4365,2.3951,2.3918,2.3786,2.3312,2.3243,2.3211,2.3176,2.2188,2.1228,2.0818,1.9626,1.8845,1.8934,1.892,1.9168,0.0,1.9348,1.9238,1.9903,1.9958,2.017,2.0766,2.0845,2.0169,1.8821,1.807,1.7302,1.6539,1.5816,1.541,1.541,1.4628,1.4213,1.4213,1.4213,1.4628,1.5352,1.541,1.541,1.541,1.541,1.541,1.541,1.541,1.5723,1.6217,1.6995,1.7679,1.836,1.8969,1.9403,1.9812,2.0389,2.0052,1.9309,1.9309,1.8731,1.8008,1.8008,1.8008,1.8008,1.8008,1.8008,1.8008,1.8008,1.8008,1.8008,1.8008,1.832,1.8613,1.8613,1.7295,1.6195,1.6211,1.4741,1.3627,1.3641,1.3895,1.3633,1.2407,1.0346,0.8448,0.7224,0.7143,0.7204,0.7353,0.7366,0.7428,0.7577,0.8776,0.941,0.9418,1.2128,1.359,1.359,1.4999,1.5724,1.5818,1.5832,1.5832,1.5832,1.5832,1.5832,1.9067,2.1045,2.257,2.3073,2.3456,2.3688,2.3376,2.2917,2.2462,2.2053,2.1696,2.1431,2.1292,2.1227,2.1158,2.0905,2.0482,1.9906,1.9018,1.8293,1.78,1.7765,1.8144,0.0,0.0,0.0,0.0,1.9297,1.9653,1.9772,1.9607,1.9483,1.919,1.8715,1.7523,1.6765,1.6482,1.5758,1.541,1.541,1.5465,1.5327,1.5001,1.5346,1.5446,1.541,1.541,1.541,1.541,1.541,1.5586,1.584,1.584,1.6113,1.6504,1.6753,1.7244,1.7884,1.9109,1.9262,1.8998,1.9533,1.9177,1.8462,1.8462,1.8212,1.8008,1.8008,1.8008,1.8008,1.8008,1.8008,1.8086,1.8359,1.8418,1.8496,1.8789,1.8965,1.9062,1.9062,1.751,1.6294,1.6464,1.4903,1.3707,1.3908,1.4028,1.3392,1.1381,1.0529,0.9314,0.7312,0.7231,0.7312,0.7366,0.8276,0.8814,0.8877,1.0075,1.0871,1.0923,1.2703,1.3778,1.385,1.5102,1.5832,1.5832,1.5832,1.5832,1.5832,1.5832,1.5832,1.9977,2.1697,2.2976,2.3013,2.3085,2.3006,2.2432,2.1693,2.099,2.0601,2.0066,1.9652,1.9534,1.9468,1.9396,1.9155,1.8939,1.8464,1.7572,1.7361,1.7324,1.7248,1.8111,1.8857,0.0,0.0,0.0,1.9335,1.9597,1.9609,1.9226,1.8879,1.8447,1.7961,1.6968,1.6368,1.6083,1.5801,1.5644,1.5644,1.5998,1.5918,1.5644,1.5937,1.5996,1.5879,1.5879,1.5879,1.5879,1.5879,1.6055,1.6309,1.6309,1.6582,1.6973,1.6973,1.7246,1.7711,1.8595,1.8657,1.841,1.8696,1.8462,1.8008,1.8008,1.8008,1.8047,1.8184,1.8223,1.8262,1.8418,1.8477,1.8535,1.8809,1.8867,1.8945,1.9219,1.9414,1.9438,1.9049,1.7693,1.6534,1.6365,1.501,1.4055,1.4362,1.4402,1.3473,1.0999,1.0639,0.98,0.7562,0.7843,0.8199,0.8258,0.9461,1.0304,1.0377,1.1599,1.2422,1.2479,1.3732,1.4489,1.4555,1.5343,1.5832,1.5832,1.5832,1.5832,1.5832,1.5832,1.5832,2.0701,2.2108,2.3114,2.2406,2.2445,2.2404,2.1685,2.0766,2.0001,1.954,1.9067,1.8541,1.8131,1.808,1.8108,1.8147,1.7693,1.7141,1.6565,1.7005,1.7371,0.0,0.0,0.0,0.0,0.0,0.0,1.996,0.0,1.9744,1.9658,1.8993,1.7984,1.6581,1.6503,1.6083,1.541,1.584,1.6135,1.6154,1.6174,1.6174,1.6154,1.6174,1.6348,1.6675,1.6675,1.6675,1.6675,1.6675,1.6675,1.6777,1.6777,1.7031,1.7422,1.7422,1.7676,1.7949,1.7559,1.7676,1.8008,1.8008,1.8008,1.8008,1.8027,1.8047,1.8125,1.8555,1.8672,1.8769,1.918,1.9297,1.9297,1.9316,1.9316,1.9336,1.9355,1.9668,1.9639,1.857,1.7792,1.6894,1.5839,1.5021,1.4643,1.4923,1.4963,1.395,1.1169,1.0791,0.9967,0.7865,0.8707,0.9605,0.9793,1.1048,1.1908,1.2027,1.3295,1.3968,1.3968,1.514,1.5832,1.5832,1.5832,1.5832,1.5832,1.5832,1.5832,1.5832,1.5832,1.5832,2.0732,2.1279,2.1627,2.1738,2.1591,2.1183,2.0299,1.9521,1.8774,1.7981,1.737,1.7109,1.7396,1.7864,1.8311,1.8659,1.8157,0.0,1.7697,1.7382,0.0,1.7843,0.0,1.961,2.0618,2.1167,0.0,0.0,2.0346,2.0064,2.0037,1.8462,1.7413,1.7005,1.6151,1.5584,1.541,1.584,1.623,1.6562,1.6894,1.6875,1.6562,1.6894,1.6934,1.6675,1.6675,1.6675,1.6675,1.6675,1.6914,1.7227,1.7227,1.748,1.7852,1.7852,1.791,1.7988,1.7891,1.791,1.8008,1.8008,1.8008,1.8066,1.8379,1.8477,1.8574,1.9004,1.9121,1.9141,1.9258,1.9297,1.9375,1.9687,1.9746,1.9844,2.0176,2.0332,2.0178,1.9254,1.7879,1.6428,1.5325,1.4967,1.487,1.495,1.4963,1.4103,1.1475,1.1192,1.0214,0.7872,0.891,0.9759,0.9801,1.1949,1.3324,1.3392,1.4555,1.5343,1.5343,1.5642,1.5832,1.5832,1.5832,1.5832,1.5832,1.5832,1.5832,1.5832,1.5832,1.5832,2.0534,2.0829,2.0991,2.099,2.0668,2.01,1.9053,1.8198,1.7411,1.6599,1.6225,1.612,1.6439,1.7434,1.8293,0.0,0.0,0.0,1.8437,1.8229,1.8287,0.0,1.9793,0.0,2.079,2.1354,2.1415,0.0,2.0627,2.0264,1.9546,1.8201,1.7305,1.6961,1.6296,1.6074,1.6269,1.6523,1.6777,1.7031,1.7266,1.7246,1.7031,1.7266,1.7344,1.7285,0.0,1.7285,1.7285,1.7285,1.7441,1.7656,1.7656,1.7812,1.8008,1.8008,1.8008,1.8008,1.8008,1.8125,1.8281,1.8281,1.8281,1.8359,1.8789,1.8926,1.9004,1.9453,1.9551,1.9609,1.9805,1.9844,1.9902,2.0137,2.0352,2.0566,2.0801,2.1016,2.0709,1.9252,1.7329,1.5782,1.5214,1.515,1.5204,1.5324,1.5337,1.4679,1.2703,1.1848,1.0904,0.9585,1.0254,1.099,1.1557,1.3504,1.4758,1.4758,1.5439,1.5832,1.5832,1.5832,1.5832,1.5832,1.5832,1.5832,1.5832,1.5832,1.5832,1.5832,1.5832,1.5899,2.0196,2.04,2.0503,2.0005,1.9581,1.8972,1.7765,1.685,1.6088,1.549,1.5426,1.5519,1.5519,1.6904,1.8017,1.8091,0.0,1.8534,1.8875,1.9033,1.9259,1.9562,2.0945,2.1555,2.0949,2.1313,2.1283,2.0462,2.0625,2.0188,1.8764,1.8072,1.7449,1.6738,1.6675,1.6934,1.7383,1.7383,1.7422,1.7461,1.7461,1.7461,1.7461,1.7461,1.7656,1.8008,0.0,0.0,1.8008,1.8008,1.8008,1.8008,1.8008,1.8008,1.8008,1.8008,1.8047,1.8086,1.8086,1.8379,1.8711,1.8652,1.8601,1.8809,1.9238,1.9375,1.9453,1.9883,2.0,2.0098,2.0547,2.0664,2.0664,2.0723,2.1035,2.1247,2.1067,2.1148,2.066,1.8576,1.6536,1.5164,1.5404,1.5458,1.5538,1.5792,1.5832,1.5439,1.4268,1.2819,1.1813,1.192,1.2047,1.2619,1.3776,1.5045,1.5832,1.5832,1.5832,1.5832,1.5832,1.5832,1.5832,1.5832,1.5832,1.5832,1.5832,1.5832,1.5832,1.5832,1.5872,1.6019,1.9636,1.917,1.8513,1.8266,1.7899,1.7302,1.615,1.5633,1.5261,1.4682,1.4878,1.5199,1.5199,1.6196,1.7179,1.7534,1.7544,1.7759,1.8776,1.8458,1.8321,0.0,1.929,1.9621,1.9991,2.0042,0.0,0.0,0.0,0.0,1.9183,1.8051,1.7219,1.6738,1.6675,1.6934,1.7383,1.7383,1.7559,1.791,1.791,1.791,1.791,1.791,1.7949,1.8008,0.0,0.0,1.8008,1.8008,1.8008,1.8008,1.8008,1.8008,1.8008,1.8008,1.8223,1.8535,1.8535,1.8809,1.9121,1.875,1.8887,1.9258,1.9687,1.9805,1.9902,2.0332,2.0449,2.0547,2.0996,2.1113,2.1211,2.1582,2.1719,2.1511,2.0458,1.8936,1.7699,1.7341,1.6409,1.5698,1.5752,1.5752,1.5765,1.5818,1.5832,1.5737,1.5534,1.4327,1.3058,1.2037,1.2909,1.368,1.3872,1.5045,1.5832,1.5832,1.5832,1.5832,1.5832,1.5832,1.5832,1.5832,1.5832,1.5832,1.5832,1.5832,1.5832,1.5832,1.6086,1.6219,1.8387,1.7997,1.7477,1.6773,1.6203,1.5636,1.5084,1.4596,1.4262,1.4266,1.4718,1.5091,1.5091,1.6276,1.7377,1.7835,1.79,1.8424,1.9891,1.9426,1.9168,2.0001,2.0106,1.9916,0.0,1.9533,0.0,0.0,0.0,0.0,1.8596,1.8014,1.7617,1.7402,1.7402,1.75,1.7715,1.7715,1.7812,1.8008,1.8008,1.8008,1.8008,1.8008,1.8008,1.8008,1.8008,0.0,1.8008,1.8008,1.8144,1.834,1.834,1.8477,1.8672,1.8672,1.8809,1.8965,1.8965,1.9258,1.957,1.9375,1.9434,1.9687,2.0117,2.0254,2.0352,2.0781,2.0918,2.1016,2.1465,2.1562,2.1621,2.1836,2.1614,2.1193,2.0775,1.8921,1.7338,1.7338,1.6556,1.5832,1.5832,1.5832,1.5832,1.5832,1.5832,1.5832,1.5832,1.5248,1.4651,1.398,1.3884,1.4172,1.4854,1.5439,1.5832,1.5832,1.5832,1.5832,1.5832,1.5832,1.5832,1.5832,1.5832,1.5912,1.6059,1.6059,1.6139,1.6286,1.6433,1.658,1.6959,1.6641,1.6218,1.5171,1.4494,1.3994,1.399,1.3728,1.358,1.4145,1.4713,1.517,1.517,1.6254,1.7331,1.7861,1.8194,1.8908,2.0571,2.0281,2.0136,2.0874,2.0942,0.0,1.9375,1.9334,0.0,0.0,0.0,0.0,1.8027,1.8008,1.8008,1.8008,1.8008,1.8008,1.8008,1.8008,1.8008,1.8008,1.8008,1.8008,1.8008,1.8008,1.8008,1.8008,1.8105,0.0,0.0,1.8242,1.8477,1.8769,1.8769,1.8984,1.9297,1.9297,1.9336,1.9434,1.9434,1.9766,2.0195,2.0195,2.0195,2.0254,2.0605,2.0781,2.0918,2.1269,2.1367,2.1484,2.1914,2.2031,2.2051,2.2129,2.1256,2.0571,2.0873,1.9039,1.7311,1.7311,1.648,1.5832,1.5832,1.5832,1.5832,1.5832,1.5832,1.5832,1.5832,1.5832,1.5832,1.5832,1.4854,1.4758,1.5724,1.5832,1.5832,1.5832,1.5832,1.5832,1.5832,1.5832,1.5858,1.5925,1.5925,1.6072,1.6366,1.6366,1.6486,1.67,1.6767,1.6927,1.568,1.4857,1.3871,1.3233,1.2731,1.2456,1.2635,1.3168,1.381,1.4596,1.5076,1.5351,1.5351,1.5525,1.5861,1.671,1.7199,1.7947,1.9258,1.9698,1.9934,2.0009,0.0,0.0,1.9344,1.9305,0.0,0.0,0.0,0.0,0.0,1.8008,1.8008,1.8008,1.8008,1.8008,1.8008,1.8008,1.8008,1.8008,1.8008,1.8008,1.8008,1.8008,1.8008,1.8027,0.0,0.0,0.0,1.9004,1.9199,1.9238,1.9238,1.9258,1.9297,1.9297,1.9531,1.9863,1.9863,2.041,2.1113,2.1113,2.1113,2.1113,2.1152,2.1445,2.1777,2.1816,2.1836,2.1934,2.2344,2.2461,2.2559,2.293,2.123,1.9629,1.9662,1.7762,1.6021,1.6021,1.5927,1.5832,1.5832,1.5832,1.5832,1.5832,1.5832,1.5832,1.5832,1.5832,1.5832,1.5832,1.5737,1.5629,1.5832,1.5832,1.5832,1.5832,1.5832,1.5832,1.5832,1.5832,1.5952,1.6233,1.6233,1.638,1.666,1.666,1.6687,1.6714,1.6981,1.7128,1.4103,1.3496,1.2957,1.2085,1.1488,1.142,1.2822,1.3063,1.3402,1.4869,1.5293,1.541,1.541,1.541,1.5703,1.6582,1.6875,1.7539,1.9082,1.9648,2.0,2.0273,2.0312,0.0,0.0,0.0,0.0,0.0,0.0,0.0,0.0,1.8769,1.8769,1.8769,1.8769,1.8769,1.8769,1.8769,1.8769,1.8769,1.8769,1.8769,1.8769,1.8769,1.8769,1.8789,0.0,0.0,0.0,1.9219,1.9434,1.9668,1.9668,1.9824,2.0059,2.0059,2.0156,2.0352,2.0625,2.0937,2.1269,2.1543,2.1797,2.1953,2.1699,2.1758,2.1934,2.2187,2.2266,2.2363,2.2773,2.2891,2.2756,2.2171,2.0764,1.9314,1.8596,1.703,1.5832,1.5832,1.5832,1.5832,1.5832,1.5832,1.5832,1.5832,1.5832,1.5832,1.5832,1.5832,1.5832,1.5832,1.5832,1.5832,1.5832,1.5832,1.5832,1.5832,1.5992,1.6099,1.6099,1.6259,1.642,1.6526,1.6526,1.6673,1.6967,1.6967,1.7061,1.7235,1.7542,1.8204,1.3026,1.2494,1.2024,1.1426,1.0994,1.1267,1.3038,1.3362,1.3661,1.5138,1.541,1.541,1.541,1.5508,1.5859,1.6602,1.7051,1.7852,1.9453,2.0137,2.0664,2.1094,0.0,0.0,0.0,0.0,0.0,0.0,0.0,0.0,0.0,1.9668,1.9551,1.9297,1.9297,1.9297,1.9297,1.9297,1.9297,1.9297,1.9297,1.9297,1.9297,1.9297,1.9297,1.9297,0.0,0.0,0.0,1.9609,1.9844,2.0117,2.0117,2.0371,2.0762,2.0762,2.084,2.0996,2.1328,2.1504,2.166,2.1973,2.2363,2.2637,2.2344,2.2246,2.2324,2.2617,2.2695,2.2754,2.3066,2.3144,2.2862,2.2031,2.0944,1.977,1.8948,1.7483,1.6386,1.6386,1.6008,1.5858,1.5939,1.5965,1.5992,1.6072,1.6086,1.6086,1.6086,1.6086,1.6086,1.6086,1.6086,1.6046,1.5965,1.5965,1.5992,1.6086,1.6286,1.6393,1.6393,1.6593,1.674,1.6834,1.6834,1.6981,1.7275,1.7368,1.7515,1.7729,1.8036,1.9283,1.2806,1.1847,1.0795,1.1005,1.1571,1.2181,1.287,1.3952,1.4989,1.5312,1.541,1.541,1.541,1.5762,1.6211,1.666,1.7726,1.9062,2.0371,2.1309,2.2031,0.0,0.0,2.2168,0.0,0.0,0.0,0.0,0.0,0.0,0.0,2.0547,2.0156,1.9316,1.9297,1.9297,1.9297,1.9297,1.9297,1.9297,1.9297,1.9297,1.9297,1.9297,1.9297,0.0,0.0,0.0,0.0,2.0371,2.0547,2.0566,2.0566,2.084,2.123,2.123,2.1504,2.1875,2.1875,2.2148,2.25,2.25,2.2793,2.3125,2.3125,2.3125,2.3125,2.3125,2.3125,2.3125,2.3144,2.3144,2.3144,2.3057,2.212,2.1302,2.1302,1.9405,1.7684,1.7684,1.6669,1.5925,1.6219,1.6273,1.6366,1.666,1.67,1.67,1.67,1.67,1.67,1.67,1.67,1.658,1.6299,1.6273,1.6393,1.6673,1.67,1.67,1.67,1.67,1.6847,1.7141,1.7141,1.7288,1.7582,1.7889,1.8036,1.805,1.8343,2.0259,1.1543,1.1076,1.0653,1.0439,1.1221,1.2197,1.2826,1.3969,1.5081,1.5759,1.5859,1.5957,1.625,1.6426,1.6855,1.7871,1.8379,1.9199,2.0801,2.1523,0.0,2.2461,2.2519,0.0,0.0,0.0,0.0,0.0,0.0,0.0,0.0,0.0,2.0449,2.0176,2.0156,2.0156,2.0156,2.0156,2.0156,2.0156,2.0156,2.0156,2.0156,2.0156,0.0,0.0,0.0,0.0,0.0,2.0508,2.0742,2.1016,2.1016,2.1289,2.168,2.168,2.1758,2.1934,2.2207,2.2402,2.2559,2.2852,2.3027,2.3144,2.3144,2.3144,2.3144,2.3144,2.3144,2.3144,2.3144,2.3144,2.2862,2.2031,2.0944,1.9928,1.9252,1.7823,1.676,1.6967,1.6715,1.646,1.6553,1.6567,1.6607,1.6687,1.67,1.67,1.67,1.67,1.67,1.67,1.67,1.6673,1.658,1.6567,1.6607,1.67,1.6901,1.7007,1.7007,1.7194,1.7448,1.7756,1.7769,1.7903,1.821,1.8303,1.8988,2.0259,2.1338,2.3092,1.1368,1.0872,1.0629,1.0564,1.1585,1.2774,1.3427,1.4575,1.5751,1.6247,1.6309,1.6406,1.668,1.6875,1.7285,1.8242,1.8809,1.9609,2.1035,2.1738,0.0,2.2695,0.0,0.0,0.0,0.0,0.0,0.0,0.0,0.0,0.0,0.0,2.082,2.082,2.0664,2.0566,2.0566,2.0742,2.082,2.082,2.0977,2.1074,2.1074,2.1074,0.0,0.0,0.0,0.0,0.0,2.1074,2.123,2.1484,2.1484,2.1738,2.2129,2.2129,2.2227,2.2402,2.2656,2.2754,2.2793,2.3047,2.3144,2.3144,2.3144,2.3144,2.3144,2.3144,2.3144,2.3144,2.3144,2.3144,2.2989,2.2415,2.1626,2.0915,1.989,1.8728,1.7833,1.7442,1.7,1.674,1.686,1.6874,1.6914,1.7021,1.7034,1.7034,1.7034,1.7034,1.7034,1.7034,1.7034,1.7034,1.7034,1.6941,1.6914,1.7034,1.7315,1.7488,1.7488,1.7769,1.8023,1.821,1.8741,1.915,1.9346,1.9458,2.01,2.1399,2.2401,2.3805,0.0,1.1185,1.0688,1.1236,1.2497,1.3816,1.4328,1.5674,0.0,1.6777,1.6777,1.6816,1.6894,1.7227,1.7656,1.8203,1.9258,2.0332,2.125,2.2051,0.0,0.0,0.0,0.0,0.0,0.0,0.0,0.0,0.0,0.0,0.0,0.0,2.1289,2.1289,2.0879,2.0664,2.0664,2.1074,2.1289,2.1289,2.1699,2.1894,2.1894,2.1894,0.0,0.0,0.0,0.0,0.0,2.1894,2.1894,2.1934,2.1934,2.2187,2.2559,2.2559,2.2812,2.3144,2.3144,2.3144,2.3144,2.3144,2.3144,2.3144,2.3144,2.3144,2.3144,2.3144,2.3164,2.3184,2.3184,2.3203,2.334,2.375,2.3738,2.3491,2.2662,2.1483,2.0232,1.9011,1.774,1.7049,1.7333,1.7284,1.7275,1.7542,1.7582,1.7582,1.7582,1.7582,1.7582,1.7582,1.7609,1.7609,1.7609,1.7368,1.7328,1.7595,1.7903,1.8076,1.8076,1.8453,1.8712,1.8739,2.0128,2.0891,2.0891,2.1209,2.1541,2.1957,2.2406,2.3368,1.1367,0.0,1.0658,1.0728,1.2462,1.4063,0.0,1.5624,1.7227,1.7227,1.7227,1.7519,1.8496,1.8496,1.8926,2.0684,2.0937,2.1348,2.2519,0.0,0.0,0.0,0.0,0.0,0.0,0.0,0.0,0.0,0.0,0.0,0.0,0.0,2.1738,2.1738,2.1621,2.1582,2.1582,2.168,2.1738,2.1738,2.1836,2.1894,2.1894,2.1894,0.0,0.0,0.0,0.0,2.1894,2.1894,2.207,2.2363,2.2363,2.2617,2.2988,2.2988,2.3047,2.3144,2.3144,2.3144,2.3144,2.3144,2.3144,2.3144,2.3144,2.3144,2.3144,2.3144,2.3379,2.3633,2.3633,2.3867,2.4141,2.4238,2.3502,2.2868,2.2871,2.1862,2.1065,2.0945,1.9898,1.892,1.8993,1.8192,1.7502,1.7569,1.7582,1.7582,1.7582,1.7582,1.7582,1.7582,1.7796,1.7943,1.7943,1.7876,1.7862,1.7929,1.8223,1.8384,1.8384,1.9509,2.0296,2.0545,2.2229,2.3021,2.3021,2.3488,2.4265,2.5509,2.5874,2.6978,1.1245,1.1076,1.133,1.1992,1.323,1.4564,1.5119,1.6363,1.7441,1.7637,1.7812,1.8223,1.9121,1.9258,1.9875,2.2009,2.1868,2.1914,0.0,0.0,2.3144,0.0,0.0,0.0,0.0,0.0,0.0,0.0,0.0,0.0,0.0,0.0,2.2168,2.2168,2.2363,2.2266,2.1894,2.207,2.2168,2.2168,2.2363,2.2461,2.2461,2.2461,0.0,0.0,0.0,0.0,2.2461,2.2461,2.2598,2.2793,2.2793,2.2949,2.3144,2.3144,2.3144,2.3144,2.3144,2.3144,2.3144,2.3144,2.3144,2.3184,2.3379,2.3437,2.3437,2.3437,2.375,2.4082,2.4082,2.4238,2.4473,2.4668,2.4239,2.3463,2.2582,2.186,2.1111,1.9994,1.9213,1.8708,1.8708,1.8094,1.7582,1.7582,1.7689,1.7782,1.7796,1.7916,1.7996,1.7996,1.8156,1.825,1.825,1.837,1.8604,1.9203,1.9594,1.9764,1.9653,2.1304,2.264,2.3661,2.4658,2.5517,2.6475,2.6014,2.6232,2.6929,2.7441,2.81,1.1622,1.1929,1.2639,1.3517,1.4299,1.5204,1.6705,1.7248,1.7598,1.8027,1.8437,1.8906,1.9473,2.0072,2.1028,2.2766,0.0,0.0,2.3242,2.3281,2.3242,0.0,0.0,0.0,0.0,0.0,0.0,0.0,0.0,0.0,0.0,0.0,0.0,2.2617,2.2949,2.2793,2.209,2.2441,2.2617,2.2617,2.2969,2.3144,2.3144,2.3144,0.0,0.0,0.0,0.0,2.3144,2.3144,2.3144,2.3144,2.3144,2.3144,2.3144,2.3144,2.3144,2.3144,2.3144,2.3184,2.3242,2.3242,2.3281,2.3398,2.3769,2.3926,2.3984,2.3984,2.4238,2.4512,2.4512,2.457,2.4707,2.5078,2.5176,2.4679,2.2767,2.2451,2.1656,1.915,1.8548,1.8337,1.8126,1.7822,1.7716,1.7716,1.7929,1.809,1.8116,1.833,1.8601,1.8809,1.885,1.8988,1.9195,1.9472,2.0186,2.1418,2.1349,2.1532,2.1896,2.3406,2.5207,2.7085,2.7085,2.794,2.957,2.8351,2.7801,2.7801,2.8223,2.8407,1.3434,1.4276,1.4667,1.3399,1.4745,1.645,1.6283,1.7109,1.8027,1.8457,1.8887,1.9551,2.0723,2.2127,2.3225,0.0,0.0,2.4062,0.0,0.0,0.0,0.0,0.0,0.0,0.0,0.0,0.0,0.0,0.0,0.0,0.0,0.0,0.0,2.3047,2.3105,2.3086,2.2949,2.3008,2.3047,2.3047,2.3105,2.3144,2.3144,2.3144,2.3144,0.0,0.0,2.3144,2.3144,2.3144,2.3144,2.3144,2.3144,2.3144,2.3144,2.3144,2.3144,2.3144,2.3144,2.3379,2.3691,2.3691,2.3926,2.4238,2.4297,2.459,2.4863,2.4863,2.4922,2.4961,2.4961,2.5254,2.5547,2.5625,2.5644,2.5645,2.5676,2.5653,2.5245,2.3982,2.2673,2.1522,2.0249,1.9083,1.8357,1.8357,1.8384,1.8424,1.8424,1.8464,1.903,2.0179,2.0648,2.1254,2.2557,2.2878,2.3706,2.5195,2.2927,2.2877,2.5663,2.6087,2.7215,2.9119,2.9119,2.9269,2.957,2.9695,2.9736,2.9756,3.0219,3.0412,1.395,1.5445,1.6615,1.5829,1.7002,1.8373,1.8788,1.9101,1.9453,1.9629,2.0527,2.1471,2.2249,2.4019,2.5204,2.516,0.0,0.0,0.0,0.0,0.0,0.0,0.0,0.0,0.0,0.0,0.0,0.0,0.0,0.0,0.0,0.0,0.0,0.0,2.3144,2.3144,2.3144,2.3144,2.3144,2.3144,2.3144,2.3144,2.3144,2.3144,2.3144,2.3144,0.0,2.3144,2.3144,2.3144,2.3144,2.3144,2.3144,2.3144,2.3144,2.3144,2.3144,2.3184,2.3418,2.3633,2.3828,2.4043,2.4258,2.4453,2.4687,2.4902,2.5176,2.5644,2.5781,2.5781,2.5781,2.6094,2.6426,2.6426,2.6426,2.6265,2.5729,2.5665,2.5293,2.3983,2.3279,2.2642,2.1894,2.1248,2.0831,2.0831,2.0997,2.1103,2.1103,2.1254,2.1582,2.234,2.2482,2.291,2.3574,2.3723,2.4573,2.637,2.513,2.5527,2.8108,2.7435,2.7957,2.9902,2.9902,3.0039,3.0273,3.0469,3.0566,3.0586,3.0801,3.0898,1.4696,1.6351,1.8115,1.8543,1.921,1.9944,2.0876,2.0742,2.0546,2.1053,2.2117,2.3281,2.3887,2.5404,0.0,2.6818,0.0,0.0,0.0,0.0,0.0,0.0,0.0,0.0,0.0,0.0,0.0,0.0,0.0,0.0,0.0,0.0,0.0,0.0,2.3144,2.3144,2.3144,2.3144,2.3144,2.3144,2.3144,2.3144,2.3144,2.3144,2.3144,2.3144,2.3144,2.3144,2.3144,2.3144,2.3144,2.3144,2.3144,2.3144,2.3144,2.3144,2.3203,2.334,2.3672,2.3926,2.4141,2.4453,2.4648,2.4785,2.5117,2.5293,2.5508,2.6191,2.6543,2.666,2.6562,2.6777,2.7012,2.7012,2.7012,2.6724,2.5852,2.5644,2.5245,2.3943,2.3319,2.3104,2.3104,2.2781,2.2673,2.3104,2.3353,2.3519,2.3519,2.3723,2.4066,2.4401,2.4597,2.476,2.5095,2.5207,2.5828,2.7361,2.7418,2.8127,2.9707,2.8653,2.8747,3.0351,3.0351,3.0527,3.0898,3.0898,3.0898,3.0898,3.0898,3.0898,1.6374,1.7479,1.8893,2.0562,2.0391,2.0041,2.0527,2.0273,2.048,2.2366,2.3124,2.3908,2.5347,2.5936,2.6615,2.8165,0.0,0.0,0.0,0.0,0.0,0.0,0.0,0.0,0.0,0.0,0.0,0.0,0.0,0.0,0.0,0.0,0.0,0.0,0.0,2.3144,2.3144,2.3144,2.3144,2.3144,2.3144,2.3144,2.3144,2.3144,2.3144,2.3144,2.3144,2.3144,2.3144,2.3144,2.3144,2.3144,2.3144,2.3144,2.3144,2.3144,2.3398,2.375,2.3769,2.4316,2.498,2.5,2.5312,2.5644,2.5684,2.5977,2.6309,2.6367,2.6953,2.748,2.707,2.6992,2.7012,2.7012,2.7012,2.7129,2.7415,2.7513,2.719,2.61,2.4734,2.3739,2.3739,2.2623,2.2189,2.3517,2.3772,2.3789,2.3789,2.4215,2.5014,2.6381,2.6834,2.7618,2.9007,2.9119,2.9424,2.9964,2.9614,2.9595,3.0137,3.0023,3.0256,3.084,3.084,3.0859,3.0898,3.0898,3.0898,3.0898,3.0898,3.0898,1.6655,1.8024,1.9583,2.0586,2.1489,2.2066,2.1824,2.2391,2.3185,2.3948,2.5282,2.6863,2.8467,0.0,2.7996,2.8544,0.0,0.0,0.0,0.0,0.0,0.0,0.0,0.0,0.0,0.0,0.0,0.0,0.0,0.0,0.0,0.0,0.0,0.0,0.0,2.3144,2.3144,2.3144,2.3144,2.3144,2.3144,2.3144,2.3144,2.3144,2.3144,2.3144,2.3144,2.3144,2.3144,2.3144,2.3144,2.3144,2.3144,2.3144,2.3184,2.3437,2.3652,2.3867,2.4394,2.4785,2.5117,2.5391,2.5781,2.6133,2.6133,2.6445,2.6836,2.7109,2.7422,2.7637,2.7461,2.7617,2.7812,2.7812,2.7812,2.7851,2.8008,2.8047,2.798,2.758,2.6952,2.6608,2.6608,2.6354,2.6295,2.6866,2.7197,2.7363,2.7363,2.7604,2.794,2.8407,2.8652,2.8991,2.957,2.9805,3.0019,3.0176,3.0059,3.0156,3.0605,3.0625,3.0703,3.0879,3.0898,3.0898,3.0898,3.0898,3.0898,3.0898,3.0898,3.0898,1.7305,1.8809,2.0468,2.1151,2.269,2.3906,2.3597,2.4367,2.5268,2.5753,2.736,2.8968,3.0124,0.0,0.0,0.0,0.0,0.0,0.0,0.0,0.0,0.0,0.0,0.0,0.0,0.0,0.0,0.0,0.0,0.0,0.0,0.0,0.0,0.0,0.0,0.0,2.3144,2.3144,2.3144,2.3144,2.3144,2.3144,2.3144,2.3144,2.3144,2.3144,2.3144,2.3144,2.3144,2.3281,2.3418,2.3535,2.3535,2.3535,2.3574,2.3867,2.4082,2.4277,2.4863,2.5156,2.5352,2.5801,2.6152,2.6406,2.6543,2.6875,2.7285,2.7578,2.7754,2.7891,2.8027,2.8184,2.8301,2.8301,2.8398,2.8496,2.8496,2.8594,2.8691,2.8691,2.8346,2.8128,2.8583,2.8487,2.855,2.9011,2.9375,2.957,2.957,2.9687,2.9824,2.998,2.998,2.998,2.998,3.0254,3.041,3.041,3.041,3.0566,3.0879,3.0898,3.0898,3.0898,3.0898,3.0898,3.0898,3.0898,3.0898,3.0898,3.0898,3.0898,1.8516,1.9902,2.1471,2.2595,2.3942,2.5187,2.5694,2.5824,2.628,2.7829,2.9028,2.9804,2.9804,2.861,0.0,0.0,0.0,0.0,0.0,0.0,0.0,0.0,0.0,0.0,0.0,0.0,0.0,0.0,0.0,0.0,0.0,0.0,0.0,0.0,0.0,0.0,2.3144,2.3144,2.3144,2.3144,2.3144,2.3144,2.3144,2.3144,2.3144,2.3144,2.3144,2.3144,2.3184,2.3613,2.4043,2.4414,2.4414,2.4414,2.4414,2.4414,2.4687,2.5059,2.5078,2.5371,2.5801,2.625,2.6387,2.6465,2.6894,2.7324,2.7676,2.7676,2.7969,2.8398,2.8809,2.8613,2.8301,2.8301,2.8633,2.8926,2.8926,2.9258,2.957,2.957,2.8408,2.7823,2.9346,2.8295,2.7823,2.9346,2.959,2.959,2.959,2.9941,3.0371,3.084,3.0898,3.0898,3.0898,3.0898,3.0898,3.0898,3.0898,3.0898,3.0898,3.0898,3.0898,3.0898,3.0898,3.0898,3.0898,3.0898,3.0898,3.0898,3.0898,3.0898,1.9192,2.0751,2.2673,2.3656,2.5848,2.7671,2.7485,2.773,2.8184,2.9077,2.9546,2.9804,2.9804,0.0,0.0,0.0,0.0,0.0,0.0,0.0,0.0,0.0,0.0,0.0,0.0,0.0,0.0,0.0,0.0,0.0,0.0,0.0,0.0,0.0,0.0,0.0,2.3144,2.3144,2.3144,2.3144,2.3144,2.3144,2.3144,2.3144,2.3144,2.3144,2.3144,2.3144,2.3184,2.3613,2.4043,2.4414,2.4414,2.4414,2.4453,2.4766,2.4961,2.5117,2.543,2.5625,2.5801,2.625,2.6582,2.6914,2.7344,2.7773,2.8105,2.8105,2.8398,2.8769,2.8887,2.9062,2.9199,2.9199,2.9277,2.9375,2.9375,2.9473,2.957,2.957,2.9215,2.9103,2.957,2.9466,2.9545,2.9886,3.0293,3.0508,3.0508,3.0605,3.0742,3.0879,3.0898,3.0898,3.0898,3.0898,3.0898,3.0898,3.0898,3.0898,3.0898,3.0898,3.0898,3.0898,3.0898,3.0898,3.0898,3.0898,3.0898,3.0898,3.0898,3.0898,2.1446,2.3057,2.4588,2.5607,2.7378,2.8961,2.9076,2.918,2.934,2.9699,2.9804,2.9624,2.9184,2.7789,0.0,0.0,0.0,0.0,0.0,0.0,0.0,0.0,0.0,0.0,0.0,0.0,0.0,0.0,0.0,0.0,0.0,0.0,0.0,0.0,0.0,0.0,2.3144,2.3144,2.3144,2.3144,2.3144,2.3144,2.3144,2.3144,2.3144,2.3144,2.332,2.3496,2.3672,2.4121,2.4551,2.4941,2.4941,2.4941,2.498,2.5234,2.5332,2.5371,2.5644,2.5859,2.6074,2.6504,2.6934,2.7344,2.7773,2.8203,2.8535,2.8535,2.8848,2.9219,2.9375,2.9629,2.9785,2.9609,2.9687,2.9824,2.9824,2.9961,3.0098,3.0098,3.0098,3.0098,3.0098,3.0312,3.0469,3.0469,3.0703,3.0898,3.0898,3.0898,3.0898,3.0898,3.0898,3.0898,3.0898,3.0898,3.0898,3.0898,3.0898,3.0898,3.0898,3.0898,3.0898,3.0898,3.0898,3.0898,3.0898,3.0898,3.0898,3.0898,3.1055,3.1133,2.461,2.5871,2.6826,2.7956,2.8578,2.9253,3.0343,3.0181,2.9804,2.9804,0.0,2.9443,2.8347,0.0,0.0,0.0,0.0,0.0,0.0,0.0,0.0,0.0,0.0,0.0,0.0,0.0,0.0,0.0,0.0,0.0,0.0,0.0,0.0,0.0,0.0,0.0,2.3144,2.3144,2.3144,0.0,2.3144,2.3164,2.3203,2.3164,2.3164,2.3223,2.3613,2.4043,2.4512,2.4902,2.5332,2.5742,2.5742,2.5742,2.5742,2.5742,2.5742,2.5742,2.5781,2.6055,2.6465,2.6934,2.7344,2.7754,2.8164,2.8594,2.8926,2.8926,2.9258,2.9707,3.0098,3.0234,3.0156,2.9785,2.998,3.0254,3.0254,3.0586,3.0898,3.0898,3.0898,3.0898,3.0898,3.0898,3.0898,3.0898,3.0898,3.0898,3.0898,3.0898,3.0898,3.0898,3.0898,3.0898,3.0898,3.0898,3.0898,3.0898,3.0898,3.0898,3.0898,3.0898,3.0898,3.0898,3.0898,3.0898,3.0898,3.0937,3.0937,3.0957,3.1387,3.1582,2.4891,2.6245,2.7513,2.8467,2.9195,2.9742,3.0428,3.0181,2.9804,2.9804,2.9804,2.9443,0.0,0.0,0.0,0.0,0.0,0.0,0.0,0.0,0.0,0.0,0.0,0.0,0.0,0.0,0.0,0.0,0.0,0.0,0.0,0.0,0.0,0.0,0.0,2.3144,2.3144,2.3144,2.3144,0.0,2.3144,2.332,2.3633,2.3301,2.332,2.3652,2.375,2.4219,2.4941,2.5019,2.5332,2.5742,2.5742,2.5742,2.5742,2.5742,2.5742,2.5781,2.6133,2.6309,2.6523,2.7285,2.7598,2.7754,2.8164,2.8594,2.8926,2.8926,2.9473,3.0078,3.0176,3.0469,3.0723,3.0625,3.0684,3.0742,3.0742,3.082,3.0898,3.0898,3.0898,3.0898,3.0898,3.0898,3.0898,3.0898,3.0898,3.0898,3.0898,3.0898,3.0898,3.0898,3.0898,3.0898,3.0898,3.0898,3.0898,3.0898,3.0898,3.0898,3.0898,3.0898,3.0898,3.0898,3.0898,3.0898,3.0898,3.123,3.1387,3.1387,3.1836,3.2031,2.6262,2.7557,2.8688,2.9174,2.9578,2.9854,3.0156,3.0005,2.9624,2.9106,2.9028,2.8688,0.0,0.0,0.0,0.0,0.0,0.0,0.0,0.0,0.0,0.0,0.0,0.0,0.0,0.0,0.0,0.0,0.0,0.0,0.0,0.0,0.0,0.0,2.3144,2.3144,2.3144,2.334,2.3457,2.3457,2.3652,2.3867,2.4082,2.3848,2.3867,2.4102,2.4316,2.4648,2.5078,2.5293,2.5527,2.5742,2.5742,2.5859,2.6055,2.6055,2.6172,2.6387,2.6602,2.6816,2.707,2.7519,2.793,2.8301,2.8516,2.9043,2.9531,2.9531,3.0019,3.0527,3.0527,3.0703,3.0898,3.0898,3.0898,3.0898,3.0898,3.0898,3.0898,3.0898,3.0898,3.0898,3.0898,3.0898,3.0898,3.0898,3.0898,3.0898,3.0898,3.0898,3.0898,3.0898,3.0898,3.0898,3.0898,3.0898,3.0898,3.0898,3.1074,3.1191,3.1191,3.1387,3.1406,3.1191,3.1191,3.1289,3.1504,3.1719,3.1836,3.1836,3.2266,3.248,2.7204,2.8574,2.9553,2.9754,2.9804,2.9804,2.9804,2.9804,2.9443,2.8347,2.8084,0.0,0.0,0.0,0.0,0.0,0.0,0.0,0.0,0.0,0.0,0.0,0.0,0.0,0.0,0.0,0.0,0.0,0.0,0.0,0.0,0.0,2.3184,2.3242,2.3242,2.3281,2.3359,2.3711,2.3906,2.3906,2.4336,2.4531,2.4531,2.4609,2.4609,2.4551,2.4922,2.5117,2.5215,2.5586,2.5742,2.5742,2.582,2.6074,2.6406,2.6465,2.6719,2.7031,2.7109,2.7363,2.7695,2.7832,2.8359,2.8926,2.9004,2.957,3.0195,3.0195,3.0527,3.0898,3.0898,3.0898,3.0898,3.0898,3.0898,3.0898,3.0898,3.0898,3.0898,3.0898,3.0898,3.0898,3.0898,3.0898,3.0898,3.0898,3.0898,3.0898,3.0898,3.0898,3.0898,3.0898,3.0898,3.0918,3.0996,3.0996,3.1035,3.1113,3.1445,3.1621,3.1621,3.1973,3.2031,3.1738,3.166,3.1816,3.2168,3.2246,3.2285,3.2285,3.2715,3.2949,2.5887,2.7118,2.8574,2.9553,2.9804,2.9804,2.9804,2.9804,2.9443,0.0,0.0,0.0,0.0,0.0,0.0,0.0,0.0,0.0,0.0,0.0,0.0,0.0,0.0,0.0,0.0,0.0,0.0,0.0,0.0,0.0,0.0,2.3144,2.332,2.3691,2.3711,2.3867,2.4238,2.4297,2.4336,2.4336,2.4766,2.498,2.5,2.5391,2.5352,2.498,2.5039,2.5293,2.5644,2.5723,2.5742,2.5781,2.6152,2.6328,2.6426,2.6797,2.6973,2.707,2.7441,2.7617,2.7793,2.8516,2.8828,2.8984,2.9375,2.9824,3.0195,3.0195,3.0527,3.0898,3.0898,3.0898,3.0898,3.0898,3.0898,3.0898,3.0898,3.0898,3.0898,3.0898,3.0898,3.0898,3.0898,3.0898,3.0898,3.0898,3.0898,3.0898,3.0898,3.0898,3.0898,3.0898,3.0898,3.1035,3.1406,3.1426,3.1601,3.1973,3.2051,3.209,3.209,3.2148,3.2305,3.2617,3.2266,3.2109,3.2168,3.2539,3.2715,3.2715,3.3144,3.3535,2.6666,2.777,2.8775,2.9578,2.9804,2.9804,2.9804,2.9287,2.853,2.7441,0.0,0.0,0.0,0.0,0.0,0.0,0.0,0.0,0.0,0.0,0.0,0.0,0.0,0.0,0.0,0.0,0.0,0.0,0.0,0.0,2.3144,2.3379,2.3594,2.3789,2.4023,2.4238,2.4414,2.4668,2.4902,2.5156,2.5352,2.5449,2.5449,2.5644,2.5625,2.5449,2.5449,2.5547,2.5742,2.5742,2.5879,2.6113,2.6309,2.668,2.7129,2.7305,2.7519,2.7754,2.7949,2.8164,2.8437,2.8809,2.9238,2.9668,2.9863,3.0234,3.0586,3.0586,3.0742,3.0898,3.0898,3.0898,3.0898,3.0898,3.0898,3.0898,3.0898,3.0898,3.0898,3.0898,3.0898,3.0898,3.0898,3.0898,3.0898,3.0898,3.0898,3.0898,3.0898,3.1094,3.1152,3.0918,3.1328,3.1582,3.1523,3.1738,3.1953,3.2148,3.2383,3.2519,3.2519,3.2734,3.2969,3.3144,3.2734,3.2637,3.2871,3.3066,3.3144,3.3144,3.334,3.3652,2.7118,2.8097,2.8674,2.9402,2.9779,2.9955,2.9829,0.0,2.7928,0.0,0.0,0.0,0.0,0.0,0.0,0.0,0.0,0.0,0.0,0.0,0.0,0.0,0.0,0.0,0.0,0.0,0.0,0.0,0.0,0.0,2.3144,2.3555,2.3848,2.3945,2.4355,2.4629,2.4746,2.5078,2.541,2.5742,2.5742,2.5742,2.5742,2.5742,2.5742,2.5742,2.5742,2.5742,2.5742,2.5742,2.5996,2.6406,2.6504,2.7012,2.7676,2.7793,2.8027,2.8301,2.8418,2.8652,2.8945,2.918,2.9668,3.0215,3.0332,3.0605,3.0898,3.0898,3.0898,3.0898,3.0898,3.0898,3.0898,3.0898,3.0898,3.0898,3.0898,3.0898,3.0898,3.0898,3.0898,3.0898,3.0898,3.0898,3.0898,3.0898,3.0898,3.0937,3.1035,3.1328,3.1445,3.123,3.1777,3.207,3.1855,3.2148,3.2383,3.248,3.2793,3.2949,3.2949,3.3262,3.3418,3.3418,3.3105,3.3105,3.3418,3.3535,3.3594,3.3594,3.3691,3.3984,2.6088,2.6942,2.762,2.8699,2.9779,3.0432,2.9905,0.0,0.0,0.0,0.0,0.0,0.0,0.0,0.0,0.0,0.0,0.0,0.0,0.0,0.0,0.0,0.0,0.0,0.0,0.0,0.0,0.0,0.0,0.0,2.3144,2.3555,2.3965,2.4375,2.4805,2.5234,2.5664,2.5684,2.5723,2.5742,2.5742,2.5742,2.5742,2.5742,2.5742,2.5742,2.5742,2.5742,2.5742,2.5742,2.5996,2.6426,2.6836,2.7266,2.7715,2.8105,2.8281,2.834,2.875,2.8906,2.9062,2.9863,3.0156,3.0273,3.0723,3.0879,3.0898,3.0898,3.0898,3.0898,3.0898,3.0898,3.0898,3.0898,3.0898,3.0898,3.0898,3.0898,3.0898,3.0898,3.0898,3.0898,3.0898,3.0898,3.0898,3.0898,3.0898,3.1035,3.1426,3.1504,3.166,3.2051,3.2148,3.2324,3.2695,3.2754,3.293,3.332,3.3379,3.3379,3.3379,3.3418,3.3418,3.3418,3.3398,3.3398,3.3418,3.3828,3.4043,3.4043,3.4453,3.4883,2.5661,2.6124,2.6603,2.7621,2.7687,2.7542,2.7683,2.6926,2.6078,0.0,0.0,0.0,0.0,0.0,0.0,0.0,0.0,0.0,0.0,0.0,0.0,0.0,0.0,0.0,0.0,0.0,0.0,0.0,0.0,0.0,2.3144,2.3809,2.4258,2.4414,2.5117,2.5566,2.5742,2.5742,2.5742,2.5742,2.5742,2.5742,2.5742,2.5742,2.5742,2.5762,2.6035,2.6152,2.6152,2.6152,2.6562,2.7226,2.7363,2.7695,2.8086,2.8242,2.8457,2.8711,2.8867,2.9277,2.9785,3.0098,3.0391,3.0664,3.084,3.0898,3.0898,3.0898,3.0898,3.0898,3.0898,3.0898,3.0898,3.0898,3.0898,3.0898,3.0898,3.0898,3.0898,3.0898,3.0898,3.0898,3.0898,3.0898,3.0898,3.0898,3.1113,3.1348,3.1504,3.1992,3.2285,3.2187,3.2656,3.293,3.2812,3.3047,3.3262,3.3418,3.3691,3.3848,3.3848,3.4101,3.4238,3.4238,3.4238,3.3965,3.3418,3.3867,3.4082,3.4082,3.4512,3.4941,2.4748,2.5037,2.5499,2.6287,2.6279,2.6138,2.6393,2.576,2.5061,0.0,0.0,0.0,0.0,0.0,0.0,0.0,0.0,0.0,0.0,0.0,0.0,0.0,0.0,0.0,0.0,0.0,0.0,0.0,0.0,0.0,2.3359,2.4023,2.4551,2.4844,2.543,2.5742,2.5742,2.5742,2.5742,2.5742,2.5742,2.5742,2.5742,2.5898,2.5957,2.5977,2.6406,2.6523,2.6406,2.6543,2.7012,2.7676,2.7676,2.793,2.8301,2.8301,2.8555,2.8945,2.9082,2.9609,3.0215,3.0371,3.0644,3.0898,3.0898,3.0898,3.0898,3.0898,3.0898,3.0898,3.0898,3.0898,3.0898,3.0898,3.0898,3.0898,3.0898,3.0898,3.0898,3.0898,3.0898,3.0898,3.0898,3.0898,3.0937,3.1074,3.1348,3.1621,3.1914,3.2441,3.2734,3.2598,3.3086,3.3301,3.3027,3.3262,3.3496,3.3633,3.3906,3.4141,3.4277,3.4551,3.4707,3.4707,3.4707,3.4414,3.3848,3.4297,3.4512,3.4531,3.4941,3.5312,0.0,0.0,0.0,2.477,2.5699,0.0,2.6356,0.0,0.0,0.0,0.0,0.0,0.0,0.0,0.0,0.0,0.0,0.0,0.0,0.0,0.0,0.0,0.0,0.0,0.0,0.0,0.0,0.0,0.0,2.334,2.3769,2.4199,2.4844,2.5703,2.5742,2.5742,2.5742,2.5742,2.5742,2.5742,2.5742,2.5762,2.5781,2.6211,2.6406,2.6426,2.6855,2.6797,2.6465,2.6875,2.7285,2.7676,2.7676,2.793,2.8301,2.8301,2.8574,2.9004,2.9434,2.9863,3.0293,3.0742,3.0898,3.0898,3.0898,3.0898,3.0898,3.0898,3.0898,3.0898,3.0898,3.0898,3.0898,3.0898,3.0918,3.0918,3.0918,3.0918,3.0918,3.0898,3.0898,3.0898,3.0898,3.0898,3.1035,3.1445,3.1523,3.1836,3.2676,3.2812,3.2969,3.3379,3.3418,3.3418,3.3418,3.3437,3.3633,3.4043,3.4101,3.4297,3.4707,3.4726,3.4746,3.4746,3.4746,3.4746,3.4746,3.5176,3.5391,3.541,3.582,3.6016,2.3074,0.0,0.0,0.0,0.0,0.0,0.0,0.0,0.0,0.0,0.0,0.0,0.0,0.0,0.0,0.0,0.0,0.0,0.0,0.0,0.0,0.0,0.0,0.0,0.0,0.0,0.0,0.0,2.3437,2.3652,2.3789,2.4492,2.5156,2.5723,2.5742,2.5742,2.5742,2.5742,2.5742,2.5742,2.6055,2.6211,2.623,2.6641,2.6836,2.6875,2.7305,2.7422,2.7324,2.7441,2.7734,2.8125,2.8125,2.8184,2.832,2.8633,2.9023,2.9453,2.9883,3.0312,3.0723,3.0859,3.0898,3.0898,3.0898,3.0898,3.0898,3.0898,3.0898,3.0898,3.0898,3.0898,3.0957,3.1269,3.1348,3.1426,3.1758,3.1816,3.1641,3.1016,3.0898,3.0898,3.0898,3.0898,3.1035,3.1445,3.1777,3.2187,3.2734,3.3066,3.3301,3.3418,3.3418,3.3418,3.3418,3.3711,3.3945,3.4062,3.4668,3.5078,3.5195,3.5488,3.5644,3.5644,3.5644,3.5644,3.5644,3.5488,3.5391,3.541,3.582,3.6016,2.2666,0.0,0.0,0.0,0.0,0.0,0.0,2.2637,0.0,0.0,0.0,0.0,0.0,0.0,0.0,0.0,0.0,0.0,0.0,0.0,0.0,0.0,0.0,0.0,0.0,0.0,0.0,0.0,2.3809,2.4121,2.4316,2.498,2.5469,2.5723,2.5742,2.5742,2.5742,2.5742,2.582,2.6016,2.6269,2.6484,2.666,2.709,2.7285,2.7305,2.7734,2.793,2.793,2.8125,2.8223,2.832,2.8476,2.8555,2.8613,2.9043,2.9473,2.9863,3.0117,3.0508,3.0898,3.0898,3.0898,3.0898,3.0898,3.0898,3.0898,3.0898,3.0898,3.0898,3.0898,3.0898,3.0996,3.1406,3.1523,3.1641,3.207,3.2168,3.2031,3.1523,3.1426,3.1426,3.1426,3.1426,3.1562,3.1992,3.2266,3.2578,3.3008,3.3262,3.3418,3.3418,3.3594,3.3691,3.3691,3.4082,3.4414,3.4609,3.5098,3.5469,3.5644,3.5898,3.6016,3.6016,3.6016,3.6016,3.6016,3.5781,3.5664,3.5664,3.5898,3.6016,2.2206,2.1607,0.0,0.0,0.0,0.0,2.2891,2.2773,2.2637,0.0,0.0,0.0,0.0,0.0,0.0,0.0,0.0,0.0,0.0,0.0,0.0,0.0,0.0,0.0,0.0,0.0,2.4258,2.3887,2.4258,2.4687,2.5117,2.5527,2.5742,2.5742,2.5742,2.5742,2.5742,2.5742,2.5957,2.6387,2.6445,2.668,2.7109,2.7539,2.7734,2.7754,2.8125,2.832,2.8398,2.8769,2.8691,2.8398,2.8828,2.8984,2.9043,2.9473,2.9883,3.0195,3.0254,3.0547,3.0898,3.0898,3.0898,3.0898,3.0898,3.0898,3.0898,3.0898,3.0898,3.0898,3.0957,3.0957,3.1074,3.1543,3.166,3.1777,3.2207,3.2305,3.2305,3.2305,3.2226,3.2168,3.2168,3.2168,3.2305,3.2734,3.2793,3.2949,3.3379,3.3457,3.3496,3.3496,3.3887,3.4141,3.4141,3.4531,3.4961,3.5371,3.543,3.5625,3.5996,3.6016,3.6016,3.6016,3.6016,3.6016,3.6016,3.6016,3.6016,3.6016,3.6016,3.6035,0.0,0.0,0.0,0.0,0.0,0.0,2.2519,2.2578,2.2734,0.0,0.0,0.0,0.0,0.0,0.0,0.0,0.0,0.0,0.0,0.0,0.0,0.0,0.0,0.0,0.0,0.0,2.4375,2.4297,2.4707,2.5137,2.5586,2.5684,2.5742,2.5742,2.5742,2.5742,2.5742,2.5742,2.5957,2.6387,2.6738,2.7109,2.7559,2.7969,2.8164,2.8184,2.8262,2.8476,2.8809,2.8887,2.8867,2.8848,2.9277,2.9453,2.9492,2.9922,3.0137,3.0254,3.0625,3.082,3.0898,3.0898,3.0898,3.0898,3.0898,3.0898,3.0898,3.0898,3.0898,3.0976,3.1309,3.1406,3.1582,3.2363,3.2539,3.2656,3.3086,3.3184,3.3184,3.3184,3.2637,3.2168,3.2168,3.2168,3.2305,3.2734,3.2793,3.2949,3.3379,3.373,3.3945,3.3945,3.4336,3.457,3.457,3.5,3.5293,3.5391,3.5703,3.5937,3.6016,3.6016,3.6016,3.6016,3.6016,3.6016,3.6016,3.6016,3.6016,3.6016,3.6016,3.6211,0.0,0.0,0.0,2.263,0.0,0.0,0.0,0.0,2.2695,2.334,0.0,0.0,0.0,0.0,0.0,0.0,0.0,0.0,0.0,0.0,0.0,0.0,0.0,0.0,0.0,0.0,2.5078,2.5078,2.5273,2.5508,2.5723,2.5742,2.5742,2.5742,2.5742,2.584,2.6055,2.6055,2.6387,2.7031,2.7246,2.7559,2.7988,2.8203,2.8398,2.8613,2.8613,2.8848,2.9258,2.9473,2.9551,2.957,2.9805,2.9883,2.9941,3.0371,3.0547,3.0586,3.082,3.0898,3.0898,3.0898,3.0898,3.0898,3.0898,3.0898,3.0898,3.0898,3.1035,3.125,3.1465,3.168,3.2012,3.2637,3.2793,3.291,3.332,3.3418,3.3418,3.3418,3.3086,3.2793,3.2793,3.2793,3.2871,3.3066,3.3105,3.3184,3.3398,3.3809,3.4082,3.4082,3.4648,3.5039,3.5039,3.5449,3.5703,3.5703,3.5898,3.6016,3.6016,3.6016,3.6016,3.6016,3.6016,3.6133,3.6348,3.6348,3.6348,3.6348,3.6348,3.6562,0.0,0.0,0.0,0.0,0.0,2.2715,0.0,0.0,0.0,2.3066,0.0,0.0,0.0,0.0,0.0,0.0,0.0,0.0,0.0,0.0,0.0,0.0,0.0,0.0,0.0,2.5391,2.5684,2.5859,2.5781,2.5801,2.5977,2.5977,2.5977,2.5977,2.5977,2.6152,2.6504,2.6504,2.6894,2.7676,2.7676,2.7891,2.8301,2.8379,2.8594,2.8926,2.9004,2.9297,2.9726,3.0059,3.0254,3.0332,3.0332,3.0332,3.0371,3.0762,3.0898,3.0898,3.0898,3.0898,3.0898,3.0898,3.0898,3.0898,3.0898,3.0937,3.1016,3.1016,3.1309,3.166,3.1738,3.2031,3.2402,3.2812,3.291,3.3008,3.334,3.3418,3.3418,3.3418,3.3418,3.3418,3.3418,3.3418,3.3418,3.3418,3.3418,3.3457,3.3535,3.3926,3.4219,3.4316,3.5039,3.5508,3.5508,3.582,3.6016,3.6016,3.6016,3.6016,3.6016,3.6016,3.6016,3.6016,3.6016,3.623,3.668,3.668,3.6719,3.6797,3.6797,3.7012,0.0,0.0,0.0,0.0,2.3846,0.0,0.0,0.0,2.3086,2.3125,0.0,0.0,0.0,0.0,0.0,0.0,0.0,0.0,0.0,0.0,0.0,0.0,0.0,0.0,0.0,0.0,0.0,2.625,2.5957,2.6074,2.6836,2.6875,2.6875,2.6875,2.6875,2.6894,2.6934,2.6953,2.7187,2.7676,2.7676,2.7891,2.8301,2.8672,2.8867,2.8945,2.9336,2.9726,3.0137,3.0176,3.0449,3.082,3.082,3.082,3.082,3.0879,3.0898,3.0898,3.0898,3.0898,3.0898,3.0898,3.0898,3.0898,3.0898,3.1152,3.1445,3.1445,3.1758,3.2187,3.2559,3.2676,3.2832,3.3242,3.3359,3.3359,3.3418,3.3418,3.3418,3.3418,3.3418,3.3418,3.3418,3.3418,3.3418,3.3418,3.3418,3.3555,3.3945,3.4375,3.4785,3.5195,3.5664,3.5957,3.5957,3.5996,3.6016,3.6016,3.6016,3.6016,3.6016,3.6016,3.6016,3.6016,3.6016,3.623,3.668,3.668,3.6855,3.7226,3.7226,3.7461,0.0,0.0,0.0,0.0,0.0,0.0,0.0,0.0,2.3144,0.0,0.0,0.0,0.0,0.0,0.0,0.0,0.0,0.0,0.0,0.0,0.0,0.0,0.0,0.0,0.0,0.0,0.0,0.0,0.0,2.6016,2.6621,2.6875,2.7012,2.7012,2.7012,2.7129,2.7383,2.7402,2.7598,2.8027,2.8027,2.8242,2.8652,2.8848,2.9199,2.9668,2.9844,3.0195,3.0605,3.0605,3.0723,3.0898,3.0898,3.0898,3.0898,3.0898,3.0898,3.0898,3.0898,3.0898,3.0898,3.0898,3.0898,3.0898,3.0898,3.1191,3.1523,3.1523,3.2012,3.2578,3.2754,3.2969,3.3203,3.3379,3.3418,3.3418,3.3418,3.3418,3.3418,3.3418,3.3418,3.3418,3.3418,3.3633,3.3809,3.3809,3.4004,3.4238,3.4414,3.4824,3.5176,3.5371,3.5762,3.6016,3.6016,3.6016,3.6016,3.6016,3.6016,3.6016,3.6016,3.6269,3.6289,3.6035,3.6504,3.6855,3.7031,3.7285,3.7617,3.8027,3.7773,3.7891,2.8426,0.0,0.0,0.0,0.0,0.0,0.0,0.0,0.0,0.0,0.0,0.0,0.0,0.0,0.0,0.0,0.0,0.0,0.0,0.0,0.0,0.0,0.0,0.0,0.0,0.0,0.0,0.0,0.0,0.0,2.6699,2.7031,2.7246,2.7363,2.7363,2.7519,2.7832,2.7832,2.7988,2.8301,2.8398,2.8633,2.8926,2.916,2.9609,3.0195,3.0332,3.0586,3.0898,3.0898,3.0898,3.0898,3.0898,3.0898,3.0898,3.0898,3.0898,3.0898,3.0898,3.0898,3.0898,3.0898,3.0898,3.0918,3.1035,3.1367,3.1719,3.1836,3.2402,3.2969,3.2969,3.3184,3.3418,3.3418,3.3516,3.3594,3.3594,3.3691,3.3769,3.3769,3.3769,3.3769,3.3769,3.3945,3.4082,3.4082,3.4434,3.4746,3.4883,3.5176,3.543,3.5547,3.584,3.6016,3.6016,3.6016,3.6016,3.6016,3.6133,3.6191,3.6191,3.6621,3.6699,3.6367,3.6973,3.7344,3.7461,3.7773,3.8144,3.8574,3.8242,3.8281,0.0,0.0,0.0,2.5041,0.0,0.0,0.0,0.0,2.3652,0.0,0.0,0.0,0.0,0.0,2.3125,2.3144,0.0,0.0,0.0,0.0,0.0,0.0,0.0,0.0,0.0,0.0,0.0,0.0,0.0,0.0,2.7539,2.7637,2.7832,2.8242,2.8262,2.8262,2.8262,2.8262,2.8281,2.8301,2.8711,2.8906,2.8945,2.9785,3.0176,3.0215,3.0664,3.0879,3.0898,3.0898,3.0898,3.0898,3.0898,3.0898,3.0898,3.0898,3.0898,3.0898,3.0898,3.0898,3.0898,3.0898,3.0898,3.0957,3.1367,3.1797,3.2226,3.2637,3.3066,3.3398,3.3398,3.3418,3.3418,3.3418,3.375,3.4043,3.4043,3.4375,3.4668,3.4668,3.4668,3.4668,3.4668,3.4336,3.4082,3.4082,3.4434,3.4863,3.5312,3.5391,3.5547,3.5957,3.6016,3.6016,3.6016,3.6016,3.6016,3.6016,3.6426,3.6641,3.6641,3.7051,3.7266,3.7266,3.7285,3.75,3.791,3.791,3.8144,3.8574,3.8555,3.8555,0.0,0.0,2.6235,2.5041,0.0,0.0,0.0,0.0,0.0,0.0,0.0,0.0,0.0,0.0,2.3144,2.3144,2.3144,0.0,0.0,0.0,0.0,0.0,0.0,0.0,0.0,0.0,0.0,0.0,0.0,0.0,0.0,2.7773,2.8144,2.8281,2.8301,2.8301,2.8301,2.8301,2.8437,2.8711,2.8848,2.9219,2.9766,3.0059,3.0371,3.0664,3.082,3.0898,3.0898,3.0898,3.0898,3.0898,3.0898,3.0898,3.0898,3.0898,3.0898,3.0898,3.0898,3.0898,3.0937,3.1211,3.1309,3.1387,3.1816,3.2246,3.2617,3.2754,3.3105,3.3418,3.3418,3.3418,3.3496,3.3789,3.3965,3.4141,3.4434,3.459,3.4707,3.4707,3.4707,3.4707,3.4707,3.4824,3.4941,3.4941,3.5312,3.5625,3.5781,3.5801,3.5859,3.5996,3.6016,3.6016,3.6016,3.6289,3.6445,3.6445,3.6855,3.709,3.709,3.748,3.7578,3.7305,3.7851,3.8066,3.793,3.8223,3.8437,3.8574,3.8574,3.8574,2.7947,2.7058,0.0,0.0,2.3627,0.0,2.3144,0.0,0.0,0.0,0.0,0.0,0.0,0.0,2.3144,2.3144,2.3144,2.3144,0.0,2.3144,0.0,0.0,0.0,0.0,0.0,0.0,2.4512,2.5254,0.0,0.0,0.0,0.0,2.8203,2.8496,2.8516,2.8594,2.875,2.875,2.8887,2.9141,2.9297,2.9668,3.0195,3.0371,3.0605,3.0898,3.0898,3.0898,3.0898,3.0898,3.0898,3.0898,3.0898,3.0898,3.0898,3.0898,3.0898,3.0898,3.0898,3.0996,3.1152,3.1426,3.1621,3.1836,3.2266,3.2578,3.2832,3.2969,3.3203,3.3418,3.3418,3.3535,3.373,3.4004,3.4316,3.4609,3.4883,3.5059,3.5176,3.5176,3.5176,3.5176,3.5176,3.541,3.5566,3.541,3.5742,3.6016,3.6016,3.6016,3.6016,3.6016,3.6016,3.6094,3.623,3.6641,3.6894,3.6894,3.7285,3.7519,3.7519,3.793,3.8027,3.7754,3.8301,3.8437,3.8164,3.8437,3.8574,3.8574,3.8574,3.8574]}]]